<?xml version="1.0" encoding="UTF-8" standalone="no" ?>
<gpx xmlns="http://www.topografix.com/GPX/1/1" xmlns:xsi="http://www.w3.org/2001/XMLSchema-instance" xsi:schemaLocation="http://www.topografix.com/GPX/1/1 http://www.topografix.com/GPX/1/1/gpx.xsd" version="1.1" creator="VisuGPX - https://www.visugpx.com">
  <metadata>
    <name>Rotalon</name>
    <desc><![CDATA[Vtt autour de Rotalon mixte route/chemin]]></desc>
  </metadata>
  <trk>
    <name><![CDATA[Tracé actuel: 30 JUIN 2011 14:15 001]]></name>
    <trkseg>
      <trkpt lat="45.62242" lon="4.64133">
        <ele>490.89</ele>
        <time>2011-06-30T12:15:26Z</time>
      </trkpt>
      <trkpt lat="45.62242" lon="4.64133">
        <ele>482.72</ele>
        <time>2011-06-30T12:15:31Z</time>
      </trkpt>
      <trkpt lat="45.62242" lon="4.64133">
        <ele>490.89</ele>
        <time>2011-06-30T12:15:32Z</time>
      </trkpt>
      <trkpt lat="45.62242" lon="4.64133">
        <ele>490.41</ele>
        <time>2011-06-30T12:15:43Z</time>
      </trkpt>
      <trkpt lat="45.6224" lon="4.64135">
        <ele>490.41</ele>
        <time>2011-06-30T12:15:47Z</time>
      </trkpt>
      <trkpt lat="45.62242" lon="4.64149">
        <ele>489.93</ele>
        <time>2011-06-30T12:15:52Z</time>
      </trkpt>
      <trkpt lat="45.62266" lon="4.64206">
        <ele>489.93</ele>
        <time>2011-06-30T12:16:06Z</time>
      </trkpt>
      <trkpt lat="45.62276" lon="4.64205">
        <ele>488.97</ele>
        <time>2011-06-30T12:16:10Z</time>
      </trkpt>
      <trkpt lat="45.62277" lon="4.64202">
        <ele>488.97</ele>
        <time>2011-06-30T12:16:11Z</time>
      </trkpt>
      <trkpt lat="45.62277" lon="4.64198">
        <ele>488.97</ele>
        <time>2011-06-30T12:16:12Z</time>
      </trkpt>
      <trkpt lat="45.62276" lon="4.64194">
        <ele>489.45</ele>
        <time>2011-06-30T12:16:13Z</time>
      </trkpt>
      <trkpt lat="45.62275" lon="4.6419">
        <ele>489.93</ele>
        <time>2011-06-30T12:16:14Z</time>
      </trkpt>
      <trkpt lat="45.62275" lon="4.64186">
        <ele>490.41</ele>
        <time>2011-06-30T12:16:15Z</time>
      </trkpt>
      <trkpt lat="45.62273" lon="4.64182">
        <ele>489.93</ele>
        <time>2011-06-30T12:16:16Z</time>
      </trkpt>
      <trkpt lat="45.62257" lon="4.64129">
        <ele>493.29</ele>
        <time>2011-06-30T12:16:31Z</time>
      </trkpt>
      <trkpt lat="45.62246" lon="4.64085">
        <ele>496.18</ele>
        <time>2011-06-30T12:16:44Z</time>
      </trkpt>
      <trkpt lat="45.62228" lon="4.64027">
        <ele>499.54</ele>
        <time>2011-06-30T12:17:01Z</time>
      </trkpt>
      <trkpt lat="45.62191" lon="4.64">
        <ele>501.46</ele>
        <time>2011-06-30T12:17:17Z</time>
      </trkpt>
      <trkpt lat="45.62151" lon="4.63982">
        <ele>503.87</ele>
        <time>2011-06-30T12:17:33Z</time>
      </trkpt>
      <trkpt lat="45.62128" lon="4.63977">
        <ele>505.79</ele>
        <time>2011-06-30T12:17:42Z</time>
      </trkpt>
      <trkpt lat="45.6209" lon="4.63956">
        <ele>509.16</ele>
        <time>2011-06-30T12:17:59Z</time>
      </trkpt>
      <trkpt lat="45.62087" lon="4.63922">
        <ele>511.56</ele>
        <time>2011-06-30T12:18:11Z</time>
      </trkpt>
      <trkpt lat="45.62089" lon="4.6392">
        <ele>512.04</ele>
        <time>2011-06-30T12:18:12Z</time>
      </trkpt>
      <trkpt lat="45.62091" lon="4.6392">
        <ele>512.52</ele>
        <time>2011-06-30T12:18:13Z</time>
      </trkpt>
      <trkpt lat="45.62093" lon="4.6392">
        <ele>512.52</ele>
        <time>2011-06-30T12:18:14Z</time>
      </trkpt>
      <trkpt lat="45.62096" lon="4.63921">
        <ele>513</ele>
        <time>2011-06-30T12:18:15Z</time>
      </trkpt>
      <trkpt lat="45.62098" lon="4.63922">
        <ele>513</ele>
        <time>2011-06-30T12:18:16Z</time>
      </trkpt>
      <trkpt lat="45.62151" lon="4.63928">
        <ele>513.96</ele>
        <time>2011-06-30T12:18:35Z</time>
      </trkpt>
      <trkpt lat="45.62203" lon="4.63923">
        <ele>513.48</ele>
        <time>2011-06-30T12:18:51Z</time>
      </trkpt>
      <trkpt lat="45.62267" lon="4.63926">
        <ele>514.92</ele>
        <time>2011-06-30T12:19:10Z</time>
      </trkpt>
      <trkpt lat="45.62301" lon="4.63914">
        <ele>517.33</ele>
        <time>2011-06-30T12:19:22Z</time>
      </trkpt>
      <trkpt lat="45.62331" lon="4.63861">
        <ele>517.33</ele>
        <time>2011-06-30T12:19:38Z</time>
      </trkpt>
      <trkpt lat="45.62352" lon="4.6379">
        <ele>516.85</ele>
        <time>2011-06-30T12:19:53Z</time>
      </trkpt>
      <trkpt lat="45.6237" lon="4.63713">
        <ele>517.33</ele>
        <time>2011-06-30T12:20:08Z</time>
      </trkpt>
      <trkpt lat="45.62393" lon="4.63689">
        <ele>520.69</ele>
        <time>2011-06-30T12:20:19Z</time>
      </trkpt>
      <trkpt lat="45.62415" lon="4.63658">
        <ele>523.58</ele>
        <time>2011-06-30T12:20:32Z</time>
      </trkpt>
      <trkpt lat="45.62431" lon="4.63611">
        <ele>524.54</ele>
        <time>2011-06-30T12:20:46Z</time>
      </trkpt>
      <trkpt lat="45.62441" lon="4.63546">
        <ele>526.46</ele>
        <time>2011-06-30T12:21:02Z</time>
      </trkpt>
      <trkpt lat="45.62456" lon="4.63491">
        <ele>527.42</ele>
        <time>2011-06-30T12:21:16Z</time>
      </trkpt>
      <trkpt lat="45.62487" lon="4.63449">
        <ele>528.86</ele>
        <time>2011-06-30T12:21:30Z</time>
      </trkpt>
      <trkpt lat="45.62518" lon="4.63453">
        <ele>528.86</ele>
        <time>2011-06-30T12:21:40Z</time>
      </trkpt>
      <trkpt lat="45.62534" lon="4.63465">
        <ele>527.9</ele>
        <time>2011-06-30T12:21:44Z</time>
      </trkpt>
      <trkpt lat="45.62538" lon="4.63468">
        <ele>527.42</ele>
        <time>2011-06-30T12:21:45Z</time>
      </trkpt>
      <trkpt lat="45.62548" lon="4.6348">
        <ele>525.5</ele>
        <time>2011-06-30T12:21:48Z</time>
      </trkpt>
      <trkpt lat="45.62561" lon="4.6349">
        <ele>522.61</ele>
        <time>2011-06-30T12:21:51Z</time>
      </trkpt>
      <trkpt lat="45.62565" lon="4.63494">
        <ele>521.65</ele>
        <time>2011-06-30T12:21:52Z</time>
      </trkpt>
      <trkpt lat="45.62569" lon="4.63499">
        <ele>520.69</ele>
        <time>2011-06-30T12:21:53Z</time>
      </trkpt>
      <trkpt lat="45.62574" lon="4.63502">
        <ele>519.73</ele>
        <time>2011-06-30T12:21:54Z</time>
      </trkpt>
      <trkpt lat="45.62584" lon="4.63522">
        <ele>516.37</ele>
        <time>2011-06-30T12:21:57Z</time>
      </trkpt>
      <trkpt lat="45.62588" lon="4.63528">
        <ele>515.88</ele>
        <time>2011-06-30T12:21:58Z</time>
      </trkpt>
      <trkpt lat="45.62596" lon="4.63546">
        <ele>513</ele>
        <time>2011-06-30T12:22:01Z</time>
      </trkpt>
      <trkpt lat="45.62599" lon="4.63552">
        <ele>512.52</ele>
        <time>2011-06-30T12:22:02Z</time>
      </trkpt>
      <trkpt lat="45.62608" lon="4.63569">
        <ele>511.08</ele>
        <time>2011-06-30T12:22:05Z</time>
      </trkpt>
      <trkpt lat="45.62618" lon="4.63596">
        <ele>507.71</ele>
        <time>2011-06-30T12:22:09Z</time>
      </trkpt>
      <trkpt lat="45.62622" lon="4.63611">
        <ele>506.27</ele>
        <time>2011-06-30T12:22:11Z</time>
      </trkpt>
      <trkpt lat="45.62623" lon="4.63622">
        <ele>505.31</ele>
        <time>2011-06-30T12:22:12Z</time>
      </trkpt>
      <trkpt lat="45.62625" lon="4.63633">
        <ele>504.35</ele>
        <time>2011-06-30T12:22:13Z</time>
      </trkpt>
      <trkpt lat="45.62629" lon="4.63644">
        <ele>502.91</ele>
        <time>2011-06-30T12:22:14Z</time>
      </trkpt>
      <trkpt lat="45.62632" lon="4.63655">
        <ele>501.95</ele>
        <time>2011-06-30T12:22:15Z</time>
      </trkpt>
      <trkpt lat="45.62638" lon="4.63672">
        <ele>498.58</ele>
        <time>2011-06-30T12:22:17Z</time>
      </trkpt>
      <trkpt lat="45.62641" lon="4.63679">
        <ele>497.62</ele>
        <time>2011-06-30T12:22:18Z</time>
      </trkpt>
      <trkpt lat="45.62644" lon="4.63685">
        <ele>496.66</ele>
        <time>2011-06-30T12:22:19Z</time>
      </trkpt>
      <trkpt lat="45.62647" lon="4.63691">
        <ele>495.7</ele>
        <time>2011-06-30T12:22:20Z</time>
      </trkpt>
      <trkpt lat="45.62656" lon="4.63714">
        <ele>491.85</ele>
        <time>2011-06-30T12:22:24Z</time>
      </trkpt>
      <trkpt lat="45.62658" lon="4.63721">
        <ele>491.37</ele>
        <time>2011-06-30T12:22:25Z</time>
      </trkpt>
      <trkpt lat="45.62663" lon="4.63742">
        <ele>488.97</ele>
        <time>2011-06-30T12:22:29Z</time>
      </trkpt>
      <trkpt lat="45.62662" lon="4.63759">
        <ele>487.53</ele>
        <time>2011-06-30T12:22:32Z</time>
      </trkpt>
      <trkpt lat="45.62665" lon="4.63765">
        <ele>487.05</ele>
        <time>2011-06-30T12:22:33Z</time>
      </trkpt>
      <trkpt lat="45.62668" lon="4.6377">
        <ele>487.05</ele>
        <time>2011-06-30T12:22:34Z</time>
      </trkpt>
      <trkpt lat="45.62672" lon="4.63774">
        <ele>486.08</ele>
        <time>2011-06-30T12:22:35Z</time>
      </trkpt>
      <trkpt lat="45.62677" lon="4.63776">
        <ele>485.12</ele>
        <time>2011-06-30T12:22:36Z</time>
      </trkpt>
      <trkpt lat="45.62681" lon="4.63781">
        <ele>485.12</ele>
        <time>2011-06-30T12:22:37Z</time>
      </trkpt>
      <trkpt lat="45.62685" lon="4.63786">
        <ele>483.68</ele>
        <time>2011-06-30T12:22:38Z</time>
      </trkpt>
      <trkpt lat="45.62689" lon="4.63791">
        <ele>482.72</ele>
        <time>2011-06-30T12:22:39Z</time>
      </trkpt>
      <trkpt lat="45.62696" lon="4.63801">
        <ele>480.32</ele>
        <time>2011-06-30T12:22:41Z</time>
      </trkpt>
      <trkpt lat="45.62704" lon="4.63814">
        <ele>476.95</ele>
        <time>2011-06-30T12:22:44Z</time>
      </trkpt>
      <trkpt lat="45.62706" lon="4.63817">
        <ele>475.99</ele>
        <time>2011-06-30T12:22:45Z</time>
      </trkpt>
      <trkpt lat="45.62708" lon="4.63818">
        <ele>475.51</ele>
        <time>2011-06-30T12:22:46Z</time>
      </trkpt>
      <trkpt lat="45.62709" lon="4.63818">
        <ele>475.51</ele>
        <time>2011-06-30T12:22:47Z</time>
      </trkpt>
      <trkpt lat="45.62712" lon="4.63818">
        <ele>475.03</ele>
        <time>2011-06-30T12:22:48Z</time>
      </trkpt>
      <trkpt lat="45.62714" lon="4.63819">
        <ele>474.07</ele>
        <time>2011-06-30T12:22:49Z</time>
      </trkpt>
      <trkpt lat="45.62716" lon="4.63821">
        <ele>473.59</ele>
        <time>2011-06-30T12:22:50Z</time>
      </trkpt>
      <trkpt lat="45.62719" lon="4.63823">
        <ele>472.14</ele>
        <time>2011-06-30T12:22:51Z</time>
      </trkpt>
      <trkpt lat="45.62721" lon="4.63825">
        <ele>471.18</ele>
        <time>2011-06-30T12:22:52Z</time>
      </trkpt>
      <trkpt lat="45.62723" lon="4.63828">
        <ele>470.22</ele>
        <time>2011-06-30T12:22:53Z</time>
      </trkpt>
      <trkpt lat="45.62726" lon="4.63831">
        <ele>469.74</ele>
        <time>2011-06-30T12:22:54Z</time>
      </trkpt>
      <trkpt lat="45.62734" lon="4.63841">
        <ele>465.9</ele>
        <time>2011-06-30T12:22:57Z</time>
      </trkpt>
      <trkpt lat="45.62737" lon="4.63843">
        <ele>465.9</ele>
        <time>2011-06-30T12:22:58Z</time>
      </trkpt>
      <trkpt lat="45.6275" lon="4.63854">
        <ele>461.57</ele>
        <time>2011-06-30T12:23:02Z</time>
      </trkpt>
      <trkpt lat="45.62752" lon="4.63857">
        <ele>461.57</ele>
        <time>2011-06-30T12:23:03Z</time>
      </trkpt>
      <trkpt lat="45.62754" lon="4.6386">
        <ele>460.61</ele>
        <time>2011-06-30T12:23:04Z</time>
      </trkpt>
      <trkpt lat="45.62763" lon="4.63871">
        <ele>457.24</ele>
        <time>2011-06-30T12:23:07Z</time>
      </trkpt>
      <trkpt lat="45.62781" lon="4.6388">
        <ele>455.32</ele>
        <time>2011-06-30T12:23:11Z</time>
      </trkpt>
      <trkpt lat="45.6279" lon="4.63886">
        <ele>453.88</ele>
        <time>2011-06-30T12:23:13Z</time>
      </trkpt>
      <trkpt lat="45.62794" lon="4.63891">
        <ele>453.4</ele>
        <time>2011-06-30T12:23:14Z</time>
      </trkpt>
      <trkpt lat="45.62803" lon="4.63902">
        <ele>450.52</ele>
        <time>2011-06-30T12:23:16Z</time>
      </trkpt>
      <trkpt lat="45.62821" lon="4.63918">
        <ele>449.07</ele>
        <time>2011-06-30T12:23:21Z</time>
      </trkpt>
      <trkpt lat="45.62824" lon="4.63921">
        <ele>447.63</ele>
        <time>2011-06-30T12:23:22Z</time>
      </trkpt>
      <trkpt lat="45.62828" lon="4.63924">
        <ele>447.15</ele>
        <time>2011-06-30T12:23:23Z</time>
      </trkpt>
      <trkpt lat="45.62832" lon="4.63928">
        <ele>447.15</ele>
        <time>2011-06-30T12:23:24Z</time>
      </trkpt>
      <trkpt lat="45.62836" lon="4.6393">
        <ele>445.71</ele>
        <time>2011-06-30T12:23:25Z</time>
      </trkpt>
      <trkpt lat="45.62839" lon="4.63932">
        <ele>445.71</ele>
        <time>2011-06-30T12:23:26Z</time>
      </trkpt>
      <trkpt lat="45.62842" lon="4.63933">
        <ele>444.27</ele>
        <time>2011-06-30T12:23:27Z</time>
      </trkpt>
      <trkpt lat="45.62852" lon="4.63936">
        <ele>442.82</ele>
        <time>2011-06-30T12:23:30Z</time>
      </trkpt>
      <trkpt lat="45.62855" lon="4.63937">
        <ele>442.34</ele>
        <time>2011-06-30T12:23:31Z</time>
      </trkpt>
      <trkpt lat="45.62857" lon="4.63939">
        <ele>441.38</ele>
        <time>2011-06-30T12:23:32Z</time>
      </trkpt>
      <trkpt lat="45.6286" lon="4.6394">
        <ele>441.38</ele>
        <time>2011-06-30T12:23:33Z</time>
      </trkpt>
      <trkpt lat="45.62862" lon="4.6394">
        <ele>440.9</ele>
        <time>2011-06-30T12:23:34Z</time>
      </trkpt>
      <trkpt lat="45.62868" lon="4.63945">
        <ele>438.98</ele>
        <time>2011-06-30T12:23:37Z</time>
      </trkpt>
      <trkpt lat="45.62869" lon="4.63947">
        <ele>438.02</ele>
        <time>2011-06-30T12:23:38Z</time>
      </trkpt>
      <trkpt lat="45.62879" lon="4.63968">
        <ele>435.13</ele>
        <time>2011-06-30T12:23:44Z</time>
      </trkpt>
      <trkpt lat="45.62887" lon="4.63983">
        <ele>431.29</ele>
        <time>2011-06-30T12:23:48Z</time>
      </trkpt>
      <trkpt lat="45.62895" lon="4.64003">
        <ele>427.92</ele>
        <time>2011-06-30T12:23:52Z</time>
      </trkpt>
      <trkpt lat="45.62897" lon="4.64008">
        <ele>427.92</ele>
        <time>2011-06-30T12:23:53Z</time>
      </trkpt>
      <trkpt lat="45.62903" lon="4.64016">
        <ele>427.92</ele>
        <time>2011-06-30T12:23:55Z</time>
      </trkpt>
      <trkpt lat="45.62907" lon="4.64018">
        <ele>427.92</ele>
        <time>2011-06-30T12:23:56Z</time>
      </trkpt>
      <trkpt lat="45.62909" lon="4.64019">
        <ele>427.92</ele>
        <time>2011-06-30T12:23:57Z</time>
      </trkpt>
      <trkpt lat="45.62912" lon="4.6402">
        <ele>428.4</ele>
        <time>2011-06-30T12:23:58Z</time>
      </trkpt>
      <trkpt lat="45.62915" lon="4.64021">
        <ele>428.89</ele>
        <time>2011-06-30T12:23:59Z</time>
      </trkpt>
      <trkpt lat="45.62918" lon="4.64023">
        <ele>428.89</ele>
        <time>2011-06-30T12:24:00Z</time>
      </trkpt>
      <trkpt lat="45.6292" lon="4.64024">
        <ele>429.37</ele>
        <time>2011-06-30T12:24:01Z</time>
      </trkpt>
      <trkpt lat="45.62923" lon="4.64026">
        <ele>429.85</ele>
        <time>2011-06-30T12:24:02Z</time>
      </trkpt>
      <trkpt lat="45.6293" lon="4.64031">
        <ele>429.85</ele>
        <time>2011-06-30T12:24:06Z</time>
      </trkpt>
      <trkpt lat="45.62932" lon="4.64032">
        <ele>429.85</ele>
        <time>2011-06-30T12:24:07Z</time>
      </trkpt>
      <trkpt lat="45.62934" lon="4.64031">
        <ele>429.85</ele>
        <time>2011-06-30T12:24:08Z</time>
      </trkpt>
      <trkpt lat="45.62936" lon="4.6403">
        <ele>429.37</ele>
        <time>2011-06-30T12:24:09Z</time>
      </trkpt>
      <trkpt lat="45.62939" lon="4.64028">
        <ele>429.85</ele>
        <time>2011-06-30T12:24:10Z</time>
      </trkpt>
      <trkpt lat="45.62963" lon="4.64009">
        <ele>431.77</ele>
        <time>2011-06-30T12:24:25Z</time>
      </trkpt>
      <trkpt lat="45.62985" lon="4.63996">
        <ele>434.65</ele>
        <time>2011-06-30T12:24:38Z</time>
      </trkpt>
      <trkpt lat="45.6301" lon="4.63993">
        <ele>437.06</ele>
        <time>2011-06-30T12:24:52Z</time>
      </trkpt>
      <trkpt lat="45.63016" lon="4.63997">
        <ele>437.54</ele>
        <time>2011-06-30T12:24:56Z</time>
      </trkpt>
      <trkpt lat="45.63017" lon="4.63998">
        <ele>438.02</ele>
        <time>2011-06-30T12:24:57Z</time>
      </trkpt>
      <trkpt lat="45.63018" lon="4.63999">
        <ele>438.02</ele>
        <time>2011-06-30T12:24:58Z</time>
      </trkpt>
      <trkpt lat="45.63018" lon="4.64">
        <ele>438.5</ele>
        <time>2011-06-30T12:25:15Z</time>
      </trkpt>
      <trkpt lat="45.63021" lon="4.64">
        <ele>438.98</ele>
        <time>2011-06-30T12:25:17Z</time>
      </trkpt>
      <trkpt lat="45.63023" lon="4.64001">
        <ele>438.98</ele>
        <time>2011-06-30T12:25:18Z</time>
      </trkpt>
      <trkpt lat="45.63025" lon="4.64002">
        <ele>439.46</ele>
        <time>2011-06-30T12:25:19Z</time>
      </trkpt>
      <trkpt lat="45.63026" lon="4.64003">
        <ele>439.46</ele>
        <time>2011-06-30T12:25:20Z</time>
      </trkpt>
      <trkpt lat="45.63028" lon="4.64004">
        <ele>439.46</ele>
        <time>2011-06-30T12:25:21Z</time>
      </trkpt>
      <trkpt lat="45.63048" lon="4.64013">
        <ele>442.82</ele>
        <time>2011-06-30T12:25:34Z</time>
      </trkpt>
      <trkpt lat="45.63074" lon="4.64013">
        <ele>445.71</ele>
        <time>2011-06-30T12:25:50Z</time>
      </trkpt>
      <trkpt lat="45.63077" lon="4.6401">
        <ele>446.19</ele>
        <time>2011-06-30T12:25:52Z</time>
      </trkpt>
      <trkpt lat="45.63078" lon="4.64011">
        <ele>446.67</ele>
        <time>2011-06-30T12:25:53Z</time>
      </trkpt>
      <trkpt lat="45.63097" lon="4.64016">
        <ele>449.07</ele>
        <time>2011-06-30T12:26:08Z</time>
      </trkpt>
      <trkpt lat="45.63117" lon="4.64014">
        <ele>451.48</ele>
        <time>2011-06-30T12:26:24Z</time>
      </trkpt>
      <trkpt lat="45.6314" lon="4.64011">
        <ele>454.36</ele>
        <time>2011-06-30T12:26:43Z</time>
      </trkpt>
      <trkpt lat="45.63157" lon="4.6401">
        <ele>457.72</ele>
        <time>2011-06-30T12:26:58Z</time>
      </trkpt>
      <trkpt lat="45.63177" lon="4.64019">
        <ele>460.61</ele>
        <time>2011-06-30T12:27:17Z</time>
      </trkpt>
      <trkpt lat="45.63181" lon="4.6402">
        <ele>461.09</ele>
        <time>2011-06-30T12:27:20Z</time>
      </trkpt>
      <trkpt lat="45.63182" lon="4.6402">
        <ele>461.09</ele>
        <time>2011-06-30T12:27:21Z</time>
      </trkpt>
      <trkpt lat="45.63198" lon="4.64011">
        <ele>463.01</ele>
        <time>2011-06-30T12:27:35Z</time>
      </trkpt>
      <trkpt lat="45.63208" lon="4.64004">
        <ele>464.93</ele>
        <time>2011-06-30T12:27:45Z</time>
      </trkpt>
      <trkpt lat="45.63209" lon="4.64004">
        <ele>465.42</ele>
        <time>2011-06-30T12:27:46Z</time>
      </trkpt>
      <trkpt lat="45.6321" lon="4.64003">
        <ele>465.42</ele>
        <time>2011-06-30T12:27:47Z</time>
      </trkpt>
      <trkpt lat="45.63211" lon="4.64003">
        <ele>465.42</ele>
        <time>2011-06-30T12:27:48Z</time>
      </trkpt>
      <trkpt lat="45.63213" lon="4.64002">
        <ele>465.9</ele>
        <time>2011-06-30T12:27:49Z</time>
      </trkpt>
      <trkpt lat="45.63213" lon="4.64001">
        <ele>466.38</ele>
        <time>2011-06-30T12:27:50Z</time>
      </trkpt>
      <trkpt lat="45.63215" lon="4.64001">
        <ele>466.38</ele>
        <time>2011-06-30T12:27:51Z</time>
      </trkpt>
      <trkpt lat="45.63228" lon="4.63992">
        <ele>469.26</ele>
        <time>2011-06-30T12:28:05Z</time>
      </trkpt>
      <trkpt lat="45.63243" lon="4.63985">
        <ele>471.66</ele>
        <time>2011-06-30T12:28:19Z</time>
      </trkpt>
      <trkpt lat="45.63262" lon="4.63975">
        <ele>474.55</ele>
        <time>2011-06-30T12:28:36Z</time>
      </trkpt>
      <trkpt lat="45.63275" lon="4.63972">
        <ele>476.47</ele>
        <time>2011-06-30T12:28:48Z</time>
      </trkpt>
      <trkpt lat="45.63277" lon="4.63972">
        <ele>476.95</ele>
        <time>2011-06-30T12:28:49Z</time>
      </trkpt>
      <trkpt lat="45.63278" lon="4.63973">
        <ele>476.95</ele>
        <time>2011-06-30T12:28:50Z</time>
      </trkpt>
      <trkpt lat="45.6328" lon="4.63974">
        <ele>476.95</ele>
        <time>2011-06-30T12:28:51Z</time>
      </trkpt>
      <trkpt lat="45.63281" lon="4.63973">
        <ele>477.43</ele>
        <time>2011-06-30T12:28:52Z</time>
      </trkpt>
      <trkpt lat="45.63288" lon="4.63969">
        <ele>477.43</ele>
        <time>2011-06-30T12:28:57Z</time>
      </trkpt>
      <trkpt lat="45.63289" lon="4.63968">
        <ele>477.43</ele>
        <time>2011-06-30T12:28:58Z</time>
      </trkpt>
      <trkpt lat="45.6329" lon="4.63966">
        <ele>477.91</ele>
        <time>2011-06-30T12:28:59Z</time>
      </trkpt>
      <trkpt lat="45.6329" lon="4.63964">
        <ele>477.91</ele>
        <time>2011-06-30T12:29:00Z</time>
      </trkpt>
      <trkpt lat="45.63291" lon="4.63962">
        <ele>477.91</ele>
        <time>2011-06-30T12:29:01Z</time>
      </trkpt>
      <trkpt lat="45.63291" lon="4.63961">
        <ele>477.91</ele>
        <time>2011-06-30T12:29:02Z</time>
      </trkpt>
      <trkpt lat="45.63292" lon="4.63959">
        <ele>478.39</ele>
        <time>2011-06-30T12:29:03Z</time>
      </trkpt>
      <trkpt lat="45.6331" lon="4.63971">
        <ele>480.32</ele>
        <time>2011-06-30T12:29:16Z</time>
      </trkpt>
      <trkpt lat="45.63332" lon="4.6398">
        <ele>480.8</ele>
        <time>2011-06-30T12:29:29Z</time>
      </trkpt>
      <trkpt lat="45.6337" lon="4.63969">
        <ele>481.76</ele>
        <time>2011-06-30T12:29:44Z</time>
      </trkpt>
      <trkpt lat="45.63414" lon="4.63951">
        <ele>484.16</ele>
        <time>2011-06-30T12:30:01Z</time>
      </trkpt>
      <trkpt lat="45.63454" lon="4.63964">
        <ele>486.08</ele>
        <time>2011-06-30T12:30:16Z</time>
      </trkpt>
      <trkpt lat="45.635" lon="4.6399">
        <ele>487.05</ele>
        <time>2011-06-30T12:30:32Z</time>
      </trkpt>
      <trkpt lat="45.63544" lon="4.64029">
        <ele>485.6</ele>
        <time>2011-06-30T12:30:45Z</time>
      </trkpt>
      <trkpt lat="45.63587" lon="4.64062">
        <ele>483.2</ele>
        <time>2011-06-30T12:30:55Z</time>
      </trkpt>
      <trkpt lat="45.63592" lon="4.64064">
        <ele>483.68</ele>
        <time>2011-06-30T12:30:56Z</time>
      </trkpt>
      <trkpt lat="45.63652" lon="4.64086">
        <ele>480.8</ele>
        <time>2011-06-30T12:31:08Z</time>
      </trkpt>
      <trkpt lat="45.63687" lon="4.64098">
        <ele>478.87</ele>
        <time>2011-06-30T12:31:14Z</time>
      </trkpt>
      <trkpt lat="45.63698" lon="4.64103">
        <ele>478.87</ele>
        <time>2011-06-30T12:31:16Z</time>
      </trkpt>
      <trkpt lat="45.63704" lon="4.64107">
        <ele>478.39</ele>
        <time>2011-06-30T12:31:17Z</time>
      </trkpt>
      <trkpt lat="45.63708" lon="4.64111">
        <ele>478.39</ele>
        <time>2011-06-30T12:31:18Z</time>
      </trkpt>
      <trkpt lat="45.63712" lon="4.64116">
        <ele>478.39</ele>
        <time>2011-06-30T12:31:19Z</time>
      </trkpt>
      <trkpt lat="45.63716" lon="4.64121">
        <ele>478.39</ele>
        <time>2011-06-30T12:31:20Z</time>
      </trkpt>
      <trkpt lat="45.63733" lon="4.64163">
        <ele>480.8</ele>
        <time>2011-06-30T12:31:31Z</time>
      </trkpt>
      <trkpt lat="45.63751" lon="4.64214">
        <ele>484.16</ele>
        <time>2011-06-30T12:31:45Z</time>
      </trkpt>
      <trkpt lat="45.63755" lon="4.64219">
        <ele>484.16</ele>
        <time>2011-06-30T12:31:47Z</time>
      </trkpt>
      <trkpt lat="45.63757" lon="4.64218">
        <ele>483.68</ele>
        <time>2011-06-30T12:31:48Z</time>
      </trkpt>
      <trkpt lat="45.6376" lon="4.64217">
        <ele>483.68</ele>
        <time>2011-06-30T12:31:49Z</time>
      </trkpt>
      <trkpt lat="45.63761" lon="4.64216">
        <ele>483.68</ele>
        <time>2011-06-30T12:31:50Z</time>
      </trkpt>
      <trkpt lat="45.63763" lon="4.64214">
        <ele>484.16</ele>
        <time>2011-06-30T12:31:51Z</time>
      </trkpt>
      <trkpt lat="45.63765" lon="4.64212">
        <ele>484.16</ele>
        <time>2011-06-30T12:31:52Z</time>
      </trkpt>
      <trkpt lat="45.63767" lon="4.6421">
        <ele>484.16</ele>
        <time>2011-06-30T12:31:53Z</time>
      </trkpt>
      <trkpt lat="45.63768" lon="4.64208">
        <ele>485.12</ele>
        <time>2011-06-30T12:31:54Z</time>
      </trkpt>
      <trkpt lat="45.63781" lon="4.64192">
        <ele>486.56</ele>
        <time>2011-06-30T12:32:08Z</time>
      </trkpt>
      <trkpt lat="45.63792" lon="4.64176">
        <ele>488.97</ele>
        <time>2011-06-30T12:32:17Z</time>
      </trkpt>
      <trkpt lat="45.63806" lon="4.64154">
        <ele>491.85</ele>
        <time>2011-06-30T12:32:29Z</time>
      </trkpt>
      <trkpt lat="45.6382" lon="4.64126">
        <ele>495.22</ele>
        <time>2011-06-30T12:32:43Z</time>
      </trkpt>
      <trkpt lat="45.63834" lon="4.64087">
        <ele>496.66</ele>
        <time>2011-06-30T12:33:00Z</time>
      </trkpt>
      <trkpt lat="45.6384" lon="4.64035">
        <ele>498.1</ele>
        <time>2011-06-30T12:33:18Z</time>
      </trkpt>
      <trkpt lat="45.63855" lon="4.63994">
        <ele>500.5</ele>
        <time>2011-06-30T12:33:34Z</time>
      </trkpt>
      <trkpt lat="45.63866" lon="4.63958">
        <ele>503.39</ele>
        <time>2011-06-30T12:33:47Z</time>
      </trkpt>
      <trkpt lat="45.63881" lon="4.63902">
        <ele>505.31</ele>
        <time>2011-06-30T12:34:07Z</time>
      </trkpt>
      <trkpt lat="45.63891" lon="4.63838">
        <ele>505.31</ele>
        <time>2011-06-30T12:34:26Z</time>
      </trkpt>
      <trkpt lat="45.63915" lon="4.63783">
        <ele>507.23</ele>
        <time>2011-06-30T12:34:41Z</time>
      </trkpt>
      <trkpt lat="45.63962" lon="4.63762">
        <ele>510.12</ele>
        <time>2011-06-30T12:34:56Z</time>
      </trkpt>
      <trkpt lat="45.63998" lon="4.63729">
        <ele>513</ele>
        <time>2011-06-30T12:35:10Z</time>
      </trkpt>
      <trkpt lat="45.64025" lon="4.63681">
        <ele>514.92</ele>
        <time>2011-06-30T12:35:24Z</time>
      </trkpt>
      <trkpt lat="45.64054" lon="4.63621">
        <ele>512.52</ele>
        <time>2011-06-30T12:35:35Z</time>
      </trkpt>
      <trkpt lat="45.6406" lon="4.63612">
        <ele>512.52</ele>
        <time>2011-06-30T12:35:37Z</time>
      </trkpt>
      <trkpt lat="45.64072" lon="4.6359">
        <ele>511.56</ele>
        <time>2011-06-30T12:35:41Z</time>
      </trkpt>
      <trkpt lat="45.64103" lon="4.63586">
        <ele>513.96</ele>
        <time>2011-06-30T12:35:54Z</time>
      </trkpt>
      <trkpt lat="45.64105" lon="4.63615">
        <ele>515.88</ele>
        <time>2011-06-30T12:36:00Z</time>
      </trkpt>
      <trkpt lat="45.64117" lon="4.63694">
        <ele>515.88</ele>
        <time>2011-06-30T12:36:14Z</time>
      </trkpt>
      <trkpt lat="45.64127" lon="4.63721">
        <ele>512.52</ele>
        <time>2011-06-30T12:36:21Z</time>
      </trkpt>
      <trkpt lat="45.64124" lon="4.63758">
        <ele>513.96</ele>
        <time>2011-06-30T12:36:32Z</time>
      </trkpt>
      <trkpt lat="45.64119" lon="4.63776">
        <ele>515.88</ele>
        <time>2011-06-30T12:36:41Z</time>
      </trkpt>
      <trkpt lat="45.64115" lon="4.63806">
        <ele>519.25</ele>
        <time>2011-06-30T12:36:54Z</time>
      </trkpt>
      <trkpt lat="45.64115" lon="4.63835">
        <ele>522.13</ele>
        <time>2011-06-30T12:37:10Z</time>
      </trkpt>
      <trkpt lat="45.64119" lon="4.63867">
        <ele>524.54</ele>
        <time>2011-06-30T12:37:26Z</time>
      </trkpt>
      <trkpt lat="45.64123" lon="4.63898">
        <ele>527.42</ele>
        <time>2011-06-30T12:37:42Z</time>
      </trkpt>
      <trkpt lat="45.64128" lon="4.63926">
        <ele>529.82</ele>
        <time>2011-06-30T12:37:57Z</time>
      </trkpt>
      <trkpt lat="45.64132" lon="4.63925">
        <ele>530.3</ele>
        <time>2011-06-30T12:38:06Z</time>
      </trkpt>
      <trkpt lat="45.64133" lon="4.63921">
        <ele>530.3</ele>
        <time>2011-06-30T12:38:12Z</time>
      </trkpt>
      <trkpt lat="45.64134" lon="4.63911">
        <ele>531.75</ele>
        <time>2011-06-30T12:38:18Z</time>
      </trkpt>
      <trkpt lat="45.64135" lon="4.63908">
        <ele>532.23</ele>
        <time>2011-06-30T12:38:20Z</time>
      </trkpt>
      <trkpt lat="45.64148" lon="4.63873">
        <ele>534.15</ele>
        <time>2011-06-30T12:38:40Z</time>
      </trkpt>
      <trkpt lat="45.64161" lon="4.63851">
        <ele>535.59</ele>
        <time>2011-06-30T12:38:54Z</time>
      </trkpt>
      <trkpt lat="45.64166" lon="4.63843">
        <ele>537.03</ele>
        <time>2011-06-30T12:39:00Z</time>
      </trkpt>
      <trkpt lat="45.64177" lon="4.63832">
        <ele>538.96</ele>
        <time>2011-06-30T12:39:09Z</time>
      </trkpt>
      <trkpt lat="45.6418" lon="4.63856">
        <ele>541.84</ele>
        <time>2011-06-30T12:39:23Z</time>
      </trkpt>
      <trkpt lat="45.64181" lon="4.63882">
        <ele>544.24</ele>
        <time>2011-06-30T12:39:36Z</time>
      </trkpt>
      <trkpt lat="45.64183" lon="4.63908">
        <ele>545.2</ele>
        <time>2011-06-30T12:39:48Z</time>
      </trkpt>
      <trkpt lat="45.64185" lon="4.63915">
        <ele>545.2</ele>
        <time>2011-06-30T12:39:52Z</time>
      </trkpt>
      <trkpt lat="45.64195" lon="4.63939">
        <ele>548.57</ele>
        <time>2011-06-30T12:40:07Z</time>
      </trkpt>
      <trkpt lat="45.64201" lon="4.63945">
        <ele>549.05</ele>
        <time>2011-06-30T12:40:12Z</time>
      </trkpt>
      <trkpt lat="45.6421" lon="4.63954">
        <ele>550.49</ele>
        <time>2011-06-30T12:40:19Z</time>
      </trkpt>
      <trkpt lat="45.6423" lon="4.63967">
        <ele>552.41</ele>
        <time>2011-06-30T12:40:34Z</time>
      </trkpt>
      <trkpt lat="45.64239" lon="4.6397">
        <ele>553.38</ele>
        <time>2011-06-30T12:40:41Z</time>
      </trkpt>
      <trkpt lat="45.64271" lon="4.6398">
        <ele>556.26</ele>
        <time>2011-06-30T12:41:00Z</time>
      </trkpt>
      <trkpt lat="45.64309" lon="4.63988">
        <ele>557.22</ele>
        <time>2011-06-30T12:41:19Z</time>
      </trkpt>
      <trkpt lat="45.64343" lon="4.63991">
        <ele>557.7</ele>
        <time>2011-06-30T12:41:33Z</time>
      </trkpt>
      <trkpt lat="45.64396" lon="4.63995">
        <ele>555.78</ele>
        <time>2011-06-30T12:41:51Z</time>
      </trkpt>
      <trkpt lat="45.64452" lon="4.64006">
        <ele>553.86</ele>
        <time>2011-06-30T12:42:05Z</time>
      </trkpt>
      <trkpt lat="45.6449" lon="4.64031">
        <ele>554.82</ele>
        <time>2011-06-30T12:42:18Z</time>
      </trkpt>
      <trkpt lat="45.64491" lon="4.64037">
        <ele>554.34</ele>
        <time>2011-06-30T12:42:19Z</time>
      </trkpt>
      <trkpt lat="45.64494" lon="4.64051">
        <ele>553.86</ele>
        <time>2011-06-30T12:42:21Z</time>
      </trkpt>
      <trkpt lat="45.64497" lon="4.64076">
        <ele>552.41</ele>
        <time>2011-06-30T12:42:24Z</time>
      </trkpt>
      <trkpt lat="45.64489" lon="4.64187">
        <ele>551.93</ele>
        <time>2011-06-30T12:42:40Z</time>
      </trkpt>
      <trkpt lat="45.64492" lon="4.64254">
        <ele>550.01</ele>
        <time>2011-06-30T12:42:52Z</time>
      </trkpt>
      <trkpt lat="45.64495" lon="4.64254">
        <ele>550.97</ele>
        <time>2011-06-30T12:42:53Z</time>
      </trkpt>
      <trkpt lat="45.64497" lon="4.64253">
        <ele>550.97</ele>
        <time>2011-06-30T12:42:54Z</time>
      </trkpt>
      <trkpt lat="45.64545" lon="4.64234">
        <ele>552.41</ele>
        <time>2011-06-30T12:43:10Z</time>
      </trkpt>
      <trkpt lat="45.64556" lon="4.64225">
        <ele>551.93</ele>
        <time>2011-06-30T12:43:13Z</time>
      </trkpt>
      <trkpt lat="45.64559" lon="4.64221">
        <ele>551.45</ele>
        <time>2011-06-30T12:43:14Z</time>
      </trkpt>
      <trkpt lat="45.64578" lon="4.64196">
        <ele>549.53</ele>
        <time>2011-06-30T12:43:19Z</time>
      </trkpt>
      <trkpt lat="45.64594" lon="4.64163">
        <ele>546.17</ele>
        <time>2011-06-30T12:43:24Z</time>
      </trkpt>
      <trkpt lat="45.646" lon="4.64146">
        <ele>545.69</ele>
        <time>2011-06-30T12:43:27Z</time>
      </trkpt>
      <trkpt lat="45.64606" lon="4.64131">
        <ele>544.24</ele>
        <time>2011-06-30T12:43:28Z</time>
      </trkpt>
      <trkpt lat="45.64609" lon="4.64125">
        <ele>543.76</ele>
        <time>2011-06-30T12:43:29Z</time>
      </trkpt>
      <trkpt lat="45.64613" lon="4.64122">
        <ele>543.28</ele>
        <time>2011-06-30T12:43:30Z</time>
      </trkpt>
      <trkpt lat="45.64618" lon="4.64121">
        <ele>543.28</ele>
        <time>2011-06-30T12:43:31Z</time>
      </trkpt>
      <trkpt lat="45.64623" lon="4.64122">
        <ele>543.28</ele>
        <time>2011-06-30T12:43:32Z</time>
      </trkpt>
      <trkpt lat="45.64627" lon="4.64124">
        <ele>542.8</ele>
        <time>2011-06-30T12:43:33Z</time>
      </trkpt>
      <trkpt lat="45.64632" lon="4.64126">
        <ele>543.76</ele>
        <time>2011-06-30T12:43:34Z</time>
      </trkpt>
      <trkpt lat="45.64635" lon="4.64128">
        <ele>543.28</ele>
        <time>2011-06-30T12:43:35Z</time>
      </trkpt>
      <trkpt lat="45.64638" lon="4.64129">
        <ele>543.28</ele>
        <time>2011-06-30T12:43:36Z</time>
      </trkpt>
      <trkpt lat="45.64642" lon="4.64131">
        <ele>543.28</ele>
        <time>2011-06-30T12:43:37Z</time>
      </trkpt>
      <trkpt lat="45.64645" lon="4.64134">
        <ele>543.28</ele>
        <time>2011-06-30T12:43:38Z</time>
      </trkpt>
      <trkpt lat="45.64672" lon="4.64153">
        <ele>546.17</ele>
        <time>2011-06-30T12:43:50Z</time>
      </trkpt>
      <trkpt lat="45.647" lon="4.64152">
        <ele>547.13</ele>
        <time>2011-06-30T12:44:02Z</time>
      </trkpt>
      <trkpt lat="45.64734" lon="4.64135">
        <ele>548.57</ele>
        <time>2011-06-30T12:44:18Z</time>
      </trkpt>
      <trkpt lat="45.64769" lon="4.64122">
        <ele>550.49</ele>
        <time>2011-06-30T12:44:34Z</time>
      </trkpt>
      <trkpt lat="45.64804" lon="4.64131">
        <ele>551.93</ele>
        <time>2011-06-30T12:44:49Z</time>
      </trkpt>
      <trkpt lat="45.64846" lon="4.64151">
        <ele>553.38</ele>
        <time>2011-06-30T12:45:06Z</time>
      </trkpt>
      <trkpt lat="45.6487" lon="4.64193">
        <ele>555.3</ele>
        <time>2011-06-30T12:45:21Z</time>
      </trkpt>
      <trkpt lat="45.64883" lon="4.64232">
        <ele>557.7</ele>
        <time>2011-06-30T12:45:36Z</time>
      </trkpt>
      <trkpt lat="45.64899" lon="4.64247">
        <ele>560.59</ele>
        <time>2011-06-30T12:45:46Z</time>
      </trkpt>
      <trkpt lat="45.64901" lon="4.64247">
        <ele>560.59</ele>
        <time>2011-06-30T12:45:47Z</time>
      </trkpt>
      <trkpt lat="45.64934" lon="4.64244">
        <ele>562.03</ele>
        <time>2011-06-30T12:46:04Z</time>
      </trkpt>
      <trkpt lat="45.64938" lon="4.64244">
        <ele>562.03</ele>
        <time>2011-06-30T12:46:15Z</time>
      </trkpt>
      <trkpt lat="45.64941" lon="4.64247">
        <ele>562.51</ele>
        <time>2011-06-30T12:46:17Z</time>
      </trkpt>
      <trkpt lat="45.64969" lon="4.643">
        <ele>560.59</ele>
        <time>2011-06-30T12:46:28Z</time>
      </trkpt>
      <trkpt lat="45.6499" lon="4.64348">
        <ele>557.22</ele>
        <time>2011-06-30T12:46:34Z</time>
      </trkpt>
      <trkpt lat="45.6501" lon="4.64383">
        <ele>554.34</ele>
        <time>2011-06-30T12:46:38Z</time>
      </trkpt>
      <trkpt lat="45.65021" lon="4.64398">
        <ele>553.86</ele>
        <time>2011-06-30T12:46:40Z</time>
      </trkpt>
      <trkpt lat="45.65054" lon="4.64455">
        <ele>550.49</ele>
        <time>2011-06-30T12:46:48Z</time>
      </trkpt>
      <trkpt lat="45.65083" lon="4.64517">
        <ele>550.49</ele>
        <time>2011-06-30T12:47:01Z</time>
      </trkpt>
      <trkpt lat="45.65115" lon="4.64582">
        <ele>551.93</ele>
        <time>2011-06-30T12:47:16Z</time>
      </trkpt>
      <trkpt lat="45.65152" lon="4.64668">
        <ele>550.97</ele>
        <time>2011-06-30T12:47:35Z</time>
      </trkpt>
      <trkpt lat="45.65179" lon="4.64755">
        <ele>552.9</ele>
        <time>2011-06-30T12:47:54Z</time>
      </trkpt>
      <trkpt lat="45.6522" lon="4.64819">
        <ele>553.38</ele>
        <time>2011-06-30T12:48:11Z</time>
      </trkpt>
      <trkpt lat="45.65272" lon="4.64876">
        <ele>555.3</ele>
        <time>2011-06-30T12:48:30Z</time>
      </trkpt>
      <trkpt lat="45.65326" lon="4.64936">
        <ele>557.7</ele>
        <time>2011-06-30T12:48:51Z</time>
      </trkpt>
      <trkpt lat="45.65369" lon="4.64985">
        <ele>559.14</ele>
        <time>2011-06-30T12:49:07Z</time>
      </trkpt>
      <trkpt lat="45.65401" lon="4.65027">
        <ele>556.26</ele>
        <time>2011-06-30T12:49:17Z</time>
      </trkpt>
      <trkpt lat="45.65404" lon="4.65033">
        <ele>556.26</ele>
        <time>2011-06-30T12:49:18Z</time>
      </trkpt>
      <trkpt lat="45.65408" lon="4.65038">
        <ele>555.78</ele>
        <time>2011-06-30T12:49:19Z</time>
      </trkpt>
      <trkpt lat="45.65454" lon="4.65106">
        <ele>551.93</ele>
        <time>2011-06-30T12:49:29Z</time>
      </trkpt>
      <trkpt lat="45.65483" lon="4.65141">
        <ele>548.57</ele>
        <time>2011-06-30T12:49:34Z</time>
      </trkpt>
      <trkpt lat="45.65509" lon="4.65172">
        <ele>545.69</ele>
        <time>2011-06-30T12:49:40Z</time>
      </trkpt>
      <trkpt lat="45.65529" lon="4.65196">
        <ele>543.76</ele>
        <time>2011-06-30T12:49:45Z</time>
      </trkpt>
      <trkpt lat="45.65538" lon="4.65205">
        <ele>542.8</ele>
        <time>2011-06-30T12:49:47Z</time>
      </trkpt>
      <trkpt lat="45.65554" lon="4.65223">
        <ele>539.44</ele>
        <time>2011-06-30T12:49:52Z</time>
      </trkpt>
      <trkpt lat="45.65557" lon="4.65224">
        <ele>539.44</ele>
        <time>2011-06-30T12:49:53Z</time>
      </trkpt>
      <trkpt lat="45.65559" lon="4.65223">
        <ele>538.96</ele>
        <time>2011-06-30T12:49:54Z</time>
      </trkpt>
      <trkpt lat="45.65559" lon="4.65222">
        <ele>538.48</ele>
        <time>2011-06-30T12:49:56Z</time>
      </trkpt>
      <trkpt lat="45.65564" lon="4.65211">
        <ele>537.03</ele>
        <time>2011-06-30T12:50:14Z</time>
      </trkpt>
      <trkpt lat="45.6557" lon="4.65202">
        <ele>536.55</ele>
        <time>2011-06-30T12:50:16Z</time>
      </trkpt>
      <trkpt lat="45.65573" lon="4.65196">
        <ele>536.07</ele>
        <time>2011-06-30T12:50:17Z</time>
      </trkpt>
      <trkpt lat="45.65576" lon="4.65191">
        <ele>536.07</ele>
        <time>2011-06-30T12:50:18Z</time>
      </trkpt>
      <trkpt lat="45.65579" lon="4.65186">
        <ele>535.59</ele>
        <time>2011-06-30T12:50:19Z</time>
      </trkpt>
      <trkpt lat="45.65583" lon="4.6518">
        <ele>535.59</ele>
        <time>2011-06-30T12:50:20Z</time>
      </trkpt>
      <trkpt lat="45.65586" lon="4.65175">
        <ele>535.11</ele>
        <time>2011-06-30T12:50:21Z</time>
      </trkpt>
      <trkpt lat="45.6559" lon="4.65169">
        <ele>535.11</ele>
        <time>2011-06-30T12:50:22Z</time>
      </trkpt>
      <trkpt lat="45.65594" lon="4.65163">
        <ele>534.63</ele>
        <time>2011-06-30T12:50:23Z</time>
      </trkpt>
      <trkpt lat="45.65598" lon="4.65157">
        <ele>534.15</ele>
        <time>2011-06-30T12:50:24Z</time>
      </trkpt>
      <trkpt lat="45.65619" lon="4.65126">
        <ele>532.71</ele>
        <time>2011-06-30T12:50:29Z</time>
      </trkpt>
      <trkpt lat="45.65642" lon="4.65091">
        <ele>530.79</ele>
        <time>2011-06-30T12:50:34Z</time>
      </trkpt>
      <trkpt lat="45.65666" lon="4.65057">
        <ele>527.9</ele>
        <time>2011-06-30T12:50:39Z</time>
      </trkpt>
      <trkpt lat="45.65676" lon="4.65043">
        <ele>526.94</ele>
        <time>2011-06-30T12:50:41Z</time>
      </trkpt>
      <trkpt lat="45.65691" lon="4.65024">
        <ele>526.46</ele>
        <time>2011-06-30T12:50:44Z</time>
      </trkpt>
      <trkpt lat="45.65697" lon="4.6502">
        <ele>526.94</ele>
        <time>2011-06-30T12:50:45Z</time>
      </trkpt>
      <trkpt lat="45.65703" lon="4.65016">
        <ele>526.46</ele>
        <time>2011-06-30T12:50:46Z</time>
      </trkpt>
      <trkpt lat="45.65766" lon="4.64965">
        <ele>523.58</ele>
        <time>2011-06-30T12:50:58Z</time>
      </trkpt>
      <trkpt lat="45.65771" lon="4.64962">
        <ele>523.58</ele>
        <time>2011-06-30T12:50:59Z</time>
      </trkpt>
      <trkpt lat="45.65794" lon="4.64946">
        <ele>522.13</ele>
        <time>2011-06-30T12:51:07Z</time>
      </trkpt>
      <trkpt lat="45.65796" lon="4.64946">
        <ele>522.13</ele>
        <time>2011-06-30T12:51:08Z</time>
      </trkpt>
      <trkpt lat="45.65796" lon="4.64944">
        <ele>521.17</ele>
        <time>2011-06-30T12:51:09Z</time>
      </trkpt>
      <trkpt lat="45.65795" lon="4.64943">
        <ele>521.65</ele>
        <time>2011-06-30T12:51:10Z</time>
      </trkpt>
      <trkpt lat="45.65785" lon="4.64952">
        <ele>522.13</ele>
        <time>2011-06-30T12:51:16Z</time>
      </trkpt>
      <trkpt lat="45.65772" lon="4.64962">
        <ele>522.13</ele>
        <time>2011-06-30T12:51:21Z</time>
      </trkpt>
      <trkpt lat="45.6577" lon="4.64958">
        <ele>522.13</ele>
        <time>2011-06-30T12:51:31Z</time>
      </trkpt>
      <trkpt lat="45.6577" lon="4.64957">
        <ele>522.61</ele>
        <time>2011-06-30T12:51:36Z</time>
      </trkpt>
      <trkpt lat="45.65771" lon="4.64952">
        <ele>522.13</ele>
        <time>2011-06-30T12:51:53Z</time>
      </trkpt>
      <trkpt lat="45.6577" lon="4.64951">
        <ele>522.13</ele>
        <time>2011-06-30T12:52:23Z</time>
      </trkpt>
      <trkpt lat="45.65768" lon="4.64953">
        <ele>522.61</ele>
        <time>2011-06-30T12:52:26Z</time>
      </trkpt>
      <trkpt lat="45.65769" lon="4.64956">
        <ele>522.61</ele>
        <time>2011-06-30T12:52:39Z</time>
      </trkpt>
      <trkpt lat="45.65769" lon="4.64955">
        <ele>523.09</ele>
        <time>2011-06-30T12:52:58Z</time>
      </trkpt>
      <trkpt lat="45.65769" lon="4.64955">
        <ele>523.09</ele>
        <time>2011-06-30T12:53:12Z</time>
      </trkpt>
      <trkpt lat="45.6577" lon="4.64956">
        <ele>523.09</ele>
        <time>2011-06-30T12:53:14Z</time>
      </trkpt>
      <trkpt lat="45.65772" lon="4.64957">
        <ele>523.09</ele>
        <time>2011-06-30T12:53:17Z</time>
      </trkpt>
      <trkpt lat="45.65787" lon="4.64935">
        <ele>520.69</ele>
        <time>2011-06-30T12:53:26Z</time>
      </trkpt>
      <trkpt lat="45.65809" lon="4.64912">
        <ele>518.29</ele>
        <time>2011-06-30T12:53:34Z</time>
      </trkpt>
      <trkpt lat="45.6582" lon="4.64904">
        <ele>517.33</ele>
        <time>2011-06-30T12:53:37Z</time>
      </trkpt>
      <trkpt lat="45.65834" lon="4.64893">
        <ele>515.4</ele>
        <time>2011-06-30T12:53:41Z</time>
      </trkpt>
      <trkpt lat="45.6586" lon="4.64861">
        <ele>511.56</ele>
        <time>2011-06-30T12:53:51Z</time>
      </trkpt>
      <trkpt lat="45.65888" lon="4.64824">
        <ele>510.12</ele>
        <time>2011-06-30T12:53:58Z</time>
      </trkpt>
      <trkpt lat="45.65892" lon="4.64817">
        <ele>509.16</ele>
        <time>2011-06-30T12:53:59Z</time>
      </trkpt>
      <trkpt lat="45.65896" lon="4.64811">
        <ele>509.16</ele>
        <time>2011-06-30T12:54:00Z</time>
      </trkpt>
      <trkpt lat="45.65899" lon="4.64805">
        <ele>508.67</ele>
        <time>2011-06-30T12:54:01Z</time>
      </trkpt>
      <trkpt lat="45.65902" lon="4.64797">
        <ele>508.67</ele>
        <time>2011-06-30T12:54:02Z</time>
      </trkpt>
      <trkpt lat="45.65903" lon="4.64789">
        <ele>507.23</ele>
        <time>2011-06-30T12:54:03Z</time>
      </trkpt>
      <trkpt lat="45.65904" lon="4.6478">
        <ele>507.23</ele>
        <time>2011-06-30T12:54:04Z</time>
      </trkpt>
      <trkpt lat="45.65917" lon="4.64703">
        <ele>506.27</ele>
        <time>2011-06-30T12:54:13Z</time>
      </trkpt>
      <trkpt lat="45.65917" lon="4.64681">
        <ele>505.31</ele>
        <time>2011-06-30T12:54:16Z</time>
      </trkpt>
      <trkpt lat="45.65916" lon="4.64674">
        <ele>504.83</ele>
        <time>2011-06-30T12:54:17Z</time>
      </trkpt>
      <trkpt lat="45.65916" lon="4.64659">
        <ele>504.35</ele>
        <time>2011-06-30T12:54:19Z</time>
      </trkpt>
      <trkpt lat="45.65919" lon="4.64626">
        <ele>501.95</ele>
        <time>2011-06-30T12:54:24Z</time>
      </trkpt>
      <trkpt lat="45.65921" lon="4.64619">
        <ele>500.5</ele>
        <time>2011-06-30T12:54:25Z</time>
      </trkpt>
      <trkpt lat="45.65924" lon="4.64612">
        <ele>500.5</ele>
        <time>2011-06-30T12:54:26Z</time>
      </trkpt>
      <trkpt lat="45.65925" lon="4.64605">
        <ele>499.54</ele>
        <time>2011-06-30T12:54:27Z</time>
      </trkpt>
      <trkpt lat="45.65926" lon="4.64599">
        <ele>498.58</ele>
        <time>2011-06-30T12:54:28Z</time>
      </trkpt>
      <trkpt lat="45.65926" lon="4.64593">
        <ele>497.62</ele>
        <time>2011-06-30T12:54:29Z</time>
      </trkpt>
      <trkpt lat="45.65924" lon="4.64586">
        <ele>496.66</ele>
        <time>2011-06-30T12:54:30Z</time>
      </trkpt>
      <trkpt lat="45.65923" lon="4.64579">
        <ele>495.7</ele>
        <time>2011-06-30T12:54:31Z</time>
      </trkpt>
      <trkpt lat="45.65923" lon="4.64571">
        <ele>494.74</ele>
        <time>2011-06-30T12:54:32Z</time>
      </trkpt>
      <trkpt lat="45.65922" lon="4.64563">
        <ele>493.77</ele>
        <time>2011-06-30T12:54:33Z</time>
      </trkpt>
      <trkpt lat="45.65921" lon="4.64556">
        <ele>493.77</ele>
        <time>2011-06-30T12:54:34Z</time>
      </trkpt>
      <trkpt lat="45.65919" lon="4.64549">
        <ele>492.81</ele>
        <time>2011-06-30T12:54:35Z</time>
      </trkpt>
      <trkpt lat="45.65915" lon="4.64536">
        <ele>491.85</ele>
        <time>2011-06-30T12:54:37Z</time>
      </trkpt>
      <trkpt lat="45.65913" lon="4.64521">
        <ele>489.93</ele>
        <time>2011-06-30T12:54:40Z</time>
      </trkpt>
      <trkpt lat="45.65909" lon="4.64504">
        <ele>486.56</ele>
        <time>2011-06-30T12:54:43Z</time>
      </trkpt>
      <trkpt lat="45.65913" lon="4.64481">
        <ele>483.2</ele>
        <time>2011-06-30T12:54:48Z</time>
      </trkpt>
      <trkpt lat="45.65922" lon="4.64472">
        <ele>480.32</ele>
        <time>2011-06-30T12:54:51Z</time>
      </trkpt>
      <trkpt lat="45.65924" lon="4.64471">
        <ele>480.32</ele>
        <time>2011-06-30T12:54:52Z</time>
      </trkpt>
      <trkpt lat="45.65926" lon="4.64471">
        <ele>479.84</ele>
        <time>2011-06-30T12:54:53Z</time>
      </trkpt>
      <trkpt lat="45.65929" lon="4.64469">
        <ele>479.35</ele>
        <time>2011-06-30T12:54:54Z</time>
      </trkpt>
      <trkpt lat="45.65933" lon="4.64465">
        <ele>478.39</ele>
        <time>2011-06-30T12:54:55Z</time>
      </trkpt>
      <trkpt lat="45.65936" lon="4.64461">
        <ele>478.39</ele>
        <time>2011-06-30T12:54:56Z</time>
      </trkpt>
      <trkpt lat="45.65939" lon="4.64458">
        <ele>477.91</ele>
        <time>2011-06-30T12:54:57Z</time>
      </trkpt>
      <trkpt lat="45.65951" lon="4.64438">
        <ele>475.51</ele>
        <time>2011-06-30T12:55:01Z</time>
      </trkpt>
      <trkpt lat="45.65954" lon="4.64432">
        <ele>475.51</ele>
        <time>2011-06-30T12:55:02Z</time>
      </trkpt>
      <trkpt lat="45.65964" lon="4.64396">
        <ele>472.63</ele>
        <time>2011-06-30T12:55:07Z</time>
      </trkpt>
      <trkpt lat="45.65971" lon="4.64375">
        <ele>469.26</ele>
        <time>2011-06-30T12:55:11Z</time>
      </trkpt>
      <trkpt lat="45.65978" lon="4.64344">
        <ele>465.42</ele>
        <time>2011-06-30T12:55:19Z</time>
      </trkpt>
      <trkpt lat="45.6598" lon="4.64324">
        <ele>463.49</ele>
        <time>2011-06-30T12:55:23Z</time>
      </trkpt>
      <trkpt lat="45.65979" lon="4.64318">
        <ele>463.01</ele>
        <time>2011-06-30T12:55:24Z</time>
      </trkpt>
      <trkpt lat="45.65978" lon="4.64312">
        <ele>462.05</ele>
        <time>2011-06-30T12:55:25Z</time>
      </trkpt>
      <trkpt lat="45.65976" lon="4.64305">
        <ele>462.53</ele>
        <time>2011-06-30T12:55:26Z</time>
      </trkpt>
      <trkpt lat="45.65974" lon="4.643">
        <ele>462.53</ele>
        <time>2011-06-30T12:55:27Z</time>
      </trkpt>
      <trkpt lat="45.65971" lon="4.64294">
        <ele>462.05</ele>
        <time>2011-06-30T12:55:28Z</time>
      </trkpt>
      <trkpt lat="45.65968" lon="4.64289">
        <ele>461.09</ele>
        <time>2011-06-30T12:55:29Z</time>
      </trkpt>
      <trkpt lat="45.65958" lon="4.64275">
        <ele>460.61</ele>
        <time>2011-06-30T12:55:32Z</time>
      </trkpt>
      <trkpt lat="45.65955" lon="4.6427">
        <ele>460.13</ele>
        <time>2011-06-30T12:55:33Z</time>
      </trkpt>
      <trkpt lat="45.65954" lon="4.64265">
        <ele>459.17</ele>
        <time>2011-06-30T12:55:34Z</time>
      </trkpt>
      <trkpt lat="45.65953" lon="4.64259">
        <ele>458.69</ele>
        <time>2011-06-30T12:55:35Z</time>
      </trkpt>
      <trkpt lat="45.65951" lon="4.64253">
        <ele>458.69</ele>
        <time>2011-06-30T12:55:36Z</time>
      </trkpt>
      <trkpt lat="45.65949" lon="4.64248">
        <ele>457.24</ele>
        <time>2011-06-30T12:55:37Z</time>
      </trkpt>
      <trkpt lat="45.65946" lon="4.64243">
        <ele>456.28</ele>
        <time>2011-06-30T12:55:38Z</time>
      </trkpt>
      <trkpt lat="45.65943" lon="4.64239">
        <ele>456.28</ele>
        <time>2011-06-30T12:55:39Z</time>
      </trkpt>
      <trkpt lat="45.6594" lon="4.64237">
        <ele>455.32</ele>
        <time>2011-06-30T12:55:40Z</time>
      </trkpt>
      <trkpt lat="45.65937" lon="4.64236">
        <ele>454.36</ele>
        <time>2011-06-30T12:55:41Z</time>
      </trkpt>
      <trkpt lat="45.65922" lon="4.64222">
        <ele>451</ele>
        <time>2011-06-30T12:55:46Z</time>
      </trkpt>
      <trkpt lat="45.65919" lon="4.64217">
        <ele>450.52</ele>
        <time>2011-06-30T12:55:47Z</time>
      </trkpt>
      <trkpt lat="45.65917" lon="4.6421">
        <ele>449.55</ele>
        <time>2011-06-30T12:55:48Z</time>
      </trkpt>
      <trkpt lat="45.65916" lon="4.64204">
        <ele>448.59</ele>
        <time>2011-06-30T12:55:49Z</time>
      </trkpt>
      <trkpt lat="45.65917" lon="4.64198">
        <ele>447.63</ele>
        <time>2011-06-30T12:55:50Z</time>
      </trkpt>
      <trkpt lat="45.65919" lon="4.64194">
        <ele>447.63</ele>
        <time>2011-06-30T12:55:51Z</time>
      </trkpt>
      <trkpt lat="45.6592" lon="4.6419">
        <ele>446.67</ele>
        <time>2011-06-30T12:55:52Z</time>
      </trkpt>
      <trkpt lat="45.6592" lon="4.64187">
        <ele>446.67</ele>
        <time>2011-06-30T12:55:53Z</time>
      </trkpt>
      <trkpt lat="45.6592" lon="4.64184">
        <ele>446.67</ele>
        <time>2011-06-30T12:55:54Z</time>
      </trkpt>
      <trkpt lat="45.65921" lon="4.64181">
        <ele>445.71</ele>
        <time>2011-06-30T12:55:55Z</time>
      </trkpt>
      <trkpt lat="45.65922" lon="4.64178">
        <ele>445.23</ele>
        <time>2011-06-30T12:55:56Z</time>
      </trkpt>
      <trkpt lat="45.65923" lon="4.64176">
        <ele>444.27</ele>
        <time>2011-06-30T12:55:57Z</time>
      </trkpt>
      <trkpt lat="45.65924" lon="4.64174">
        <ele>444.27</ele>
        <time>2011-06-30T12:55:58Z</time>
      </trkpt>
      <trkpt lat="45.65925" lon="4.6417">
        <ele>444.27</ele>
        <time>2011-06-30T12:55:59Z</time>
      </trkpt>
      <trkpt lat="45.65926" lon="4.64165">
        <ele>443.31</ele>
        <time>2011-06-30T12:56:00Z</time>
      </trkpt>
      <trkpt lat="45.65926" lon="4.6416">
        <ele>443.79</ele>
        <time>2011-06-30T12:56:01Z</time>
      </trkpt>
      <trkpt lat="45.65927" lon="4.64156">
        <ele>442.34</ele>
        <time>2011-06-30T12:56:02Z</time>
      </trkpt>
      <trkpt lat="45.6593" lon="4.64153">
        <ele>441.86</ele>
        <time>2011-06-30T12:56:03Z</time>
      </trkpt>
      <trkpt lat="45.65932" lon="4.64151">
        <ele>441.86</ele>
        <time>2011-06-30T12:56:04Z</time>
      </trkpt>
      <trkpt lat="45.65934" lon="4.64148">
        <ele>441.38</ele>
        <time>2011-06-30T12:56:05Z</time>
      </trkpt>
      <trkpt lat="45.65937" lon="4.64145">
        <ele>440.42</ele>
        <time>2011-06-30T12:56:06Z</time>
      </trkpt>
      <trkpt lat="45.65939" lon="4.64143">
        <ele>440.42</ele>
        <time>2011-06-30T12:56:07Z</time>
      </trkpt>
      <trkpt lat="45.65941" lon="4.64142">
        <ele>439.46</ele>
        <time>2011-06-30T12:56:08Z</time>
      </trkpt>
      <trkpt lat="45.65944" lon="4.64142">
        <ele>439.46</ele>
        <time>2011-06-30T12:56:09Z</time>
      </trkpt>
      <trkpt lat="45.65947" lon="4.64141">
        <ele>438.5</ele>
        <time>2011-06-30T12:56:10Z</time>
      </trkpt>
      <trkpt lat="45.65952" lon="4.64138">
        <ele>437.54</ele>
        <time>2011-06-30T12:56:12Z</time>
      </trkpt>
      <trkpt lat="45.65954" lon="4.64136">
        <ele>437.54</ele>
        <time>2011-06-30T12:56:13Z</time>
      </trkpt>
      <trkpt lat="45.65957" lon="4.64134">
        <ele>437.54</ele>
        <time>2011-06-30T12:56:14Z</time>
      </trkpt>
      <trkpt lat="45.65974" lon="4.64128">
        <ele>434.65</ele>
        <time>2011-06-30T12:56:21Z</time>
      </trkpt>
      <trkpt lat="45.65982" lon="4.64127">
        <ele>432.73</ele>
        <time>2011-06-30T12:56:24Z</time>
      </trkpt>
      <trkpt lat="45.65998" lon="4.64127">
        <ele>429.85</ele>
        <time>2011-06-30T12:56:29Z</time>
      </trkpt>
      <trkpt lat="45.66016" lon="4.64122">
        <ele>426</ele>
        <time>2011-06-30T12:56:34Z</time>
      </trkpt>
      <trkpt lat="45.66022" lon="4.64113">
        <ele>424.56</ele>
        <time>2011-06-30T12:56:37Z</time>
      </trkpt>
      <trkpt lat="45.66023" lon="4.64109">
        <ele>423.6</ele>
        <time>2011-06-30T12:56:38Z</time>
      </trkpt>
      <trkpt lat="45.66024" lon="4.64106">
        <ele>423.12</ele>
        <time>2011-06-30T12:56:39Z</time>
      </trkpt>
      <trkpt lat="45.66023" lon="4.64104">
        <ele>422.64</ele>
        <time>2011-06-30T12:56:40Z</time>
      </trkpt>
      <trkpt lat="45.66022" lon="4.64101">
        <ele>422.64</ele>
        <time>2011-06-30T12:56:41Z</time>
      </trkpt>
      <trkpt lat="45.66021" lon="4.64097">
        <ele>422.16</ele>
        <time>2011-06-30T12:56:42Z</time>
      </trkpt>
      <trkpt lat="45.66019" lon="4.64093">
        <ele>421.68</ele>
        <time>2011-06-30T12:56:43Z</time>
      </trkpt>
      <trkpt lat="45.66016" lon="4.64073">
        <ele>418.31</ele>
        <time>2011-06-30T12:56:47Z</time>
      </trkpt>
      <trkpt lat="45.66016" lon="4.64069">
        <ele>417.83</ele>
        <time>2011-06-30T12:56:48Z</time>
      </trkpt>
      <trkpt lat="45.66013" lon="4.64056">
        <ele>416.87</ele>
        <time>2011-06-30T12:56:51Z</time>
      </trkpt>
      <trkpt lat="45.66" lon="4.64022">
        <ele>413.02</ele>
        <time>2011-06-30T12:57:00Z</time>
      </trkpt>
      <trkpt lat="45.65986" lon="4.63993">
        <ele>411.1</ele>
        <time>2011-06-30T12:57:06Z</time>
      </trkpt>
      <trkpt lat="45.65984" lon="4.63965">
        <ele>408.7</ele>
        <time>2011-06-30T12:57:10Z</time>
      </trkpt>
      <trkpt lat="45.65983" lon="4.63952">
        <ele>408.22</ele>
        <time>2011-06-30T12:57:12Z</time>
      </trkpt>
      <trkpt lat="45.65973" lon="4.63901">
        <ele>407.26</ele>
        <time>2011-06-30T12:57:24Z</time>
      </trkpt>
      <trkpt lat="45.65982" lon="4.63894">
        <ele>407.74</ele>
        <time>2011-06-30T12:57:29Z</time>
      </trkpt>
      <trkpt lat="45.66015" lon="4.6391">
        <ele>409.66</ele>
        <time>2011-06-30T12:57:42Z</time>
      </trkpt>
      <trkpt lat="45.6605" lon="4.63906">
        <ele>411.58</ele>
        <time>2011-06-30T12:57:56Z</time>
      </trkpt>
      <trkpt lat="45.66072" lon="4.63894">
        <ele>413.5</ele>
        <time>2011-06-30T12:58:09Z</time>
      </trkpt>
      <trkpt lat="45.66096" lon="4.63879">
        <ele>415.91</ele>
        <time>2011-06-30T12:58:24Z</time>
      </trkpt>
      <trkpt lat="45.66127" lon="4.63885">
        <ele>417.35</ele>
        <time>2011-06-30T12:58:39Z</time>
      </trkpt>
      <trkpt lat="45.66162" lon="4.63898">
        <ele>418.79</ele>
        <time>2011-06-30T12:58:56Z</time>
      </trkpt>
      <trkpt lat="45.66185" lon="4.63918">
        <ele>420.23</ele>
        <time>2011-06-30T12:59:11Z</time>
      </trkpt>
      <trkpt lat="45.66203" lon="4.63929">
        <ele>423.12</ele>
        <time>2011-06-30T12:59:24Z</time>
      </trkpt>
      <trkpt lat="45.66226" lon="4.63932">
        <ele>426</ele>
        <time>2011-06-30T12:59:41Z</time>
      </trkpt>
      <trkpt lat="45.6625" lon="4.63947">
        <ele>428.4</ele>
        <time>2011-06-30T12:59:57Z</time>
      </trkpt>
      <trkpt lat="45.66274" lon="4.63958">
        <ele>428.89</ele>
        <time>2011-06-30T13:00:09Z</time>
      </trkpt>
      <trkpt lat="45.66304" lon="4.63969">
        <ele>429.37</ele>
        <time>2011-06-30T13:00:23Z</time>
      </trkpt>
      <trkpt lat="45.66341" lon="4.63984">
        <ele>427.44</ele>
        <time>2011-06-30T13:00:36Z</time>
      </trkpt>
      <trkpt lat="45.66354" lon="4.6398">
        <ele>426.96</ele>
        <time>2011-06-30T13:00:45Z</time>
      </trkpt>
      <trkpt lat="45.66352" lon="4.63979">
        <ele>427.92</ele>
        <time>2011-06-30T13:00:46Z</time>
      </trkpt>
      <trkpt lat="45.66351" lon="4.63977">
        <ele>427.44</ele>
        <time>2011-06-30T13:00:47Z</time>
      </trkpt>
      <trkpt lat="45.6635" lon="4.63975">
        <ele>427.92</ele>
        <time>2011-06-30T13:00:48Z</time>
      </trkpt>
      <trkpt lat="45.66343" lon="4.63947">
        <ele>430.81</ele>
        <time>2011-06-30T13:01:03Z</time>
      </trkpt>
      <trkpt lat="45.66336" lon="4.63921">
        <ele>433.69</ele>
        <time>2011-06-30T13:01:19Z</time>
      </trkpt>
      <trkpt lat="45.66333" lon="4.63903">
        <ele>437.06</ele>
        <time>2011-06-30T13:01:31Z</time>
      </trkpt>
      <trkpt lat="45.6633" lon="4.63887">
        <ele>438.5</ele>
        <time>2011-06-30T13:01:42Z</time>
      </trkpt>
      <trkpt lat="45.66327" lon="4.63872">
        <ele>438.98</ele>
        <time>2011-06-30T13:01:51Z</time>
      </trkpt>
      <trkpt lat="45.66327" lon="4.6387">
        <ele>439.46</ele>
        <time>2011-06-30T13:01:52Z</time>
      </trkpt>
      <trkpt lat="45.66326" lon="4.63869">
        <ele>438.98</ele>
        <time>2011-06-30T13:01:53Z</time>
      </trkpt>
      <trkpt lat="45.66326" lon="4.63867">
        <ele>439.94</ele>
        <time>2011-06-30T13:01:54Z</time>
      </trkpt>
      <trkpt lat="45.66326" lon="4.63865">
        <ele>439.46</ele>
        <time>2011-06-30T13:01:55Z</time>
      </trkpt>
      <trkpt lat="45.66325" lon="4.63863">
        <ele>439.94</ele>
        <time>2011-06-30T13:01:56Z</time>
      </trkpt>
      <trkpt lat="45.66325" lon="4.63862">
        <ele>439.94</ele>
        <time>2011-06-30T13:01:57Z</time>
      </trkpt>
      <trkpt lat="45.66325" lon="4.6386">
        <ele>440.42</ele>
        <time>2011-06-30T13:01:58Z</time>
      </trkpt>
      <trkpt lat="45.66324" lon="4.63858">
        <ele>440.42</ele>
        <time>2011-06-30T13:01:59Z</time>
      </trkpt>
      <trkpt lat="45.66317" lon="4.63827">
        <ele>442.34</ele>
        <time>2011-06-30T13:02:18Z</time>
      </trkpt>
      <trkpt lat="45.66311" lon="4.63797">
        <ele>445.23</ele>
        <time>2011-06-30T13:02:35Z</time>
      </trkpt>
      <trkpt lat="45.66304" lon="4.6377">
        <ele>448.11</ele>
        <time>2011-06-30T13:02:52Z</time>
      </trkpt>
      <trkpt lat="45.66297" lon="4.63743">
        <ele>451</ele>
        <time>2011-06-30T13:03:10Z</time>
      </trkpt>
      <trkpt lat="45.66294" lon="4.63715">
        <ele>453.4</ele>
        <time>2011-06-30T13:03:27Z</time>
      </trkpt>
      <trkpt lat="45.66296" lon="4.63698">
        <ele>457.24</ele>
        <time>2011-06-30T13:03:37Z</time>
      </trkpt>
      <trkpt lat="45.66296" lon="4.63693">
        <ele>457.72</ele>
        <time>2011-06-30T13:03:49Z</time>
      </trkpt>
      <trkpt lat="45.66296" lon="4.63693">
        <ele>457.24</ele>
        <time>2011-06-30T13:04:16Z</time>
      </trkpt>
      <trkpt lat="45.66296" lon="4.63693">
        <ele>456.76</ele>
        <time>2011-06-30T13:04:52Z</time>
      </trkpt>
      <trkpt lat="45.66296" lon="4.63693">
        <ele>457.72</ele>
        <time>2011-06-30T13:05:25Z</time>
      </trkpt>
      <trkpt lat="45.66296" lon="4.63693">
        <ele>457.24</ele>
        <time>2011-06-30T13:06:01Z</time>
      </trkpt>
      <trkpt lat="45.66296" lon="4.63693">
        <ele>457.24</ele>
        <time>2011-06-30T13:06:33Z</time>
      </trkpt>
      <trkpt lat="45.66296" lon="4.63693">
        <ele>457.24</ele>
        <time>2011-06-30T13:07:08Z</time>
      </trkpt>
      <trkpt lat="45.66297" lon="4.63691">
        <ele>457.72</ele>
        <time>2011-06-30T13:07:21Z</time>
      </trkpt>
      <trkpt lat="45.66305" lon="4.63681">
        <ele>457.24</ele>
        <time>2011-06-30T13:07:27Z</time>
      </trkpt>
      <trkpt lat="45.66307" lon="4.63674">
        <ele>458.69</ele>
        <time>2011-06-30T13:07:31Z</time>
      </trkpt>
      <trkpt lat="45.66309" lon="4.63671">
        <ele>459.65</ele>
        <time>2011-06-30T13:07:34Z</time>
      </trkpt>
      <trkpt lat="45.66344" lon="4.63647">
        <ele>457.24</ele>
        <time>2011-06-30T13:07:44Z</time>
      </trkpt>
      <trkpt lat="45.66349" lon="4.63644">
        <ele>457.72</ele>
        <time>2011-06-30T13:07:45Z</time>
      </trkpt>
      <trkpt lat="45.66354" lon="4.6364">
        <ele>456.76</ele>
        <time>2011-06-30T13:07:46Z</time>
      </trkpt>
      <trkpt lat="45.66358" lon="4.63635">
        <ele>456.28</ele>
        <time>2011-06-30T13:07:47Z</time>
      </trkpt>
      <trkpt lat="45.66362" lon="4.63627">
        <ele>455.32</ele>
        <time>2011-06-30T13:07:48Z</time>
      </trkpt>
      <trkpt lat="45.66364" lon="4.63619">
        <ele>455.32</ele>
        <time>2011-06-30T13:07:49Z</time>
      </trkpt>
      <trkpt lat="45.66366" lon="4.63609">
        <ele>454.84</ele>
        <time>2011-06-30T13:07:50Z</time>
      </trkpt>
      <trkpt lat="45.66366" lon="4.63599">
        <ele>454.84</ele>
        <time>2011-06-30T13:07:51Z</time>
      </trkpt>
      <trkpt lat="45.66366" lon="4.63589">
        <ele>454.36</ele>
        <time>2011-06-30T13:07:52Z</time>
      </trkpt>
      <trkpt lat="45.66364" lon="4.63578">
        <ele>453.88</ele>
        <time>2011-06-30T13:07:53Z</time>
      </trkpt>
      <trkpt lat="45.66362" lon="4.63567">
        <ele>452.44</ele>
        <time>2011-06-30T13:07:54Z</time>
      </trkpt>
      <trkpt lat="45.66353" lon="4.63531">
        <ele>451</ele>
        <time>2011-06-30T13:07:57Z</time>
      </trkpt>
      <trkpt lat="45.66347" lon="4.63506">
        <ele>449.55</ele>
        <time>2011-06-30T13:07:59Z</time>
      </trkpt>
      <trkpt lat="45.66333" lon="4.63432">
        <ele>447.15</ele>
        <time>2011-06-30T13:08:05Z</time>
      </trkpt>
      <trkpt lat="45.66332" lon="4.6342">
        <ele>446.67</ele>
        <time>2011-06-30T13:08:06Z</time>
      </trkpt>
      <trkpt lat="45.66333" lon="4.6341">
        <ele>446.67</ele>
        <time>2011-06-30T13:08:07Z</time>
      </trkpt>
      <trkpt lat="45.66334" lon="4.63399">
        <ele>446.19</ele>
        <time>2011-06-30T13:08:08Z</time>
      </trkpt>
      <trkpt lat="45.66336" lon="4.63389">
        <ele>445.71</ele>
        <time>2011-06-30T13:08:09Z</time>
      </trkpt>
      <trkpt lat="45.6635" lon="4.63284">
        <ele>443.31</ele>
        <time>2011-06-30T13:08:20Z</time>
      </trkpt>
      <trkpt lat="45.66357" lon="4.63229">
        <ele>440.42</ele>
        <time>2011-06-30T13:08:25Z</time>
      </trkpt>
      <trkpt lat="45.6636" lon="4.63206">
        <ele>438.98</ele>
        <time>2011-06-30T13:08:27Z</time>
      </trkpt>
      <trkpt lat="45.66362" lon="4.63197">
        <ele>438.02</ele>
        <time>2011-06-30T13:08:28Z</time>
      </trkpt>
      <trkpt lat="45.66366" lon="4.63189">
        <ele>438.02</ele>
        <time>2011-06-30T13:08:29Z</time>
      </trkpt>
      <trkpt lat="45.66371" lon="4.63183">
        <ele>438.98</ele>
        <time>2011-06-30T13:08:30Z</time>
      </trkpt>
      <trkpt lat="45.66375" lon="4.63177">
        <ele>438.5</ele>
        <time>2011-06-30T13:08:31Z</time>
      </trkpt>
      <trkpt lat="45.66394" lon="4.63157">
        <ele>440.9</ele>
        <time>2011-06-30T13:08:40Z</time>
      </trkpt>
      <trkpt lat="45.664" lon="4.63155">
        <ele>441.86</ele>
        <time>2011-06-30T13:08:44Z</time>
      </trkpt>
      <trkpt lat="45.66402" lon="4.63157">
        <ele>442.34</ele>
        <time>2011-06-30T13:08:45Z</time>
      </trkpt>
      <trkpt lat="45.66403" lon="4.63158">
        <ele>442.82</ele>
        <time>2011-06-30T13:08:46Z</time>
      </trkpt>
      <trkpt lat="45.66404" lon="4.6316">
        <ele>442.34</ele>
        <time>2011-06-30T13:08:47Z</time>
      </trkpt>
      <trkpt lat="45.66406" lon="4.63162">
        <ele>443.31</ele>
        <time>2011-06-30T13:08:48Z</time>
      </trkpt>
      <trkpt lat="45.66407" lon="4.63163">
        <ele>442.34</ele>
        <time>2011-06-30T13:08:49Z</time>
      </trkpt>
      <trkpt lat="45.66408" lon="4.63165">
        <ele>443.31</ele>
        <time>2011-06-30T13:08:50Z</time>
      </trkpt>
      <trkpt lat="45.66409" lon="4.63167">
        <ele>443.31</ele>
        <time>2011-06-30T13:08:51Z</time>
      </trkpt>
      <trkpt lat="45.6641" lon="4.63168">
        <ele>442.82</ele>
        <time>2011-06-30T13:08:52Z</time>
      </trkpt>
      <trkpt lat="45.66417" lon="4.63177">
        <ele>444.27</ele>
        <time>2011-06-30T13:08:58Z</time>
      </trkpt>
      <trkpt lat="45.66418" lon="4.63178">
        <ele>444.75</ele>
        <time>2011-06-30T13:08:59Z</time>
      </trkpt>
      <trkpt lat="45.6642" lon="4.63179">
        <ele>444.75</ele>
        <time>2011-06-30T13:09:00Z</time>
      </trkpt>
      <trkpt lat="45.66421" lon="4.63178">
        <ele>445.23</ele>
        <time>2011-06-30T13:09:01Z</time>
      </trkpt>
      <trkpt lat="45.66422" lon="4.63178">
        <ele>445.23</ele>
        <time>2011-06-30T13:09:02Z</time>
      </trkpt>
      <trkpt lat="45.66424" lon="4.63177">
        <ele>445.23</ele>
        <time>2011-06-30T13:09:03Z</time>
      </trkpt>
      <trkpt lat="45.66425" lon="4.63176">
        <ele>446.19</ele>
        <time>2011-06-30T13:09:04Z</time>
      </trkpt>
      <trkpt lat="45.66426" lon="4.63175">
        <ele>445.71</ele>
        <time>2011-06-30T13:09:05Z</time>
      </trkpt>
      <trkpt lat="45.66427" lon="4.63173">
        <ele>446.19</ele>
        <time>2011-06-30T13:09:06Z</time>
      </trkpt>
      <trkpt lat="45.66431" lon="4.63168">
        <ele>446.19</ele>
        <time>2011-06-30T13:09:10Z</time>
      </trkpt>
      <trkpt lat="45.66442" lon="4.63154">
        <ele>449.07</ele>
        <time>2011-06-30T13:09:22Z</time>
      </trkpt>
      <trkpt lat="45.66454" lon="4.63151">
        <ele>451</ele>
        <time>2011-06-30T13:09:32Z</time>
      </trkpt>
      <trkpt lat="45.66474" lon="4.63154">
        <ele>451.96</ele>
        <time>2011-06-30T13:09:45Z</time>
      </trkpt>
      <trkpt lat="45.66493" lon="4.63155">
        <ele>453.4</ele>
        <time>2011-06-30T13:09:58Z</time>
      </trkpt>
      <trkpt lat="45.66513" lon="4.63158">
        <ele>454.84</ele>
        <time>2011-06-30T13:10:12Z</time>
      </trkpt>
      <trkpt lat="45.66538" lon="4.63158">
        <ele>456.28</ele>
        <time>2011-06-30T13:10:29Z</time>
      </trkpt>
      <trkpt lat="45.66554" lon="4.63151">
        <ele>457.24</ele>
        <time>2011-06-30T13:10:40Z</time>
      </trkpt>
      <trkpt lat="45.66574" lon="4.63143">
        <ele>459.17</ele>
        <time>2011-06-30T13:10:55Z</time>
      </trkpt>
      <trkpt lat="45.66594" lon="4.63136">
        <ele>460.61</ele>
        <time>2011-06-30T13:11:09Z</time>
      </trkpt>
      <trkpt lat="45.66597" lon="4.63135">
        <ele>461.09</ele>
        <time>2011-06-30T13:11:11Z</time>
      </trkpt>
      <trkpt lat="45.66598" lon="4.63135">
        <ele>461.57</ele>
        <time>2011-06-30T13:11:12Z</time>
      </trkpt>
      <trkpt lat="45.666" lon="4.63135">
        <ele>462.05</ele>
        <time>2011-06-30T13:11:13Z</time>
      </trkpt>
      <trkpt lat="45.66601" lon="4.63134">
        <ele>462.05</ele>
        <time>2011-06-30T13:11:14Z</time>
      </trkpt>
      <trkpt lat="45.66602" lon="4.63134">
        <ele>462.05</ele>
        <time>2011-06-30T13:11:15Z</time>
      </trkpt>
      <trkpt lat="45.66604" lon="4.63133">
        <ele>462.53</ele>
        <time>2011-06-30T13:11:16Z</time>
      </trkpt>
      <trkpt lat="45.66606" lon="4.63132">
        <ele>463.01</ele>
        <time>2011-06-30T13:11:17Z</time>
      </trkpt>
      <trkpt lat="45.66607" lon="4.63131">
        <ele>463.49</ele>
        <time>2011-06-30T13:11:18Z</time>
      </trkpt>
      <trkpt lat="45.66618" lon="4.63125">
        <ele>464.45</ele>
        <time>2011-06-30T13:11:26Z</time>
      </trkpt>
      <trkpt lat="45.6662" lon="4.63125">
        <ele>464.45</ele>
        <time>2011-06-30T13:11:27Z</time>
      </trkpt>
      <trkpt lat="45.66621" lon="4.63125">
        <ele>464.93</ele>
        <time>2011-06-30T13:11:28Z</time>
      </trkpt>
      <trkpt lat="45.66646" lon="4.63109">
        <ele>466.86</ele>
        <time>2011-06-30T13:11:45Z</time>
      </trkpt>
      <trkpt lat="45.66664" lon="4.63099">
        <ele>468.78</ele>
        <time>2011-06-30T13:11:57Z</time>
      </trkpt>
      <trkpt lat="45.66686" lon="4.63099">
        <ele>471.18</ele>
        <time>2011-06-30T13:12:11Z</time>
      </trkpt>
      <trkpt lat="45.66688" lon="4.63098">
        <ele>471.66</ele>
        <time>2011-06-30T13:12:12Z</time>
      </trkpt>
      <trkpt lat="45.6669" lon="4.63098">
        <ele>472.14</ele>
        <time>2011-06-30T13:12:13Z</time>
      </trkpt>
      <trkpt lat="45.66704" lon="4.63099">
        <ele>474.07</ele>
        <time>2011-06-30T13:12:23Z</time>
      </trkpt>
      <trkpt lat="45.66706" lon="4.631">
        <ele>474.55</ele>
        <time>2011-06-30T13:12:24Z</time>
      </trkpt>
      <trkpt lat="45.66707" lon="4.63102">
        <ele>474.55</ele>
        <time>2011-06-30T13:12:25Z</time>
      </trkpt>
      <trkpt lat="45.66708" lon="4.63102">
        <ele>474.55</ele>
        <time>2011-06-30T13:12:26Z</time>
      </trkpt>
      <trkpt lat="45.66709" lon="4.63103">
        <ele>475.03</ele>
        <time>2011-06-30T13:12:27Z</time>
      </trkpt>
      <trkpt lat="45.66709" lon="4.63104">
        <ele>474.55</ele>
        <time>2011-06-30T13:12:28Z</time>
      </trkpt>
      <trkpt lat="45.66711" lon="4.63104">
        <ele>474.55</ele>
        <time>2011-06-30T13:12:29Z</time>
      </trkpt>
      <trkpt lat="45.66712" lon="4.63104">
        <ele>475.03</ele>
        <time>2011-06-30T13:12:30Z</time>
      </trkpt>
      <trkpt lat="45.66719" lon="4.63101">
        <ele>475.03</ele>
        <time>2011-06-30T13:12:36Z</time>
      </trkpt>
      <trkpt lat="45.6674" lon="4.63085">
        <ele>477.91</ele>
        <time>2011-06-30T13:12:55Z</time>
      </trkpt>
      <trkpt lat="45.66763" lon="4.63069">
        <ele>480.32</ele>
        <time>2011-06-30T13:13:12Z</time>
      </trkpt>
      <trkpt lat="45.66792" lon="4.63066">
        <ele>480.8</ele>
        <time>2011-06-30T13:13:27Z</time>
      </trkpt>
      <trkpt lat="45.66836" lon="4.63068">
        <ele>480.32</ele>
        <time>2011-06-30T13:13:44Z</time>
      </trkpt>
      <trkpt lat="45.6687" lon="4.63065">
        <ele>478.39</ele>
        <time>2011-06-30T13:13:59Z</time>
      </trkpt>
      <trkpt lat="45.66894" lon="4.63053">
        <ele>476.95</ele>
        <time>2011-06-30T13:14:13Z</time>
      </trkpt>
      <trkpt lat="45.66892" lon="4.63056">
        <ele>476.95</ele>
        <time>2011-06-30T13:14:25Z</time>
      </trkpt>
      <trkpt lat="45.66892" lon="4.63057">
        <ele>476.47</ele>
        <time>2011-06-30T13:14:37Z</time>
      </trkpt>
      <trkpt lat="45.66892" lon="4.63057">
        <ele>476.47</ele>
        <time>2011-06-30T13:15:17Z</time>
      </trkpt>
      <trkpt lat="45.66892" lon="4.63057">
        <ele>476.47</ele>
        <time>2011-06-30T13:16:00Z</time>
      </trkpt>
      <trkpt lat="45.66892" lon="4.63057">
        <ele>476.47</ele>
        <time>2011-06-30T13:16:45Z</time>
      </trkpt>
      <trkpt lat="45.66894" lon="4.63054">
        <ele>476.47</ele>
        <time>2011-06-30T13:17:11Z</time>
      </trkpt>
      <trkpt lat="45.66895" lon="4.63051">
        <ele>476.47</ele>
        <time>2011-06-30T13:17:28Z</time>
      </trkpt>
      <trkpt lat="45.66895" lon="4.6305">
        <ele>475.99</ele>
        <time>2011-06-30T13:17:59Z</time>
      </trkpt>
      <trkpt lat="45.66895" lon="4.6305">
        <ele>475.99</ele>
        <time>2011-06-30T13:18:29Z</time>
      </trkpt>
      <trkpt lat="45.66895" lon="4.6305">
        <ele>475.51</ele>
        <time>2011-06-30T13:18:51Z</time>
      </trkpt>
      <trkpt lat="45.66895" lon="4.6305">
        <ele>477.43</ele>
        <time>2011-06-30T13:19:16Z</time>
      </trkpt>
      <trkpt lat="45.66898" lon="4.63049">
        <ele>476.47</ele>
        <time>2011-06-30T13:19:25Z</time>
      </trkpt>
      <trkpt lat="45.669" lon="4.6305">
        <ele>476.47</ele>
        <time>2011-06-30T13:19:26Z</time>
      </trkpt>
      <trkpt lat="45.66902" lon="4.63051">
        <ele>476.47</ele>
        <time>2011-06-30T13:19:27Z</time>
      </trkpt>
      <trkpt lat="45.66904" lon="4.63055">
        <ele>475.51</ele>
        <time>2011-06-30T13:19:28Z</time>
      </trkpt>
      <trkpt lat="45.66907" lon="4.63059">
        <ele>475.51</ele>
        <time>2011-06-30T13:19:29Z</time>
      </trkpt>
      <trkpt lat="45.66909" lon="4.63065">
        <ele>475.03</ele>
        <time>2011-06-30T13:19:30Z</time>
      </trkpt>
      <trkpt lat="45.66912" lon="4.63071">
        <ele>475.03</ele>
        <time>2011-06-30T13:19:31Z</time>
      </trkpt>
      <trkpt lat="45.66915" lon="4.63078">
        <ele>475.03</ele>
        <time>2011-06-30T13:19:32Z</time>
      </trkpt>
      <trkpt lat="45.66919" lon="4.63085">
        <ele>474.07</ele>
        <time>2011-06-30T13:19:33Z</time>
      </trkpt>
      <trkpt lat="45.66949" lon="4.63148">
        <ele>471.18</ele>
        <time>2011-06-30T13:19:41Z</time>
      </trkpt>
      <trkpt lat="45.66953" lon="4.63156">
        <ele>471.18</ele>
        <time>2011-06-30T13:19:42Z</time>
      </trkpt>
      <trkpt lat="45.6699" lon="4.6322">
        <ele>467.82</ele>
        <time>2011-06-30T13:19:51Z</time>
      </trkpt>
      <trkpt lat="45.6703" lon="4.63281">
        <ele>464.93</ele>
        <time>2011-06-30T13:20:03Z</time>
      </trkpt>
      <trkpt lat="45.67047" lon="4.63344">
        <ele>461.57</ele>
        <time>2011-06-30T13:20:12Z</time>
      </trkpt>
      <trkpt lat="45.6707" lon="4.63418">
        <ele>458.69</ele>
        <time>2011-06-30T13:20:22Z</time>
      </trkpt>
      <trkpt lat="45.67079" lon="4.6344">
        <ele>456.76</ele>
        <time>2011-06-30T13:20:26Z</time>
      </trkpt>
      <trkpt lat="45.67087" lon="4.63459">
        <ele>454.84</ele>
        <time>2011-06-30T13:20:29Z</time>
      </trkpt>
      <trkpt lat="45.67093" lon="4.63474">
        <ele>453.4</ele>
        <time>2011-06-30T13:20:31Z</time>
      </trkpt>
      <trkpt lat="45.67114" lon="4.6352">
        <ele>450.52</ele>
        <time>2011-06-30T13:20:38Z</time>
      </trkpt>
      <trkpt lat="45.67127" lon="4.63545">
        <ele>448.11</ele>
        <time>2011-06-30T13:20:42Z</time>
      </trkpt>
      <trkpt lat="45.67155" lon="4.63584">
        <ele>444.27</ele>
        <time>2011-06-30T13:20:49Z</time>
      </trkpt>
      <trkpt lat="45.67163" lon="4.63595">
        <ele>442.82</ele>
        <time>2011-06-30T13:20:51Z</time>
      </trkpt>
      <trkpt lat="45.67167" lon="4.636">
        <ele>442.34</ele>
        <time>2011-06-30T13:20:52Z</time>
      </trkpt>
      <trkpt lat="45.67171" lon="4.63604">
        <ele>440.9</ele>
        <time>2011-06-30T13:20:53Z</time>
      </trkpt>
      <trkpt lat="45.67189" lon="4.63619">
        <ele>437.54</ele>
        <time>2011-06-30T13:20:57Z</time>
      </trkpt>
      <trkpt lat="45.67201" lon="4.63626">
        <ele>436.1</ele>
        <time>2011-06-30T13:21:00Z</time>
      </trkpt>
      <trkpt lat="45.67213" lon="4.6363">
        <ele>433.21</ele>
        <time>2011-06-30T13:21:03Z</time>
      </trkpt>
      <trkpt lat="45.67217" lon="4.63633">
        <ele>432.25</ele>
        <time>2011-06-30T13:21:04Z</time>
      </trkpt>
      <trkpt lat="45.67226" lon="4.63639">
        <ele>430.81</ele>
        <time>2011-06-30T13:21:06Z</time>
      </trkpt>
      <trkpt lat="45.67239" lon="4.6365">
        <ele>427.92</ele>
        <time>2011-06-30T13:21:09Z</time>
      </trkpt>
      <trkpt lat="45.67248" lon="4.63657">
        <ele>426</ele>
        <time>2011-06-30T13:21:11Z</time>
      </trkpt>
      <trkpt lat="45.6726" lon="4.63669">
        <ele>423.12</ele>
        <time>2011-06-30T13:21:15Z</time>
      </trkpt>
      <trkpt lat="45.67265" lon="4.63674">
        <ele>421.19</ele>
        <time>2011-06-30T13:21:18Z</time>
      </trkpt>
      <trkpt lat="45.6728" lon="4.63664">
        <ele>421.68</ele>
        <time>2011-06-30T13:21:28Z</time>
      </trkpt>
      <trkpt lat="45.67303" lon="4.63627">
        <ele>422.64</ele>
        <time>2011-06-30T13:21:45Z</time>
      </trkpt>
      <trkpt lat="45.6733" lon="4.63581">
        <ele>423.12</ele>
        <time>2011-06-30T13:22:00Z</time>
      </trkpt>
      <trkpt lat="45.67336" lon="4.63572">
        <ele>422.64</ele>
        <time>2011-06-30T13:22:02Z</time>
      </trkpt>
      <trkpt lat="45.67342" lon="4.63562">
        <ele>421.68</ele>
        <time>2011-06-30T13:22:04Z</time>
      </trkpt>
      <trkpt lat="45.67364" lon="4.63517">
        <ele>420.71</ele>
        <time>2011-06-30T13:22:12Z</time>
      </trkpt>
      <trkpt lat="45.67376" lon="4.63496">
        <ele>417.83</ele>
        <time>2011-06-30T13:22:19Z</time>
      </trkpt>
      <trkpt lat="45.67379" lon="4.63497">
        <ele>417.83</ele>
        <time>2011-06-30T13:22:20Z</time>
      </trkpt>
      <trkpt lat="45.67382" lon="4.63499">
        <ele>417.35</ele>
        <time>2011-06-30T13:22:21Z</time>
      </trkpt>
      <trkpt lat="45.67418" lon="4.63536">
        <ele>414.47</ele>
        <time>2011-06-30T13:22:28Z</time>
      </trkpt>
      <trkpt lat="45.67433" lon="4.63553">
        <ele>411.58</ele>
        <time>2011-06-30T13:22:31Z</time>
      </trkpt>
      <trkpt lat="45.67438" lon="4.63558">
        <ele>411.1</ele>
        <time>2011-06-30T13:22:33Z</time>
      </trkpt>
      <trkpt lat="45.67442" lon="4.63557">
        <ele>410.14</ele>
        <time>2011-06-30T13:22:34Z</time>
      </trkpt>
      <trkpt lat="45.67445" lon="4.63552">
        <ele>409.66</ele>
        <time>2011-06-30T13:22:35Z</time>
      </trkpt>
      <trkpt lat="45.67451" lon="4.6354">
        <ele>408.7</ele>
        <time>2011-06-30T13:22:37Z</time>
      </trkpt>
      <trkpt lat="45.67459" lon="4.63526">
        <ele>407.26</ele>
        <time>2011-06-30T13:22:39Z</time>
      </trkpt>
      <trkpt lat="45.67471" lon="4.6351">
        <ele>403.89</ele>
        <time>2011-06-30T13:22:42Z</time>
      </trkpt>
      <trkpt lat="45.67473" lon="4.63505">
        <ele>403.41</ele>
        <time>2011-06-30T13:22:43Z</time>
      </trkpt>
      <trkpt lat="45.67474" lon="4.63501">
        <ele>401.97</ele>
        <time>2011-06-30T13:22:44Z</time>
      </trkpt>
      <trkpt lat="45.67473" lon="4.635">
        <ele>401.01</ele>
        <time>2011-06-30T13:22:55Z</time>
      </trkpt>
      <trkpt lat="45.67473" lon="4.63501">
        <ele>401.97</ele>
        <time>2011-06-30T13:22:56Z</time>
      </trkpt>
      <trkpt lat="45.67473" lon="4.63502">
        <ele>401.97</ele>
        <time>2011-06-30T13:22:57Z</time>
      </trkpt>
      <trkpt lat="45.67473" lon="4.63504">
        <ele>402.45</ele>
        <time>2011-06-30T13:22:58Z</time>
      </trkpt>
      <trkpt lat="45.67472" lon="4.63505">
        <ele>402.45</ele>
        <time>2011-06-30T13:22:59Z</time>
      </trkpt>
      <trkpt lat="45.67471" lon="4.63507">
        <ele>402.45</ele>
        <time>2011-06-30T13:23:17Z</time>
      </trkpt>
      <trkpt lat="45.67471" lon="4.63507">
        <ele>401.97</ele>
        <time>2011-06-30T13:23:53Z</time>
      </trkpt>
      <trkpt lat="45.67468" lon="4.63511">
        <ele>402.93</ele>
        <time>2011-06-30T13:24:02Z</time>
      </trkpt>
      <trkpt lat="45.67467" lon="4.63513">
        <ele>402.45</ele>
        <time>2011-06-30T13:24:03Z</time>
      </trkpt>
      <trkpt lat="45.67466" lon="4.63514">
        <ele>403.89</ele>
        <time>2011-06-30T13:24:04Z</time>
      </trkpt>
      <trkpt lat="45.67452" lon="4.63534">
        <ele>406.77</ele>
        <time>2011-06-30T13:24:16Z</time>
      </trkpt>
      <trkpt lat="45.67436" lon="4.63557">
        <ele>410.14</ele>
        <time>2011-06-30T13:24:31Z</time>
      </trkpt>
      <trkpt lat="45.67431" lon="4.63555">
        <ele>411.1</ele>
        <time>2011-06-30T13:24:34Z</time>
      </trkpt>
      <trkpt lat="45.6743" lon="4.63554">
        <ele>410.62</ele>
        <time>2011-06-30T13:24:35Z</time>
      </trkpt>
      <trkpt lat="45.67428" lon="4.63552">
        <ele>411.1</ele>
        <time>2011-06-30T13:24:36Z</time>
      </trkpt>
      <trkpt lat="45.67408" lon="4.6353">
        <ele>412.54</ele>
        <time>2011-06-30T13:24:51Z</time>
      </trkpt>
      <trkpt lat="45.67388" lon="4.6351">
        <ele>415.43</ele>
        <time>2011-06-30T13:25:07Z</time>
      </trkpt>
      <trkpt lat="45.67373" lon="4.63495">
        <ele>417.35</ele>
        <time>2011-06-30T13:25:19Z</time>
      </trkpt>
      <trkpt lat="45.67372" lon="4.63496">
        <ele>417.83</ele>
        <time>2011-06-30T13:25:20Z</time>
      </trkpt>
      <trkpt lat="45.6737" lon="4.63497">
        <ele>417.83</ele>
        <time>2011-06-30T13:25:21Z</time>
      </trkpt>
      <trkpt lat="45.67369" lon="4.63499">
        <ele>418.79</ele>
        <time>2011-06-30T13:25:22Z</time>
      </trkpt>
      <trkpt lat="45.67369" lon="4.63501">
        <ele>418.31</ele>
        <time>2011-06-30T13:25:23Z</time>
      </trkpt>
      <trkpt lat="45.67368" lon="4.63504">
        <ele>418.79</ele>
        <time>2011-06-30T13:25:24Z</time>
      </trkpt>
      <trkpt lat="45.67368" lon="4.63506">
        <ele>419.27</ele>
        <time>2011-06-30T13:25:25Z</time>
      </trkpt>
      <trkpt lat="45.67366" lon="4.63508">
        <ele>418.79</ele>
        <time>2011-06-30T13:25:26Z</time>
      </trkpt>
      <trkpt lat="45.67366" lon="4.63511">
        <ele>419.75</ele>
        <time>2011-06-30T13:25:27Z</time>
      </trkpt>
      <trkpt lat="45.67345" lon="4.63558">
        <ele>421.68</ele>
        <time>2011-06-30T13:25:45Z</time>
      </trkpt>
      <trkpt lat="45.67313" lon="4.63609">
        <ele>423.6</ele>
        <time>2011-06-30T13:26:02Z</time>
      </trkpt>
      <trkpt lat="45.67274" lon="4.6367">
        <ele>421.68</ele>
        <time>2011-06-30T13:26:18Z</time>
      </trkpt>
      <trkpt lat="45.6728" lon="4.63706">
        <ele>416.87</ele>
        <time>2011-06-30T13:26:29Z</time>
      </trkpt>
      <trkpt lat="45.67285" lon="4.63712">
        <ele>416.39</ele>
        <time>2011-06-30T13:26:30Z</time>
      </trkpt>
      <trkpt lat="45.67303" lon="4.63734">
        <ele>412.54</ele>
        <time>2011-06-30T13:26:33Z</time>
      </trkpt>
      <trkpt lat="45.67318" lon="4.63755">
        <ele>409.18</ele>
        <time>2011-06-30T13:26:36Z</time>
      </trkpt>
      <trkpt lat="45.6734" lon="4.63771">
        <ele>407.74</ele>
        <time>2011-06-30T13:26:38Z</time>
      </trkpt>
      <trkpt lat="45.67361" lon="4.6379">
        <ele>402.93</ele>
        <time>2011-06-30T13:26:41Z</time>
      </trkpt>
      <trkpt lat="45.67384" lon="4.63809">
        <ele>401.01</ele>
        <time>2011-06-30T13:26:45Z</time>
      </trkpt>
      <trkpt lat="45.67412" lon="4.63829">
        <ele>397.16</ele>
        <time>2011-06-30T13:26:50Z</time>
      </trkpt>
      <trkpt lat="45.67417" lon="4.63833">
        <ele>396.68</ele>
        <time>2011-06-30T13:26:51Z</time>
      </trkpt>
      <trkpt lat="45.67421" lon="4.63838">
        <ele>396.2</ele>
        <time>2011-06-30T13:26:52Z</time>
      </trkpt>
      <trkpt lat="45.67425" lon="4.63842">
        <ele>395.72</ele>
        <time>2011-06-30T13:26:53Z</time>
      </trkpt>
      <trkpt lat="45.67458" lon="4.63869">
        <ele>393.8</ele>
        <time>2011-06-30T13:26:59Z</time>
      </trkpt>
      <trkpt lat="45.67484" lon="4.63896">
        <ele>392.84</ele>
        <time>2011-06-30T13:27:04Z</time>
      </trkpt>
      <trkpt lat="45.6749" lon="4.63903">
        <ele>391.87</ele>
        <time>2011-06-30T13:27:05Z</time>
      </trkpt>
      <trkpt lat="45.67495" lon="4.63911">
        <ele>391.39</ele>
        <time>2011-06-30T13:27:06Z</time>
      </trkpt>
      <trkpt lat="45.67507" lon="4.63927">
        <ele>389.95</ele>
        <time>2011-06-30T13:27:08Z</time>
      </trkpt>
      <trkpt lat="45.67534" lon="4.63959">
        <ele>388.03</ele>
        <time>2011-06-30T13:27:12Z</time>
      </trkpt>
      <trkpt lat="45.67546" lon="4.63971">
        <ele>386.59</ele>
        <time>2011-06-30T13:27:14Z</time>
      </trkpt>
      <trkpt lat="45.67551" lon="4.63979">
        <ele>386.11</ele>
        <time>2011-06-30T13:27:15Z</time>
      </trkpt>
      <trkpt lat="45.67555" lon="4.63988">
        <ele>385.63</ele>
        <time>2011-06-30T13:27:16Z</time>
      </trkpt>
      <trkpt lat="45.67568" lon="4.6403">
        <ele>383.7</ele>
        <time>2011-06-30T13:27:20Z</time>
      </trkpt>
      <trkpt lat="45.67575" lon="4.64051">
        <ele>381.3</ele>
        <time>2011-06-30T13:27:22Z</time>
      </trkpt>
      <trkpt lat="45.67578" lon="4.64063">
        <ele>380.82</ele>
        <time>2011-06-30T13:27:23Z</time>
      </trkpt>
      <trkpt lat="45.67588" lon="4.64103">
        <ele>377.45</ele>
        <time>2011-06-30T13:27:26Z</time>
      </trkpt>
      <trkpt lat="45.67597" lon="4.6413">
        <ele>374.09</ele>
        <time>2011-06-30T13:27:28Z</time>
      </trkpt>
      <trkpt lat="45.676" lon="4.64143">
        <ele>373.13</ele>
        <time>2011-06-30T13:27:29Z</time>
      </trkpt>
      <trkpt lat="45.67601" lon="4.64156">
        <ele>371.69</ele>
        <time>2011-06-30T13:27:30Z</time>
      </trkpt>
      <trkpt lat="45.67601" lon="4.64168">
        <ele>370.24</ele>
        <time>2011-06-30T13:27:31Z</time>
      </trkpt>
      <trkpt lat="45.67598" lon="4.6418">
        <ele>370.73</ele>
        <time>2011-06-30T13:27:32Z</time>
      </trkpt>
      <trkpt lat="45.67595" lon="4.64192">
        <ele>369.76</ele>
        <time>2011-06-30T13:27:33Z</time>
      </trkpt>
      <trkpt lat="45.67587" lon="4.64229">
        <ele>369.76</ele>
        <time>2011-06-30T13:27:37Z</time>
      </trkpt>
      <trkpt lat="45.67587" lon="4.6427">
        <ele>369.28</ele>
        <time>2011-06-30T13:27:44Z</time>
      </trkpt>
      <trkpt lat="45.67589" lon="4.64272">
        <ele>369.28</ele>
        <time>2011-06-30T13:27:45Z</time>
      </trkpt>
      <trkpt lat="45.67592" lon="4.64273">
        <ele>369.76</ele>
        <time>2011-06-30T13:27:46Z</time>
      </trkpt>
      <trkpt lat="45.67595" lon="4.64272">
        <ele>369.76</ele>
        <time>2011-06-30T13:27:47Z</time>
      </trkpt>
      <trkpt lat="45.67598" lon="4.64271">
        <ele>369.76</ele>
        <time>2011-06-30T13:27:48Z</time>
      </trkpt>
      <trkpt lat="45.67609" lon="4.64268">
        <ele>369.28</ele>
        <time>2011-06-30T13:27:51Z</time>
      </trkpt>
      <trkpt lat="45.67613" lon="4.64266">
        <ele>369.28</ele>
        <time>2011-06-30T13:27:52Z</time>
      </trkpt>
      <trkpt lat="45.67617" lon="4.64264">
        <ele>369.28</ele>
        <time>2011-06-30T13:27:53Z</time>
      </trkpt>
      <trkpt lat="45.67671" lon="4.64236">
        <ele>365.92</ele>
        <time>2011-06-30T13:28:02Z</time>
      </trkpt>
      <trkpt lat="45.67704" lon="4.64225">
        <ele>362.55</ele>
        <time>2011-06-30T13:28:06Z</time>
      </trkpt>
      <trkpt lat="45.6772" lon="4.64218">
        <ele>359.67</ele>
        <time>2011-06-30T13:28:08Z</time>
      </trkpt>
      <trkpt lat="45.67738" lon="4.64211">
        <ele>352.94</ele>
        <time>2011-06-30T13:28:10Z</time>
      </trkpt>
      <trkpt lat="45.67746" lon="4.64209">
        <ele>351.5</ele>
        <time>2011-06-30T13:28:11Z</time>
      </trkpt>
      <trkpt lat="45.67754" lon="4.64208">
        <ele>351.5</ele>
        <time>2011-06-30T13:28:12Z</time>
      </trkpt>
      <trkpt lat="45.67765" lon="4.64209">
        <ele>350.06</ele>
        <time>2011-06-30T13:28:13Z</time>
      </trkpt>
      <trkpt lat="45.67775" lon="4.64207">
        <ele>348.13</ele>
        <time>2011-06-30T13:28:14Z</time>
      </trkpt>
      <trkpt lat="45.67786" lon="4.64203">
        <ele>346.69</ele>
        <time>2011-06-30T13:28:15Z</time>
      </trkpt>
      <trkpt lat="45.67797" lon="4.64198">
        <ele>346.21</ele>
        <time>2011-06-30T13:28:16Z</time>
      </trkpt>
      <trkpt lat="45.67854" lon="4.64169">
        <ele>347.65</ele>
        <time>2011-06-30T13:28:23Z</time>
      </trkpt>
      <trkpt lat="45.67857" lon="4.64165">
        <ele>347.65</ele>
        <time>2011-06-30T13:28:24Z</time>
      </trkpt>
      <trkpt lat="45.6786" lon="4.64161">
        <ele>348.13</ele>
        <time>2011-06-30T13:28:25Z</time>
      </trkpt>
      <trkpt lat="45.67864" lon="4.64157">
        <ele>348.62</ele>
        <time>2011-06-30T13:28:26Z</time>
      </trkpt>
      <trkpt lat="45.67866" lon="4.64154">
        <ele>349.1</ele>
        <time>2011-06-30T13:28:27Z</time>
      </trkpt>
      <trkpt lat="45.67868" lon="4.6415">
        <ele>349.1</ele>
        <time>2011-06-30T13:28:28Z</time>
      </trkpt>
      <trkpt lat="45.67869" lon="4.64146">
        <ele>349.58</ele>
        <time>2011-06-30T13:28:29Z</time>
      </trkpt>
      <trkpt lat="45.6787" lon="4.64143">
        <ele>349.58</ele>
        <time>2011-06-30T13:28:30Z</time>
      </trkpt>
      <trkpt lat="45.67877" lon="4.64133">
        <ele>351.02</ele>
        <time>2011-06-30T13:28:42Z</time>
      </trkpt>
      <trkpt lat="45.67884" lon="4.64123">
        <ele>350.06</ele>
        <time>2011-06-30T13:28:50Z</time>
      </trkpt>
      <trkpt lat="45.67885" lon="4.64119">
        <ele>350.06</ele>
        <time>2011-06-30T13:28:51Z</time>
      </trkpt>
      <trkpt lat="45.67889" lon="4.64092">
        <ele>349.58</ele>
        <time>2011-06-30T13:28:57Z</time>
      </trkpt>
      <trkpt lat="45.6789" lon="4.64091">
        <ele>350.06</ele>
        <time>2011-06-30T13:28:58Z</time>
      </trkpt>
      <trkpt lat="45.67893" lon="4.64092">
        <ele>349.58</ele>
        <time>2011-06-30T13:28:59Z</time>
      </trkpt>
      <trkpt lat="45.67894" lon="4.64094">
        <ele>349.58</ele>
        <time>2011-06-30T13:29:00Z</time>
      </trkpt>
      <trkpt lat="45.67895" lon="4.64096">
        <ele>350.06</ele>
        <time>2011-06-30T13:29:01Z</time>
      </trkpt>
      <trkpt lat="45.67894" lon="4.64099">
        <ele>350.54</ele>
        <time>2011-06-30T13:29:02Z</time>
      </trkpt>
      <trkpt lat="45.67893" lon="4.64102">
        <ele>351.02</ele>
        <time>2011-06-30T13:29:03Z</time>
      </trkpt>
      <trkpt lat="45.67893" lon="4.64105">
        <ele>351.02</ele>
        <time>2011-06-30T13:29:04Z</time>
      </trkpt>
      <trkpt lat="45.67892" lon="4.64108">
        <ele>351.5</ele>
        <time>2011-06-30T13:29:05Z</time>
      </trkpt>
      <trkpt lat="45.67892" lon="4.64111">
        <ele>351.98</ele>
        <time>2011-06-30T13:29:06Z</time>
      </trkpt>
      <trkpt lat="45.67892" lon="4.64114">
        <ele>351.98</ele>
        <time>2011-06-30T13:29:07Z</time>
      </trkpt>
      <trkpt lat="45.67892" lon="4.64116">
        <ele>351.5</ele>
        <time>2011-06-30T13:29:08Z</time>
      </trkpt>
      <trkpt lat="45.67892" lon="4.64119">
        <ele>351.98</ele>
        <time>2011-06-30T13:29:09Z</time>
      </trkpt>
      <trkpt lat="45.67891" lon="4.64122">
        <ele>352.46</ele>
        <time>2011-06-30T13:29:10Z</time>
      </trkpt>
      <trkpt lat="45.67891" lon="4.64125">
        <ele>352.94</ele>
        <time>2011-06-30T13:29:11Z</time>
      </trkpt>
      <trkpt lat="45.67892" lon="4.64128">
        <ele>352.94</ele>
        <time>2011-06-30T13:29:12Z</time>
      </trkpt>
      <trkpt lat="45.67893" lon="4.6413">
        <ele>353.42</ele>
        <time>2011-06-30T13:29:13Z</time>
      </trkpt>
      <trkpt lat="45.67899" lon="4.64142">
        <ele>354.86</ele>
        <time>2011-06-30T13:29:19Z</time>
      </trkpt>
      <trkpt lat="45.67901" lon="4.64143">
        <ele>354.86</ele>
        <time>2011-06-30T13:29:20Z</time>
      </trkpt>
      <trkpt lat="45.67903" lon="4.64144">
        <ele>354.86</ele>
        <time>2011-06-30T13:29:21Z</time>
      </trkpt>
      <trkpt lat="45.67905" lon="4.64143">
        <ele>355.34</ele>
        <time>2011-06-30T13:29:22Z</time>
      </trkpt>
      <trkpt lat="45.67906" lon="4.64142">
        <ele>355.34</ele>
        <time>2011-06-30T13:29:23Z</time>
      </trkpt>
      <trkpt lat="45.67925" lon="4.64133">
        <ele>358.71</ele>
        <time>2011-06-30T13:29:34Z</time>
      </trkpt>
      <trkpt lat="45.6795" lon="4.64123">
        <ele>361.11</ele>
        <time>2011-06-30T13:29:49Z</time>
      </trkpt>
      <trkpt lat="45.67958" lon="4.64116">
        <ele>363.04</ele>
        <time>2011-06-30T13:29:55Z</time>
      </trkpt>
      <trkpt lat="45.67959" lon="4.64116">
        <ele>363.04</ele>
        <time>2011-06-30T13:29:56Z</time>
      </trkpt>
      <trkpt lat="45.67961" lon="4.64116">
        <ele>363.04</ele>
        <time>2011-06-30T13:29:57Z</time>
      </trkpt>
      <trkpt lat="45.67962" lon="4.64116">
        <ele>363.04</ele>
        <time>2011-06-30T13:29:58Z</time>
      </trkpt>
      <trkpt lat="45.67964" lon="4.64116">
        <ele>363.52</ele>
        <time>2011-06-30T13:29:59Z</time>
      </trkpt>
      <trkpt lat="45.67966" lon="4.64115">
        <ele>363.52</ele>
        <time>2011-06-30T13:30:00Z</time>
      </trkpt>
      <trkpt lat="45.67967" lon="4.64114">
        <ele>364</ele>
        <time>2011-06-30T13:30:01Z</time>
      </trkpt>
      <trkpt lat="45.67986" lon="4.64103">
        <ele>365.92</ele>
        <time>2011-06-30T13:30:15Z</time>
      </trkpt>
      <trkpt lat="45.68007" lon="4.64091">
        <ele>367.84</ele>
        <time>2011-06-30T13:30:29Z</time>
      </trkpt>
      <trkpt lat="45.68027" lon="4.64077">
        <ele>370.73</ele>
        <time>2011-06-30T13:30:43Z</time>
      </trkpt>
      <trkpt lat="45.6805" lon="4.64065">
        <ele>373.61</ele>
        <time>2011-06-30T13:30:58Z</time>
      </trkpt>
      <trkpt lat="45.68074" lon="4.64049">
        <ele>375.53</ele>
        <time>2011-06-30T13:31:14Z</time>
      </trkpt>
      <trkpt lat="45.68098" lon="4.64035">
        <ele>377.94</ele>
        <time>2011-06-30T13:31:29Z</time>
      </trkpt>
      <trkpt lat="45.68122" lon="4.64026">
        <ele>379.86</ele>
        <time>2011-06-30T13:31:44Z</time>
      </trkpt>
      <trkpt lat="45.68141" lon="4.64025">
        <ele>382.26</ele>
        <time>2011-06-30T13:31:56Z</time>
      </trkpt>
      <trkpt lat="45.68164" lon="4.64031">
        <ele>384.18</ele>
        <time>2011-06-30T13:32:09Z</time>
      </trkpt>
      <trkpt lat="45.68186" lon="4.64015">
        <ele>386.11</ele>
        <time>2011-06-30T13:32:26Z</time>
      </trkpt>
      <trkpt lat="45.68194" lon="4.64011">
        <ele>386.11</ele>
        <time>2011-06-30T13:32:32Z</time>
      </trkpt>
      <trkpt lat="45.68195" lon="4.64012">
        <ele>386.11</ele>
        <time>2011-06-30T13:32:33Z</time>
      </trkpt>
      <trkpt lat="45.68199" lon="4.64014">
        <ele>386.11</ele>
        <time>2011-06-30T13:32:36Z</time>
      </trkpt>
      <trkpt lat="45.68206" lon="4.64011">
        <ele>387.55</ele>
        <time>2011-06-30T13:32:40Z</time>
      </trkpt>
      <trkpt lat="45.68223" lon="4.6399">
        <ele>389.47</ele>
        <time>2011-06-30T13:32:54Z</time>
      </trkpt>
      <trkpt lat="45.68224" lon="4.63988">
        <ele>389.47</ele>
        <time>2011-06-30T13:32:55Z</time>
      </trkpt>
      <trkpt lat="45.68225" lon="4.63987">
        <ele>389.95</ele>
        <time>2011-06-30T13:32:56Z</time>
      </trkpt>
      <trkpt lat="45.68238" lon="4.63964">
        <ele>390.43</ele>
        <time>2011-06-30T13:33:09Z</time>
      </trkpt>
      <trkpt lat="45.68246" lon="4.63935">
        <ele>393.32</ele>
        <time>2011-06-30T13:33:21Z</time>
      </trkpt>
      <trkpt lat="45.68255" lon="4.63888">
        <ele>394.28</ele>
        <time>2011-06-30T13:33:36Z</time>
      </trkpt>
      <trkpt lat="45.68251" lon="4.63833">
        <ele>395.72</ele>
        <time>2011-06-30T13:33:51Z</time>
      </trkpt>
      <trkpt lat="45.68251" lon="4.63837">
        <ele>395.24</ele>
        <time>2011-06-30T13:34:03Z</time>
      </trkpt>
      <trkpt lat="45.6825" lon="4.63839">
        <ele>396.2</ele>
        <time>2011-06-30T13:34:22Z</time>
      </trkpt>
      <trkpt lat="45.6825" lon="4.63833">
        <ele>396.2</ele>
        <time>2011-06-30T13:34:36Z</time>
      </trkpt>
      <trkpt lat="45.68249" lon="4.6383">
        <ele>396.2</ele>
        <time>2011-06-30T13:34:37Z</time>
      </trkpt>
      <trkpt lat="45.68231" lon="4.63761">
        <ele>397.64</ele>
        <time>2011-06-30T13:34:50Z</time>
      </trkpt>
      <trkpt lat="45.68218" lon="4.63714">
        <ele>398.12</ele>
        <time>2011-06-30T13:34:58Z</time>
      </trkpt>
      <trkpt lat="45.68217" lon="4.63708">
        <ele>397.64</ele>
        <time>2011-06-30T13:34:59Z</time>
      </trkpt>
      <trkpt lat="45.68199" lon="4.63612">
        <ele>398.6</ele>
        <time>2011-06-30T13:35:14Z</time>
      </trkpt>
      <trkpt lat="45.682" lon="4.63499">
        <ele>399.08</ele>
        <time>2011-06-30T13:35:30Z</time>
      </trkpt>
      <trkpt lat="45.68211" lon="4.63431">
        <ele>396.68</ele>
        <time>2011-06-30T13:35:39Z</time>
      </trkpt>
      <trkpt lat="45.6823" lon="4.63376">
        <ele>394.76</ele>
        <time>2011-06-30T13:35:45Z</time>
      </trkpt>
      <trkpt lat="45.68245" lon="4.63349">
        <ele>391.39</ele>
        <time>2011-06-30T13:35:48Z</time>
      </trkpt>
      <trkpt lat="45.6825" lon="4.63341">
        <ele>392.36</ele>
        <time>2011-06-30T13:35:49Z</time>
      </trkpt>
      <trkpt lat="45.68264" lon="4.63313">
        <ele>392.36</ele>
        <time>2011-06-30T13:35:52Z</time>
      </trkpt>
      <trkpt lat="45.68267" lon="4.63303">
        <ele>392.36</ele>
        <time>2011-06-30T13:35:53Z</time>
      </trkpt>
      <trkpt lat="45.6827" lon="4.63294">
        <ele>391.87</ele>
        <time>2011-06-30T13:35:54Z</time>
      </trkpt>
      <trkpt lat="45.68271" lon="4.63284">
        <ele>391.87</ele>
        <time>2011-06-30T13:35:55Z</time>
      </trkpt>
      <trkpt lat="45.68273" lon="4.63274">
        <ele>391.87</ele>
        <time>2011-06-30T13:35:56Z</time>
      </trkpt>
      <trkpt lat="45.68287" lon="4.63168">
        <ele>388.51</ele>
        <time>2011-06-30T13:36:08Z</time>
      </trkpt>
      <trkpt lat="45.68289" lon="4.63151">
        <ele>386.59</ele>
        <time>2011-06-30T13:36:11Z</time>
      </trkpt>
      <trkpt lat="45.68289" lon="4.63149">
        <ele>386.59</ele>
        <time>2011-06-30T13:36:12Z</time>
      </trkpt>
      <trkpt lat="45.68289" lon="4.63147">
        <ele>386.59</ele>
        <time>2011-06-30T13:36:13Z</time>
      </trkpt>
      <trkpt lat="45.68289" lon="4.63146">
        <ele>387.07</ele>
        <time>2011-06-30T13:36:26Z</time>
      </trkpt>
      <trkpt lat="45.68289" lon="4.63146">
        <ele>386.11</ele>
        <time>2011-06-30T13:37:02Z</time>
      </trkpt>
      <trkpt lat="45.68289" lon="4.63146">
        <ele>386.11</ele>
        <time>2011-06-30T13:37:04Z</time>
      </trkpt>
      <trkpt lat="45.68291" lon="4.63144">
        <ele>386.11</ele>
        <time>2011-06-30T13:37:05Z</time>
      </trkpt>
      <trkpt lat="45.68293" lon="4.63141">
        <ele>385.63</ele>
        <time>2011-06-30T13:37:06Z</time>
      </trkpt>
      <trkpt lat="45.68296" lon="4.63137">
        <ele>386.11</ele>
        <time>2011-06-30T13:37:07Z</time>
      </trkpt>
      <trkpt lat="45.68298" lon="4.63133">
        <ele>385.15</ele>
        <time>2011-06-30T13:37:08Z</time>
      </trkpt>
      <trkpt lat="45.683" lon="4.63127">
        <ele>384.66</ele>
        <time>2011-06-30T13:37:09Z</time>
      </trkpt>
      <trkpt lat="45.68303" lon="4.63121">
        <ele>384.66</ele>
        <time>2011-06-30T13:37:10Z</time>
      </trkpt>
      <trkpt lat="45.68354" lon="4.63039">
        <ele>380.82</ele>
        <time>2011-06-30T13:37:21Z</time>
      </trkpt>
      <trkpt lat="45.68381" lon="4.62999">
        <ele>376.97</ele>
        <time>2011-06-30T13:37:26Z</time>
      </trkpt>
      <trkpt lat="45.68422" lon="4.62902">
        <ele>375.05</ele>
        <time>2011-06-30T13:37:35Z</time>
      </trkpt>
      <trkpt lat="45.68424" lon="4.62889">
        <ele>375.05</ele>
        <time>2011-06-30T13:37:36Z</time>
      </trkpt>
      <trkpt lat="45.68425" lon="4.6284">
        <ele>375.53</ele>
        <time>2011-06-30T13:37:41Z</time>
      </trkpt>
      <trkpt lat="45.6843" lon="4.62776">
        <ele>376.01</ele>
        <time>2011-06-30T13:37:52Z</time>
      </trkpt>
      <trkpt lat="45.68431" lon="4.62774">
        <ele>376.49</ele>
        <time>2011-06-30T13:37:53Z</time>
      </trkpt>
      <trkpt lat="45.68432" lon="4.62773">
        <ele>376.49</ele>
        <time>2011-06-30T13:37:54Z</time>
      </trkpt>
      <trkpt lat="45.68432" lon="4.62772">
        <ele>376.97</ele>
        <time>2011-06-30T13:37:55Z</time>
      </trkpt>
      <trkpt lat="45.68432" lon="4.6277">
        <ele>376.97</ele>
        <time>2011-06-30T13:37:56Z</time>
      </trkpt>
      <trkpt lat="45.68432" lon="4.62767">
        <ele>376.49</ele>
        <time>2011-06-30T13:37:57Z</time>
      </trkpt>
      <trkpt lat="45.68433" lon="4.62765">
        <ele>376.49</ele>
        <time>2011-06-30T13:37:58Z</time>
      </trkpt>
      <trkpt lat="45.68433" lon="4.62763">
        <ele>376.01</ele>
        <time>2011-06-30T13:37:59Z</time>
      </trkpt>
      <trkpt lat="45.68433" lon="4.62762">
        <ele>376.97</ele>
        <time>2011-06-30T13:38:00Z</time>
      </trkpt>
      <trkpt lat="45.68431" lon="4.62762">
        <ele>376.97</ele>
        <time>2011-06-30T13:38:01Z</time>
      </trkpt>
      <trkpt lat="45.68432" lon="4.6277">
        <ele>376.49</ele>
        <time>2011-06-30T13:38:04Z</time>
      </trkpt>
      <trkpt lat="45.68433" lon="4.62777">
        <ele>376.97</ele>
        <time>2011-06-30T13:38:07Z</time>
      </trkpt>
      <trkpt lat="45.68436" lon="4.6281">
        <ele>379.38</ele>
        <time>2011-06-30T13:38:22Z</time>
      </trkpt>
      <trkpt lat="45.68445" lon="4.62833">
        <ele>382.74</ele>
        <time>2011-06-30T13:38:35Z</time>
      </trkpt>
      <trkpt lat="45.6846" lon="4.62853">
        <ele>385.63</ele>
        <time>2011-06-30T13:38:50Z</time>
      </trkpt>
      <trkpt lat="45.68463" lon="4.62858">
        <ele>386.59</ele>
        <time>2011-06-30T13:38:54Z</time>
      </trkpt>
      <trkpt lat="45.68471" lon="4.62861">
        <ele>387.07</ele>
        <time>2011-06-30T13:39:00Z</time>
      </trkpt>
      <trkpt lat="45.6849" lon="4.62862">
        <ele>390.43</ele>
        <time>2011-06-30T13:39:16Z</time>
      </trkpt>
      <trkpt lat="45.68507" lon="4.62858">
        <ele>393.8</ele>
        <time>2011-06-30T13:39:30Z</time>
      </trkpt>
      <trkpt lat="45.68523" lon="4.62856">
        <ele>396.68</ele>
        <time>2011-06-30T13:39:43Z</time>
      </trkpt>
      <trkpt lat="45.68541" lon="4.62851">
        <ele>399.57</ele>
        <time>2011-06-30T13:39:58Z</time>
      </trkpt>
      <trkpt lat="45.68559" lon="4.62849">
        <ele>402.93</ele>
        <time>2011-06-30T13:40:14Z</time>
      </trkpt>
      <trkpt lat="45.68583" lon="4.62846">
        <ele>405.81</ele>
        <time>2011-06-30T13:40:34Z</time>
      </trkpt>
      <trkpt lat="45.68601" lon="4.62842">
        <ele>407.74</ele>
        <time>2011-06-30T13:40:48Z</time>
      </trkpt>
      <trkpt lat="45.68621" lon="4.62836">
        <ele>410.62</ele>
        <time>2011-06-30T13:41:04Z</time>
      </trkpt>
      <trkpt lat="45.68639" lon="4.62822">
        <ele>413.98</ele>
        <time>2011-06-30T13:41:20Z</time>
      </trkpt>
      <trkpt lat="45.68656" lon="4.6281">
        <ele>416.87</ele>
        <time>2011-06-30T13:41:35Z</time>
      </trkpt>
      <trkpt lat="45.68669" lon="4.62797">
        <ele>420.23</ele>
        <time>2011-06-30T13:41:48Z</time>
      </trkpt>
      <trkpt lat="45.68668" lon="4.62769">
        <ele>422.16</ele>
        <time>2011-06-30T13:42:01Z</time>
      </trkpt>
      <trkpt lat="45.68667" lon="4.62721">
        <ele>422.64</ele>
        <time>2011-06-30T13:42:20Z</time>
      </trkpt>
      <trkpt lat="45.68675" lon="4.62678">
        <ele>425.52</ele>
        <time>2011-06-30T13:42:40Z</time>
      </trkpt>
      <trkpt lat="45.68697" lon="4.62665">
        <ele>427.92</ele>
        <time>2011-06-30T13:42:56Z</time>
      </trkpt>
      <trkpt lat="45.6871" lon="4.62656">
        <ele>431.29</ele>
        <time>2011-06-30T13:43:08Z</time>
      </trkpt>
      <trkpt lat="45.68731" lon="4.62644">
        <ele>433.21</ele>
        <time>2011-06-30T13:43:25Z</time>
      </trkpt>
      <trkpt lat="45.68751" lon="4.62625">
        <ele>435.61</ele>
        <time>2011-06-30T13:43:43Z</time>
      </trkpt>
      <trkpt lat="45.6875" lon="4.6259">
        <ele>438.02</ele>
        <time>2011-06-30T13:43:58Z</time>
      </trkpt>
      <trkpt lat="45.6875" lon="4.62567">
        <ele>439.94</ele>
        <time>2011-06-30T13:44:07Z</time>
      </trkpt>
      <trkpt lat="45.68752" lon="4.62528">
        <ele>440.9</ele>
        <time>2011-06-30T13:44:21Z</time>
      </trkpt>
      <trkpt lat="45.68751" lon="4.62473">
        <ele>439.94</ele>
        <time>2011-06-30T13:44:33Z</time>
      </trkpt>
      <trkpt lat="45.68745" lon="4.62395">
        <ele>439.46</ele>
        <time>2011-06-30T13:44:48Z</time>
      </trkpt>
      <trkpt lat="45.68744" lon="4.6239">
        <ele>438.98</ele>
        <time>2011-06-30T13:44:49Z</time>
      </trkpt>
      <trkpt lat="45.68738" lon="4.62301">
        <ele>440.9</ele>
        <time>2011-06-30T13:45:07Z</time>
      </trkpt>
      <trkpt lat="45.68737" lon="4.62264">
        <ele>440.42</ele>
        <time>2011-06-30T13:45:14Z</time>
      </trkpt>
      <trkpt lat="45.68737" lon="4.62257">
        <ele>439.46</ele>
        <time>2011-06-30T13:45:15Z</time>
      </trkpt>
      <trkpt lat="45.68738" lon="4.6216">
        <ele>437.06</ele>
        <time>2011-06-30T13:45:28Z</time>
      </trkpt>
      <trkpt lat="45.68739" lon="4.62152">
        <ele>436.58</ele>
        <time>2011-06-30T13:45:29Z</time>
      </trkpt>
      <trkpt lat="45.6874" lon="4.62143">
        <ele>435.61</ele>
        <time>2011-06-30T13:45:30Z</time>
      </trkpt>
      <trkpt lat="45.68742" lon="4.62134">
        <ele>435.61</ele>
        <time>2011-06-30T13:45:31Z</time>
      </trkpt>
      <trkpt lat="45.68745" lon="4.62126">
        <ele>435.61</ele>
        <time>2011-06-30T13:45:32Z</time>
      </trkpt>
      <trkpt lat="45.68748" lon="4.62117">
        <ele>435.13</ele>
        <time>2011-06-30T13:45:33Z</time>
      </trkpt>
      <trkpt lat="45.68756" lon="4.621">
        <ele>434.17</ele>
        <time>2011-06-30T13:45:35Z</time>
      </trkpt>
      <trkpt lat="45.68777" lon="4.6207">
        <ele>433.21</ele>
        <time>2011-06-30T13:45:39Z</time>
      </trkpt>
      <trkpt lat="45.68782" lon="4.62065">
        <ele>432.73</ele>
        <time>2011-06-30T13:45:40Z</time>
      </trkpt>
      <trkpt lat="45.68788" lon="4.62061">
        <ele>432.73</ele>
        <time>2011-06-30T13:45:41Z</time>
      </trkpt>
      <trkpt lat="45.68794" lon="4.62057">
        <ele>432.73</ele>
        <time>2011-06-30T13:45:42Z</time>
      </trkpt>
      <trkpt lat="45.688" lon="4.62055">
        <ele>432.25</ele>
        <time>2011-06-30T13:45:43Z</time>
      </trkpt>
      <trkpt lat="45.6882" lon="4.62048">
        <ele>432.25</ele>
        <time>2011-06-30T13:45:47Z</time>
      </trkpt>
      <trkpt lat="45.68866" lon="4.6205">
        <ele>433.69</ele>
        <time>2011-06-30T13:46:00Z</time>
      </trkpt>
      <trkpt lat="45.6887" lon="4.6205">
        <ele>433.21</ele>
        <time>2011-06-30T13:46:01Z</time>
      </trkpt>
      <trkpt lat="45.68874" lon="4.6205">
        <ele>433.69</ele>
        <time>2011-06-30T13:46:02Z</time>
      </trkpt>
      <trkpt lat="45.68877" lon="4.62051">
        <ele>433.69</ele>
        <time>2011-06-30T13:46:03Z</time>
      </trkpt>
      <trkpt lat="45.68885" lon="4.62055">
        <ele>435.13</ele>
        <time>2011-06-30T13:46:06Z</time>
      </trkpt>
      <trkpt lat="45.68887" lon="4.62055">
        <ele>435.13</ele>
        <time>2011-06-30T13:46:07Z</time>
      </trkpt>
      <trkpt lat="45.68889" lon="4.62054">
        <ele>435.61</ele>
        <time>2011-06-30T13:46:08Z</time>
      </trkpt>
      <trkpt lat="45.68891" lon="4.62053">
        <ele>435.61</ele>
        <time>2011-06-30T13:46:09Z</time>
      </trkpt>
      <trkpt lat="45.68892" lon="4.6205">
        <ele>435.61</ele>
        <time>2011-06-30T13:46:10Z</time>
      </trkpt>
      <trkpt lat="45.68894" lon="4.62046">
        <ele>436.1</ele>
        <time>2011-06-30T13:46:11Z</time>
      </trkpt>
      <trkpt lat="45.68895" lon="4.62043">
        <ele>436.1</ele>
        <time>2011-06-30T13:46:12Z</time>
      </trkpt>
      <trkpt lat="45.68895" lon="4.62039">
        <ele>436.58</ele>
        <time>2011-06-30T13:46:13Z</time>
      </trkpt>
      <trkpt lat="45.68895" lon="4.62035">
        <ele>436.58</ele>
        <time>2011-06-30T13:46:14Z</time>
      </trkpt>
      <trkpt lat="45.68894" lon="4.62033">
        <ele>437.06</ele>
        <time>2011-06-30T13:46:15Z</time>
      </trkpt>
      <trkpt lat="45.68892" lon="4.62031">
        <ele>437.54</ele>
        <time>2011-06-30T13:46:16Z</time>
      </trkpt>
      <trkpt lat="45.68891" lon="4.62029">
        <ele>437.54</ele>
        <time>2011-06-30T13:46:17Z</time>
      </trkpt>
      <trkpt lat="45.6889" lon="4.62027">
        <ele>437.54</ele>
        <time>2011-06-30T13:46:18Z</time>
      </trkpt>
      <trkpt lat="45.68888" lon="4.62025">
        <ele>437.54</ele>
        <time>2011-06-30T13:46:19Z</time>
      </trkpt>
      <trkpt lat="45.68887" lon="4.62022">
        <ele>437.54</ele>
        <time>2011-06-30T13:46:20Z</time>
      </trkpt>
      <trkpt lat="45.68867" lon="4.61993">
        <ele>440.9</ele>
        <time>2011-06-30T13:46:35Z</time>
      </trkpt>
      <trkpt lat="45.68846" lon="4.61969">
        <ele>442.82</ele>
        <time>2011-06-30T13:46:49Z</time>
      </trkpt>
      <trkpt lat="45.68837" lon="4.61928">
        <ele>446.19</ele>
        <time>2011-06-30T13:47:06Z</time>
      </trkpt>
      <trkpt lat="45.6885" lon="4.61891">
        <ele>448.59</ele>
        <time>2011-06-30T13:47:23Z</time>
      </trkpt>
      <trkpt lat="45.68858" lon="4.61859">
        <ele>451.96</ele>
        <time>2011-06-30T13:47:38Z</time>
      </trkpt>
      <trkpt lat="45.68861" lon="4.6182">
        <ele>453.4</ele>
        <time>2011-06-30T13:47:54Z</time>
      </trkpt>
      <trkpt lat="45.68867" lon="4.6178">
        <ele>452.92</ele>
        <time>2011-06-30T13:48:08Z</time>
      </trkpt>
      <trkpt lat="45.68867" lon="4.6178">
        <ele>452.92</ele>
        <time>2011-06-30T13:48:30Z</time>
      </trkpt>
      <trkpt lat="45.68868" lon="4.61778">
        <ele>452.92</ele>
        <time>2011-06-30T13:48:39Z</time>
      </trkpt>
      <trkpt lat="45.6887" lon="4.61775">
        <ele>453.4</ele>
        <time>2011-06-30T13:48:41Z</time>
      </trkpt>
      <trkpt lat="45.68871" lon="4.61772">
        <ele>453.88</ele>
        <time>2011-06-30T13:48:42Z</time>
      </trkpt>
      <trkpt lat="45.6889" lon="4.61718">
        <ele>452.92</ele>
        <time>2011-06-30T13:48:57Z</time>
      </trkpt>
      <trkpt lat="45.68898" lon="4.617">
        <ele>452.92</ele>
        <time>2011-06-30T13:49:00Z</time>
      </trkpt>
      <trkpt lat="45.68904" lon="4.61687">
        <ele>452.44</ele>
        <time>2011-06-30T13:49:02Z</time>
      </trkpt>
      <trkpt lat="45.6891" lon="4.61676">
        <ele>452.92</ele>
        <time>2011-06-30T13:49:04Z</time>
      </trkpt>
      <trkpt lat="45.68914" lon="4.61671">
        <ele>452.44</ele>
        <time>2011-06-30T13:49:05Z</time>
      </trkpt>
      <trkpt lat="45.68947" lon="4.61633">
        <ele>453.4</ele>
        <time>2011-06-30T13:49:17Z</time>
      </trkpt>
      <trkpt lat="45.68966" lon="4.61577">
        <ele>453.88</ele>
        <time>2011-06-30T13:49:29Z</time>
      </trkpt>
      <trkpt lat="45.68966" lon="4.61569">
        <ele>452.44</ele>
        <time>2011-06-30T13:49:30Z</time>
      </trkpt>
      <trkpt lat="45.68965" lon="4.61561">
        <ele>452.92</ele>
        <time>2011-06-30T13:49:31Z</time>
      </trkpt>
      <trkpt lat="45.68958" lon="4.6153">
        <ele>454.36</ele>
        <time>2011-06-30T13:49:40Z</time>
      </trkpt>
      <trkpt lat="45.68949" lon="4.61521">
        <ele>455.32</ele>
        <time>2011-06-30T13:49:46Z</time>
      </trkpt>
      <trkpt lat="45.68945" lon="4.61519">
        <ele>455.8</ele>
        <time>2011-06-30T13:50:02Z</time>
      </trkpt>
      <trkpt lat="45.68946" lon="4.61521">
        <ele>456.28</ele>
        <time>2011-06-30T13:50:22Z</time>
      </trkpt>
      <trkpt lat="45.68947" lon="4.61521">
        <ele>455.8</ele>
        <time>2011-06-30T13:50:23Z</time>
      </trkpt>
      <trkpt lat="45.68949" lon="4.61522">
        <ele>455.8</ele>
        <time>2011-06-30T13:50:24Z</time>
      </trkpt>
      <trkpt lat="45.68951" lon="4.61524">
        <ele>455.32</ele>
        <time>2011-06-30T13:50:25Z</time>
      </trkpt>
      <trkpt lat="45.68953" lon="4.61526">
        <ele>455.32</ele>
        <time>2011-06-30T13:50:26Z</time>
      </trkpt>
      <trkpt lat="45.68956" lon="4.61529">
        <ele>455.32</ele>
        <time>2011-06-30T13:50:27Z</time>
      </trkpt>
      <trkpt lat="45.68957" lon="4.61532">
        <ele>454.36</ele>
        <time>2011-06-30T13:50:28Z</time>
      </trkpt>
      <trkpt lat="45.68959" lon="4.61536">
        <ele>453.88</ele>
        <time>2011-06-30T13:50:29Z</time>
      </trkpt>
      <trkpt lat="45.6896" lon="4.61539">
        <ele>454.36</ele>
        <time>2011-06-30T13:50:30Z</time>
      </trkpt>
      <trkpt lat="45.68961" lon="4.61542">
        <ele>453.4</ele>
        <time>2011-06-30T13:50:31Z</time>
      </trkpt>
      <trkpt lat="45.68962" lon="4.61545">
        <ele>453.4</ele>
        <time>2011-06-30T13:50:43Z</time>
      </trkpt>
      <trkpt lat="45.68962" lon="4.61547">
        <ele>452.92</ele>
        <time>2011-06-30T13:51:00Z</time>
      </trkpt>
      <trkpt lat="45.68963" lon="4.61549">
        <ele>453.4</ele>
        <time>2011-06-30T13:51:01Z</time>
      </trkpt>
      <trkpt lat="45.68964" lon="4.6155">
        <ele>452.92</ele>
        <time>2011-06-30T13:51:02Z</time>
      </trkpt>
      <trkpt lat="45.6896" lon="4.61529">
        <ele>454.36</ele>
        <time>2011-06-30T13:51:14Z</time>
      </trkpt>
      <trkpt lat="45.68959" lon="4.61528">
        <ele>454.84</ele>
        <time>2011-06-30T13:51:15Z</time>
      </trkpt>
      <trkpt lat="45.6894" lon="4.61518">
        <ele>457.24</ele>
        <time>2011-06-30T13:51:27Z</time>
      </trkpt>
      <trkpt lat="45.6892" lon="4.61509">
        <ele>460.13</ele>
        <time>2011-06-30T13:51:42Z</time>
      </trkpt>
      <trkpt lat="45.68906" lon="4.61504">
        <ele>462.05</ele>
        <time>2011-06-30T13:51:54Z</time>
      </trkpt>
      <trkpt lat="45.68895" lon="4.61476">
        <ele>463.97</ele>
        <time>2011-06-30T13:52:10Z</time>
      </trkpt>
      <trkpt lat="45.68895" lon="4.61449">
        <ele>466.38</ele>
        <time>2011-06-30T13:52:23Z</time>
      </trkpt>
      <trkpt lat="45.68893" lon="4.61412">
        <ele>468.78</ele>
        <time>2011-06-30T13:52:40Z</time>
      </trkpt>
      <trkpt lat="45.68897" lon="4.61381">
        <ele>471.66</ele>
        <time>2011-06-30T13:52:55Z</time>
      </trkpt>
      <trkpt lat="45.68901" lon="4.61353">
        <ele>474.55</ele>
        <time>2011-06-30T13:53:10Z</time>
      </trkpt>
      <trkpt lat="45.6891" lon="4.61321">
        <ele>476.95</ele>
        <time>2011-06-30T13:53:26Z</time>
      </trkpt>
      <trkpt lat="45.68932" lon="4.61287">
        <ele>478.39</ele>
        <time>2011-06-30T13:53:41Z</time>
      </trkpt>
      <trkpt lat="45.6897" lon="4.61252">
        <ele>478.39</ele>
        <time>2011-06-30T13:53:58Z</time>
      </trkpt>
      <trkpt lat="45.69009" lon="4.61221">
        <ele>478.87</ele>
        <time>2011-06-30T13:54:13Z</time>
      </trkpt>
      <trkpt lat="45.69044" lon="4.61198">
        <ele>478.39</ele>
        <time>2011-06-30T13:54:25Z</time>
      </trkpt>
      <trkpt lat="45.69091" lon="4.6116">
        <ele>476.95</ele>
        <time>2011-06-30T13:54:41Z</time>
      </trkpt>
      <trkpt lat="45.69119" lon="4.61139">
        <ele>478.39</ele>
        <time>2011-06-30T13:54:51Z</time>
      </trkpt>
      <trkpt lat="45.69153" lon="4.61127">
        <ele>480.8</ele>
        <time>2011-06-30T13:55:05Z</time>
      </trkpt>
      <trkpt lat="45.6918" lon="4.61141">
        <ele>483.2</ele>
        <time>2011-06-30T13:55:18Z</time>
      </trkpt>
      <trkpt lat="45.69197" lon="4.61161">
        <ele>479.84</ele>
        <time>2011-06-30T13:55:28Z</time>
      </trkpt>
      <trkpt lat="45.69238" lon="4.61185">
        <ele>479.84</ele>
        <time>2011-06-30T13:55:38Z</time>
      </trkpt>
      <trkpt lat="45.69246" lon="4.61176">
        <ele>480.8</ele>
        <time>2011-06-30T13:55:43Z</time>
      </trkpt>
      <trkpt lat="45.69246" lon="4.61148">
        <ele>484.16</ele>
        <time>2011-06-30T13:55:54Z</time>
      </trkpt>
      <trkpt lat="45.69246" lon="4.6114">
        <ele>485.6</ele>
        <time>2011-06-30T13:55:58Z</time>
      </trkpt>
      <trkpt lat="45.69249" lon="4.61111">
        <ele>488.49</ele>
        <time>2011-06-30T13:56:13Z</time>
      </trkpt>
      <trkpt lat="45.69244" lon="4.6109">
        <ele>491.85</ele>
        <time>2011-06-30T13:56:25Z</time>
      </trkpt>
      <trkpt lat="45.69244" lon="4.61073">
        <ele>493.29</ele>
        <time>2011-06-30T13:56:34Z</time>
      </trkpt>
      <trkpt lat="45.69247" lon="4.61049">
        <ele>495.22</ele>
        <time>2011-06-30T13:56:50Z</time>
      </trkpt>
      <trkpt lat="45.69258" lon="4.61031">
        <ele>497.14</ele>
        <time>2011-06-30T13:57:03Z</time>
      </trkpt>
      <trkpt lat="45.69265" lon="4.6102">
        <ele>497.62</ele>
        <time>2011-06-30T13:57:10Z</time>
      </trkpt>
      <trkpt lat="45.69269" lon="4.61013">
        <ele>498.1</ele>
        <time>2011-06-30T13:57:15Z</time>
      </trkpt>
      <trkpt lat="45.69281" lon="4.60981">
        <ele>500.5</ele>
        <time>2011-06-30T13:57:32Z</time>
      </trkpt>
      <trkpt lat="45.69294" lon="4.60952">
        <ele>502.91</ele>
        <time>2011-06-30T13:57:48Z</time>
      </trkpt>
      <trkpt lat="45.69296" lon="4.60949">
        <ele>503.39</ele>
        <time>2011-06-30T13:57:50Z</time>
      </trkpt>
      <trkpt lat="45.69299" lon="4.6094">
        <ele>503.87</ele>
        <time>2011-06-30T13:57:54Z</time>
      </trkpt>
      <trkpt lat="45.6931" lon="4.60917">
        <ele>505.31</ele>
        <time>2011-06-30T13:58:09Z</time>
      </trkpt>
      <trkpt lat="45.69311" lon="4.60909">
        <ele>505.31</ele>
        <time>2011-06-30T13:58:22Z</time>
      </trkpt>
      <trkpt lat="45.69313" lon="4.60911">
        <ele>505.79</ele>
        <time>2011-06-30T13:58:31Z</time>
      </trkpt>
      <trkpt lat="45.69315" lon="4.60908">
        <ele>505.79</ele>
        <time>2011-06-30T13:58:45Z</time>
      </trkpt>
      <trkpt lat="45.69315" lon="4.60908">
        <ele>507.71</ele>
        <time>2011-06-30T13:59:14Z</time>
      </trkpt>
      <trkpt lat="45.69315" lon="4.60909">
        <ele>505.79</ele>
        <time>2011-06-30T13:59:43Z</time>
      </trkpt>
      <trkpt lat="45.69315" lon="4.60909">
        <ele>507.23</ele>
        <time>2011-06-30T14:00:17Z</time>
      </trkpt>
      <trkpt lat="45.69315" lon="4.60909">
        <ele>506.27</ele>
        <time>2011-06-30T14:00:51Z</time>
      </trkpt>
      <trkpt lat="45.69314" lon="4.60908">
        <ele>506.27</ele>
        <time>2011-06-30T14:01:09Z</time>
      </trkpt>
      <trkpt lat="45.69313" lon="4.60897">
        <ele>505.79</ele>
        <time>2011-06-30T14:01:14Z</time>
      </trkpt>
      <trkpt lat="45.69319" lon="4.60886">
        <ele>506.75</ele>
        <time>2011-06-30T14:01:19Z</time>
      </trkpt>
      <trkpt lat="45.69336" lon="4.60864">
        <ele>509.16</ele>
        <time>2011-06-30T14:01:32Z</time>
      </trkpt>
      <trkpt lat="45.69348" lon="4.60852">
        <ele>512.04</ele>
        <time>2011-06-30T14:01:41Z</time>
      </trkpt>
      <trkpt lat="45.6935" lon="4.6085">
        <ele>512.52</ele>
        <time>2011-06-30T14:01:43Z</time>
      </trkpt>
      <trkpt lat="45.69359" lon="4.60846">
        <ele>513</ele>
        <time>2011-06-30T14:01:50Z</time>
      </trkpt>
      <trkpt lat="45.69368" lon="4.60843">
        <ele>514.44</ele>
        <time>2011-06-30T14:01:56Z</time>
      </trkpt>
      <trkpt lat="45.69393" lon="4.60838">
        <ele>514.44</ele>
        <time>2011-06-30T14:02:11Z</time>
      </trkpt>
      <trkpt lat="45.69406" lon="4.60819">
        <ele>517.33</ele>
        <time>2011-06-30T14:02:24Z</time>
      </trkpt>
      <trkpt lat="45.69408" lon="4.60816">
        <ele>518.77</ele>
        <time>2011-06-30T14:02:27Z</time>
      </trkpt>
      <trkpt lat="45.69417" lon="4.60792">
        <ele>521.65</ele>
        <time>2011-06-30T14:02:40Z</time>
      </trkpt>
      <trkpt lat="45.69421" lon="4.60784">
        <ele>523.58</ele>
        <time>2011-06-30T14:02:45Z</time>
      </trkpt>
      <trkpt lat="45.69429" lon="4.60772">
        <ele>525.5</ele>
        <time>2011-06-30T14:02:58Z</time>
      </trkpt>
      <trkpt lat="45.6944" lon="4.60762">
        <ele>527.9</ele>
        <time>2011-06-30T14:03:13Z</time>
      </trkpt>
      <trkpt lat="45.69447" lon="4.60757">
        <ele>527.9</ele>
        <time>2011-06-30T14:03:25Z</time>
      </trkpt>
      <trkpt lat="45.69463" lon="4.60746">
        <ele>529.82</ele>
        <time>2011-06-30T14:03:38Z</time>
      </trkpt>
      <trkpt lat="45.69481" lon="4.60734">
        <ele>530.79</ele>
        <time>2011-06-30T14:03:51Z</time>
      </trkpt>
      <trkpt lat="45.69506" lon="4.60726">
        <ele>531.27</ele>
        <time>2011-06-30T14:04:06Z</time>
      </trkpt>
      <trkpt lat="45.69511" lon="4.60719">
        <ele>531.27</ele>
        <time>2011-06-30T14:04:10Z</time>
      </trkpt>
      <trkpt lat="45.69522" lon="4.60686">
        <ele>533.67</ele>
        <time>2011-06-30T14:04:24Z</time>
      </trkpt>
      <trkpt lat="45.69524" lon="4.60656">
        <ele>536.07</ele>
        <time>2011-06-30T14:04:39Z</time>
      </trkpt>
      <trkpt lat="45.69524" lon="4.60653">
        <ele>536.07</ele>
        <time>2011-06-30T14:04:41Z</time>
      </trkpt>
      <trkpt lat="45.69512" lon="4.60633">
        <ele>538.96</ele>
        <time>2011-06-30T14:04:59Z</time>
      </trkpt>
      <trkpt lat="45.69507" lon="4.60628">
        <ele>540.4</ele>
        <time>2011-06-30T14:05:05Z</time>
      </trkpt>
      <trkpt lat="45.69493" lon="4.60615">
        <ele>541.84</ele>
        <time>2011-06-30T14:05:19Z</time>
      </trkpt>
      <trkpt lat="45.69481" lon="4.60596">
        <ele>544.24</ele>
        <time>2011-06-30T14:05:34Z</time>
      </trkpt>
      <trkpt lat="45.69469" lon="4.60586">
        <ele>547.13</ele>
        <time>2011-06-30T14:05:48Z</time>
      </trkpt>
      <trkpt lat="45.69469" lon="4.60583">
        <ele>546.65</ele>
        <time>2011-06-30T14:05:58Z</time>
      </trkpt>
      <trkpt lat="45.69479" lon="4.60558">
        <ele>549.05</ele>
        <time>2011-06-30T14:06:13Z</time>
      </trkpt>
      <trkpt lat="45.69483" lon="4.60566">
        <ele>550.01</ele>
        <time>2011-06-30T14:06:25Z</time>
      </trkpt>
      <trkpt lat="45.6949" lon="4.60566">
        <ele>550.97</ele>
        <time>2011-06-30T14:06:38Z</time>
      </trkpt>
      <trkpt lat="45.69514" lon="4.60562">
        <ele>552.9</ele>
        <time>2011-06-30T14:06:54Z</time>
      </trkpt>
      <trkpt lat="45.69525" lon="4.6055">
        <ele>555.3</ele>
        <time>2011-06-30T14:07:06Z</time>
      </trkpt>
      <trkpt lat="45.69532" lon="4.60541">
        <ele>557.22</ele>
        <time>2011-06-30T14:07:12Z</time>
      </trkpt>
      <trkpt lat="45.69545" lon="4.60525">
        <ele>560.11</ele>
        <time>2011-06-30T14:07:25Z</time>
      </trkpt>
      <trkpt lat="45.69557" lon="4.60504">
        <ele>562.99</ele>
        <time>2011-06-30T14:07:39Z</time>
      </trkpt>
      <trkpt lat="45.6956" lon="4.60496">
        <ele>563.47</ele>
        <time>2011-06-30T14:07:47Z</time>
      </trkpt>
      <trkpt lat="45.69562" lon="4.60489">
        <ele>565.87</ele>
        <time>2011-06-30T14:08:01Z</time>
      </trkpt>
      <trkpt lat="45.69569" lon="4.60478">
        <ele>566.83</ele>
        <time>2011-06-30T14:08:14Z</time>
      </trkpt>
      <trkpt lat="45.69577" lon="4.60465">
        <ele>568.76</ele>
        <time>2011-06-30T14:08:28Z</time>
      </trkpt>
      <trkpt lat="45.69584" lon="4.6045">
        <ele>571.16</ele>
        <time>2011-06-30T14:08:43Z</time>
      </trkpt>
      <trkpt lat="45.69586" lon="4.60445">
        <ele>571.64</ele>
        <time>2011-06-30T14:08:59Z</time>
      </trkpt>
      <trkpt lat="45.69587" lon="4.60442">
        <ele>571.64</ele>
        <time>2011-06-30T14:09:01Z</time>
      </trkpt>
      <trkpt lat="45.69595" lon="4.60407">
        <ele>572.6</ele>
        <time>2011-06-30T14:09:18Z</time>
      </trkpt>
      <trkpt lat="45.69602" lon="4.60369">
        <ele>573.56</ele>
        <time>2011-06-30T14:09:34Z</time>
      </trkpt>
      <trkpt lat="45.6961" lon="4.60335">
        <ele>575.01</ele>
        <time>2011-06-30T14:09:49Z</time>
      </trkpt>
      <trkpt lat="45.69616" lon="4.60305">
        <ele>577.41</ele>
        <time>2011-06-30T14:10:04Z</time>
      </trkpt>
      <trkpt lat="45.69619" lon="4.60271">
        <ele>579.33</ele>
        <time>2011-06-30T14:10:19Z</time>
      </trkpt>
      <trkpt lat="45.69623" lon="4.6024">
        <ele>581.73</ele>
        <time>2011-06-30T14:10:33Z</time>
      </trkpt>
      <trkpt lat="45.69627" lon="4.6021">
        <ele>583.66</ele>
        <time>2011-06-30T14:10:47Z</time>
      </trkpt>
      <trkpt lat="45.6963" lon="4.60176">
        <ele>585.1</ele>
        <time>2011-06-30T14:11:02Z</time>
      </trkpt>
      <trkpt lat="45.69636" lon="4.60136">
        <ele>586.06</ele>
        <time>2011-06-30T14:11:17Z</time>
      </trkpt>
      <trkpt lat="45.69646" lon="4.60091">
        <ele>587.98</ele>
        <time>2011-06-30T14:11:33Z</time>
      </trkpt>
      <trkpt lat="45.69662" lon="4.60058">
        <ele>588.95</ele>
        <time>2011-06-30T14:11:47Z</time>
      </trkpt>
      <trkpt lat="45.69679" lon="4.60031">
        <ele>590.39</ele>
        <time>2011-06-30T14:12:00Z</time>
      </trkpt>
      <trkpt lat="45.6969" lon="4.59995">
        <ele>592.79</ele>
        <time>2011-06-30T14:12:14Z</time>
      </trkpt>
      <trkpt lat="45.69699" lon="4.59972">
        <ele>596.15</ele>
        <time>2011-06-30T14:12:25Z</time>
      </trkpt>
      <trkpt lat="45.69705" lon="4.59938">
        <ele>597.6</ele>
        <time>2011-06-30T14:12:41Z</time>
      </trkpt>
      <trkpt lat="45.69714" lon="4.5991">
        <ele>599.52</ele>
        <time>2011-06-30T14:12:55Z</time>
      </trkpt>
      <trkpt lat="45.69723" lon="4.59892">
        <ele>600.96</ele>
        <time>2011-06-30T14:13:06Z</time>
      </trkpt>
      <trkpt lat="45.6973" lon="4.59883">
        <ele>601.92</ele>
        <time>2011-06-30T14:13:12Z</time>
      </trkpt>
      <trkpt lat="45.69748" lon="4.59864">
        <ele>603.85</ele>
        <time>2011-06-30T14:13:26Z</time>
      </trkpt>
      <trkpt lat="45.69774" lon="4.59842">
        <ele>603.36</ele>
        <time>2011-06-30T14:13:41Z</time>
      </trkpt>
      <trkpt lat="45.69774" lon="4.59841">
        <ele>603.36</ele>
        <time>2011-06-30T14:13:55Z</time>
      </trkpt>
      <trkpt lat="45.69774" lon="4.59841">
        <ele>603.36</ele>
        <time>2011-06-30T14:14:16Z</time>
      </trkpt>
      <trkpt lat="45.69774" lon="4.59841">
        <ele>603.36</ele>
        <time>2011-06-30T14:14:41Z</time>
      </trkpt>
      <trkpt lat="45.69774" lon="4.59841">
        <ele>602.88</ele>
        <time>2011-06-30T14:15:06Z</time>
      </trkpt>
      <trkpt lat="45.69774" lon="4.59841">
        <ele>603.36</ele>
        <time>2011-06-30T14:15:28Z</time>
      </trkpt>
      <trkpt lat="45.69774" lon="4.59842">
        <ele>602.4</ele>
        <time>2011-06-30T14:15:55Z</time>
      </trkpt>
      <trkpt lat="45.69774" lon="4.59842">
        <ele>602.88</ele>
        <time>2011-06-30T14:16:20Z</time>
      </trkpt>
      <trkpt lat="45.69774" lon="4.59842">
        <ele>602.4</ele>
        <time>2011-06-30T14:16:40Z</time>
      </trkpt>
      <trkpt lat="45.69774" lon="4.59842">
        <ele>602.4</ele>
        <time>2011-06-30T14:17:07Z</time>
      </trkpt>
      <trkpt lat="45.69775" lon="4.59842">
        <ele>602.4</ele>
        <time>2011-06-30T14:17:23Z</time>
      </trkpt>
      <trkpt lat="45.69775" lon="4.59842">
        <ele>601.92</ele>
        <time>2011-06-30T14:17:51Z</time>
      </trkpt>
      <trkpt lat="45.69775" lon="4.59843">
        <ele>601.92</ele>
        <time>2011-06-30T14:18:13Z</time>
      </trkpt>
      <trkpt lat="45.69775" lon="4.59843">
        <ele>601.92</ele>
        <time>2011-06-30T14:18:40Z</time>
      </trkpt>
      <trkpt lat="45.69775" lon="4.59842">
        <ele>601.92</ele>
        <time>2011-06-30T14:19:08Z</time>
      </trkpt>
      <trkpt lat="45.69775" lon="4.59842">
        <ele>601.92</ele>
        <time>2011-06-30T14:19:25Z</time>
      </trkpt>
      <trkpt lat="45.69775" lon="4.59842">
        <ele>602.4</ele>
        <time>2011-06-30T14:19:52Z</time>
      </trkpt>
      <trkpt lat="45.69776" lon="4.59841">
        <ele>602.4</ele>
        <time>2011-06-30T14:20:13Z</time>
      </trkpt>
      <trkpt lat="45.69799" lon="4.59831">
        <ele>603.85</ele>
        <time>2011-06-30T14:20:28Z</time>
      </trkpt>
      <trkpt lat="45.69831" lon="4.59826">
        <ele>605.77</ele>
        <time>2011-06-30T14:20:40Z</time>
      </trkpt>
      <trkpt lat="45.69849" lon="4.59831">
        <ele>608.17</ele>
        <time>2011-06-30T14:20:49Z</time>
      </trkpt>
      <trkpt lat="45.69868" lon="4.59844">
        <ele>610.57</ele>
        <time>2011-06-30T14:21:01Z</time>
      </trkpt>
      <trkpt lat="45.69894" lon="4.59846">
        <ele>613.46</ele>
        <time>2011-06-30T14:21:14Z</time>
      </trkpt>
      <trkpt lat="45.69903" lon="4.59839">
        <ele>614.42</ele>
        <time>2011-06-30T14:21:22Z</time>
      </trkpt>
      <trkpt lat="45.69913" lon="4.598">
        <ele>617.3</ele>
        <time>2011-06-30T14:21:37Z</time>
      </trkpt>
      <trkpt lat="45.69919" lon="4.59767">
        <ele>619.23</ele>
        <time>2011-06-30T14:21:50Z</time>
      </trkpt>
      <trkpt lat="45.69929" lon="4.59736">
        <ele>622.11</ele>
        <time>2011-06-30T14:22:05Z</time>
      </trkpt>
      <trkpt lat="45.69931" lon="4.59734">
        <ele>621.63</ele>
        <time>2011-06-30T14:22:06Z</time>
      </trkpt>
      <trkpt lat="45.69939" lon="4.59702">
        <ele>623.07</ele>
        <time>2011-06-30T14:22:20Z</time>
      </trkpt>
      <trkpt lat="45.69955" lon="4.59677">
        <ele>623.55</ele>
        <time>2011-06-30T14:22:34Z</time>
      </trkpt>
      <trkpt lat="45.69966" lon="4.59665">
        <ele>625.47</ele>
        <time>2011-06-30T14:22:42Z</time>
      </trkpt>
      <trkpt lat="45.6997" lon="4.59662">
        <ele>625.96</ele>
        <time>2011-06-30T14:22:45Z</time>
      </trkpt>
      <trkpt lat="45.69993" lon="4.59638">
        <ele>625.47</ele>
        <time>2011-06-30T14:22:59Z</time>
      </trkpt>
      <trkpt lat="45.70034" lon="4.59598">
        <ele>626.92</ele>
        <time>2011-06-30T14:23:13Z</time>
      </trkpt>
      <trkpt lat="45.7007" lon="4.59573">
        <ele>627.88</ele>
        <time>2011-06-30T14:23:27Z</time>
      </trkpt>
      <trkpt lat="45.70084" lon="4.5954">
        <ele>631.24</ele>
        <time>2011-06-30T14:23:42Z</time>
      </trkpt>
      <trkpt lat="45.70093" lon="4.59495">
        <ele>634.61</ele>
        <time>2011-06-30T14:24:01Z</time>
      </trkpt>
      <trkpt lat="45.70105" lon="4.59459">
        <ele>636.53</ele>
        <time>2011-06-30T14:24:17Z</time>
      </trkpt>
      <trkpt lat="45.70115" lon="4.5943">
        <ele>637.97</ele>
        <time>2011-06-30T14:24:31Z</time>
      </trkpt>
      <trkpt lat="45.70127" lon="4.594">
        <ele>641.34</ele>
        <time>2011-06-30T14:24:45Z</time>
      </trkpt>
      <trkpt lat="45.70128" lon="4.59359">
        <ele>642.78</ele>
        <time>2011-06-30T14:25:02Z</time>
      </trkpt>
      <trkpt lat="45.70127" lon="4.59335">
        <ele>645.66</ele>
        <time>2011-06-30T14:25:15Z</time>
      </trkpt>
      <trkpt lat="45.70129" lon="4.59322">
        <ele>647.59</ele>
        <time>2011-06-30T14:25:24Z</time>
      </trkpt>
      <trkpt lat="45.70134" lon="4.59301">
        <ele>650.95</ele>
        <time>2011-06-30T14:25:38Z</time>
      </trkpt>
      <trkpt lat="45.70141" lon="4.59275">
        <ele>652.87</ele>
        <time>2011-06-30T14:25:55Z</time>
      </trkpt>
      <trkpt lat="45.70155" lon="4.59252">
        <ele>655.76</ele>
        <time>2011-06-30T14:26:12Z</time>
      </trkpt>
      <trkpt lat="45.70173" lon="4.59231">
        <ele>658.16</ele>
        <time>2011-06-30T14:26:31Z</time>
      </trkpt>
      <trkpt lat="45.70192" lon="4.59213">
        <ele>660.56</ele>
        <time>2011-06-30T14:26:46Z</time>
      </trkpt>
      <trkpt lat="45.70213" lon="4.59198">
        <ele>662.97</ele>
        <time>2011-06-30T14:27:02Z</time>
      </trkpt>
      <trkpt lat="45.70228" lon="4.59192">
        <ele>665.85</ele>
        <time>2011-06-30T14:27:14Z</time>
      </trkpt>
      <trkpt lat="45.70241" lon="4.59191">
        <ele>668.25</ele>
        <time>2011-06-30T14:27:26Z</time>
      </trkpt>
      <trkpt lat="45.70246" lon="4.59189">
        <ele>668.73</ele>
        <time>2011-06-30T14:27:30Z</time>
      </trkpt>
      <trkpt lat="45.70248" lon="4.59188">
        <ele>668.73</ele>
        <time>2011-06-30T14:27:32Z</time>
      </trkpt>
      <trkpt lat="45.70256" lon="4.5919">
        <ele>670.18</ele>
        <time>2011-06-30T14:27:39Z</time>
      </trkpt>
      <trkpt lat="45.7026" lon="4.59189">
        <ele>671.62</ele>
        <time>2011-06-30T14:27:43Z</time>
      </trkpt>
      <trkpt lat="45.70275" lon="4.59184">
        <ele>674.5</ele>
        <time>2011-06-30T14:27:57Z</time>
      </trkpt>
      <trkpt lat="45.70278" lon="4.59184">
        <ele>674.02</ele>
        <time>2011-06-30T14:28:00Z</time>
      </trkpt>
      <trkpt lat="45.70293" lon="4.59178">
        <ele>677.39</ele>
        <time>2011-06-30T14:28:13Z</time>
      </trkpt>
      <trkpt lat="45.70295" lon="4.59177">
        <ele>677.39</ele>
        <time>2011-06-30T14:28:15Z</time>
      </trkpt>
      <trkpt lat="45.70296" lon="4.59178">
        <ele>677.39</ele>
        <time>2011-06-30T14:28:17Z</time>
      </trkpt>
      <trkpt lat="45.70314" lon="4.59172">
        <ele>681.23</ele>
        <time>2011-06-30T14:28:33Z</time>
      </trkpt>
      <trkpt lat="45.70324" lon="4.59163">
        <ele>684.12</ele>
        <time>2011-06-30T14:28:44Z</time>
      </trkpt>
      <trkpt lat="45.70327" lon="4.59166">
        <ele>684.6</ele>
        <time>2011-06-30T14:28:50Z</time>
      </trkpt>
      <trkpt lat="45.70327" lon="4.5917">
        <ele>684.6</ele>
        <time>2011-06-30T14:29:05Z</time>
      </trkpt>
      <trkpt lat="45.70327" lon="4.5917">
        <ele>684.6</ele>
        <time>2011-06-30T14:29:42Z</time>
      </trkpt>
      <trkpt lat="45.70327" lon="4.5917">
        <ele>684.6</ele>
        <time>2011-06-30T14:30:14Z</time>
      </trkpt>
      <trkpt lat="45.70329" lon="4.59171">
        <ele>685.56</ele>
        <time>2011-06-30T14:30:28Z</time>
      </trkpt>
      <trkpt lat="45.70345" lon="4.59158">
        <ele>688.92</ele>
        <time>2011-06-30T14:30:41Z</time>
      </trkpt>
      <trkpt lat="45.70365" lon="4.59151">
        <ele>691.33</ele>
        <time>2011-06-30T14:30:57Z</time>
      </trkpt>
      <trkpt lat="45.70383" lon="4.59142">
        <ele>694.21</ele>
        <time>2011-06-30T14:31:12Z</time>
      </trkpt>
      <trkpt lat="45.70392" lon="4.5914">
        <ele>696.13</ele>
        <time>2011-06-30T14:31:20Z</time>
      </trkpt>
      <trkpt lat="45.70412" lon="4.59131">
        <ele>699.98</ele>
        <time>2011-06-30T14:31:37Z</time>
      </trkpt>
      <trkpt lat="45.70433" lon="4.59127">
        <ele>699.5</ele>
        <time>2011-06-30T14:31:53Z</time>
      </trkpt>
      <trkpt lat="45.70456" lon="4.59122">
        <ele>702.38</ele>
        <time>2011-06-30T14:32:09Z</time>
      </trkpt>
      <trkpt lat="45.70479" lon="4.59121">
        <ele>705.75</ele>
        <time>2011-06-30T14:32:24Z</time>
      </trkpt>
      <trkpt lat="45.70501" lon="4.59113">
        <ele>707.67</ele>
        <time>2011-06-30T14:32:39Z</time>
      </trkpt>
      <trkpt lat="45.70522" lon="4.59104">
        <ele>710.07</ele>
        <time>2011-06-30T14:32:54Z</time>
      </trkpt>
      <trkpt lat="45.70542" lon="4.59097">
        <ele>712.95</ele>
        <time>2011-06-30T14:33:10Z</time>
      </trkpt>
      <trkpt lat="45.70559" lon="4.59092">
        <ele>715.36</ele>
        <time>2011-06-30T14:33:24Z</time>
      </trkpt>
      <trkpt lat="45.70578" lon="4.59087">
        <ele>718.24</ele>
        <time>2011-06-30T14:33:41Z</time>
      </trkpt>
      <trkpt lat="45.70597" lon="4.59081">
        <ele>721.13</ele>
        <time>2011-06-30T14:33:58Z</time>
      </trkpt>
      <trkpt lat="45.70615" lon="4.59079">
        <ele>724.01</ele>
        <time>2011-06-30T14:34:14Z</time>
      </trkpt>
      <trkpt lat="45.70634" lon="4.59079">
        <ele>726.41</ele>
        <time>2011-06-30T14:34:30Z</time>
      </trkpt>
      <trkpt lat="45.70635" lon="4.59077">
        <ele>726.41</ele>
        <time>2011-06-30T14:34:32Z</time>
      </trkpt>
      <trkpt lat="45.70639" lon="4.59075">
        <ele>726.41</ele>
        <time>2011-06-30T14:34:38Z</time>
      </trkpt>
      <trkpt lat="45.70643" lon="4.59035">
        <ele>725.93</ele>
        <time>2011-06-30T14:34:50Z</time>
      </trkpt>
      <trkpt lat="45.70651" lon="4.58999">
        <ele>727.86</ele>
        <time>2011-06-30T14:35:02Z</time>
      </trkpt>
      <trkpt lat="45.70678" lon="4.58998">
        <ele>729.3</ele>
        <time>2011-06-30T14:35:14Z</time>
      </trkpt>
      <trkpt lat="45.70699" lon="4.59016">
        <ele>725.93</ele>
        <time>2011-06-30T14:35:23Z</time>
      </trkpt>
      <trkpt lat="45.7071" lon="4.59027">
        <ele>723.53</ele>
        <time>2011-06-30T14:35:26Z</time>
      </trkpt>
      <trkpt lat="45.70714" lon="4.5903">
        <ele>723.53</ele>
        <time>2011-06-30T14:35:27Z</time>
      </trkpt>
      <trkpt lat="45.70725" lon="4.59034">
        <ele>720.16</ele>
        <time>2011-06-30T14:35:30Z</time>
      </trkpt>
      <trkpt lat="45.70734" lon="4.59031">
        <ele>717.76</ele>
        <time>2011-06-30T14:35:33Z</time>
      </trkpt>
      <trkpt lat="45.70752" lon="4.59025">
        <ele>714.4</ele>
        <time>2011-06-30T14:35:40Z</time>
      </trkpt>
      <trkpt lat="45.70774" lon="4.59037">
        <ele>711.51</ele>
        <time>2011-06-30T14:35:52Z</time>
      </trkpt>
      <trkpt lat="45.70787" lon="4.5907">
        <ele>711.51</ele>
        <time>2011-06-30T14:36:06Z</time>
      </trkpt>
      <trkpt lat="45.70795" lon="4.59086">
        <ele>711.99</ele>
        <time>2011-06-30T14:36:19Z</time>
      </trkpt>
      <trkpt lat="45.70793" lon="4.59087">
        <ele>711.99</ele>
        <time>2011-06-30T14:36:27Z</time>
      </trkpt>
      <trkpt lat="45.70792" lon="4.59095">
        <ele>712.47</ele>
        <time>2011-06-30T14:36:39Z</time>
      </trkpt>
      <trkpt lat="45.70792" lon="4.59095">
        <ele>712.47</ele>
        <time>2011-06-30T14:37:04Z</time>
      </trkpt>
      <trkpt lat="45.70792" lon="4.59095">
        <ele>712.47</ele>
        <time>2011-06-30T14:37:36Z</time>
      </trkpt>
      <trkpt lat="45.70791" lon="4.59095">
        <ele>712.47</ele>
        <time>2011-06-30T14:38:04Z</time>
      </trkpt>
      <trkpt lat="45.70791" lon="4.59095">
        <ele>712.95</ele>
        <time>2011-06-30T14:38:32Z</time>
      </trkpt>
      <trkpt lat="45.70791" lon="4.59095">
        <ele>712.47</ele>
        <time>2011-06-30T14:39:05Z</time>
      </trkpt>
      <trkpt lat="45.70791" lon="4.59097">
        <ele>711.99</ele>
        <time>2011-06-30T14:39:19Z</time>
      </trkpt>
      <trkpt lat="45.70791" lon="4.59097">
        <ele>711.99</ele>
        <time>2011-06-30T14:39:51Z</time>
      </trkpt>
      <trkpt lat="45.70791" lon="4.59097">
        <ele>711.99</ele>
        <time>2011-06-30T14:40:20Z</time>
      </trkpt>
      <trkpt lat="45.70791" lon="4.59095">
        <ele>711.99</ele>
        <time>2011-06-30T14:40:56Z</time>
      </trkpt>
      <trkpt lat="45.70791" lon="4.59094">
        <ele>711.51</ele>
        <time>2011-06-30T14:41:30Z</time>
      </trkpt>
      <trkpt lat="45.70791" lon="4.59095">
        <ele>711.99</ele>
        <time>2011-06-30T14:42:08Z</time>
      </trkpt>
      <trkpt lat="45.70791" lon="4.59095">
        <ele>711.99</ele>
        <time>2011-06-30T14:42:38Z</time>
      </trkpt>
      <trkpt lat="45.70792" lon="4.59095">
        <ele>711.99</ele>
        <time>2011-06-30T14:43:11Z</time>
      </trkpt>
      <trkpt lat="45.70792" lon="4.59095">
        <ele>711.51</ele>
        <time>2011-06-30T14:43:38Z</time>
      </trkpt>
      <trkpt lat="45.70792" lon="4.59095">
        <ele>711.99</ele>
        <time>2011-06-30T14:44:10Z</time>
      </trkpt>
      <trkpt lat="45.70794" lon="4.59095">
        <ele>711.03</ele>
        <time>2011-06-30T14:44:45Z</time>
      </trkpt>
      <trkpt lat="45.70794" lon="4.59095">
        <ele>711.03</ele>
        <time>2011-06-30T14:45:16Z</time>
      </trkpt>
      <trkpt lat="45.70794" lon="4.59095">
        <ele>711.03</ele>
        <time>2011-06-30T14:45:52Z</time>
      </trkpt>
      <trkpt lat="45.70794" lon="4.59096">
        <ele>711.99</ele>
        <time>2011-06-30T14:46:32Z</time>
      </trkpt>
      <trkpt lat="45.70794" lon="4.59095">
        <ele>711.03</ele>
        <time>2011-06-30T14:47:07Z</time>
      </trkpt>
      <trkpt lat="45.70793" lon="4.59095">
        <ele>710.55</ele>
        <time>2011-06-30T14:47:37Z</time>
      </trkpt>
      <trkpt lat="45.70793" lon="4.59096">
        <ele>711.51</ele>
        <time>2011-06-30T14:48:10Z</time>
      </trkpt>
      <trkpt lat="45.70794" lon="4.59096">
        <ele>711.51</ele>
        <time>2011-06-30T14:48:41Z</time>
      </trkpt>
      <trkpt lat="45.70794" lon="4.59096">
        <ele>711.51</ele>
        <time>2011-06-30T14:49:11Z</time>
      </trkpt>
      <trkpt lat="45.70795" lon="4.59095">
        <ele>711.03</ele>
        <time>2011-06-30T14:49:46Z</time>
      </trkpt>
      <trkpt lat="45.70795" lon="4.59096">
        <ele>711.03</ele>
        <time>2011-06-30T14:50:08Z</time>
      </trkpt>
      <trkpt lat="45.70795" lon="4.59096">
        <ele>711.51</ele>
        <time>2011-06-30T14:50:33Z</time>
      </trkpt>
      <trkpt lat="45.70795" lon="4.59096">
        <ele>711.03</ele>
        <time>2011-06-30T14:51:01Z</time>
      </trkpt>
      <trkpt lat="45.70794" lon="4.59097">
        <ele>711.03</ele>
        <time>2011-06-30T14:51:27Z</time>
      </trkpt>
      <trkpt lat="45.70794" lon="4.59099">
        <ele>711.03</ele>
        <time>2011-06-30T14:51:45Z</time>
      </trkpt>
      <trkpt lat="45.70794" lon="4.59098">
        <ele>710.55</ele>
        <time>2011-06-30T14:52:10Z</time>
      </trkpt>
      <trkpt lat="45.70794" lon="4.59098">
        <ele>711.03</ele>
        <time>2011-06-30T14:52:33Z</time>
      </trkpt>
      <trkpt lat="45.70791" lon="4.59097">
        <ele>710.55</ele>
        <time>2011-06-30T14:52:54Z</time>
      </trkpt>
      <trkpt lat="45.7079" lon="4.59097">
        <ele>711.03</ele>
        <time>2011-06-30T14:53:12Z</time>
      </trkpt>
      <trkpt lat="45.70789" lon="4.59096">
        <ele>711.03</ele>
        <time>2011-06-30T14:53:30Z</time>
      </trkpt>
      <trkpt lat="45.70789" lon="4.59096">
        <ele>710.55</ele>
        <time>2011-06-30T14:53:54Z</time>
      </trkpt>
      <trkpt lat="45.70789" lon="4.59096">
        <ele>711.51</ele>
        <time>2011-06-30T14:54:21Z</time>
      </trkpt>
      <trkpt lat="45.70789" lon="4.59096">
        <ele>711.99</ele>
        <time>2011-06-30T14:54:40Z</time>
      </trkpt>
      <trkpt lat="45.70789" lon="4.59096">
        <ele>711.51</ele>
        <time>2011-06-30T14:55:02Z</time>
      </trkpt>
      <trkpt lat="45.70789" lon="4.59096">
        <ele>711.51</ele>
        <time>2011-06-30T14:55:26Z</time>
      </trkpt>
      <trkpt lat="45.70789" lon="4.59095">
        <ele>711.51</ele>
        <time>2011-06-30T14:55:55Z</time>
      </trkpt>
      <trkpt lat="45.70789" lon="4.59095">
        <ele>711.51</ele>
        <time>2011-06-30T14:56:21Z</time>
      </trkpt>
      <trkpt lat="45.70789" lon="4.59092">
        <ele>711.99</ele>
        <time>2011-06-30T14:56:49Z</time>
      </trkpt>
      <trkpt lat="45.70789" lon="4.59092">
        <ele>712.47</ele>
        <time>2011-06-30T14:57:17Z</time>
      </trkpt>
      <trkpt lat="45.70789" lon="4.59092">
        <ele>711.99</ele>
        <time>2011-06-30T14:57:43Z</time>
      </trkpt>
      <trkpt lat="45.70789" lon="4.59092">
        <ele>711.99</ele>
        <time>2011-06-30T14:58:15Z</time>
      </trkpt>
      <trkpt lat="45.70789" lon="4.59092">
        <ele>711.99</ele>
        <time>2011-06-30T14:58:50Z</time>
      </trkpt>
      <trkpt lat="45.70789" lon="4.59088">
        <ele>712.47</ele>
        <time>2011-06-30T14:59:12Z</time>
      </trkpt>
      <trkpt lat="45.70788" lon="4.59085">
        <ele>712.47</ele>
        <time>2011-06-30T14:59:16Z</time>
      </trkpt>
      <trkpt lat="45.70786" lon="4.59082">
        <ele>712.95</ele>
        <time>2011-06-30T14:59:17Z</time>
      </trkpt>
      <trkpt lat="45.70779" lon="4.59053">
        <ele>711.03</ele>
        <time>2011-06-30T14:59:25Z</time>
      </trkpt>
      <trkpt lat="45.70775" lon="4.59044">
        <ele>711.03</ele>
        <time>2011-06-30T14:59:27Z</time>
      </trkpt>
      <trkpt lat="45.70742" lon="4.58958">
        <ele>710.55</ele>
        <time>2011-06-30T14:59:42Z</time>
      </trkpt>
      <trkpt lat="45.70739" lon="4.58943">
        <ele>710.55</ele>
        <time>2011-06-30T14:59:44Z</time>
      </trkpt>
      <trkpt lat="45.70736" lon="4.58937">
        <ele>710.55</ele>
        <time>2011-06-30T14:59:45Z</time>
      </trkpt>
      <trkpt lat="45.70733" lon="4.58931">
        <ele>710.07</ele>
        <time>2011-06-30T14:59:46Z</time>
      </trkpt>
      <trkpt lat="45.70729" lon="4.58926">
        <ele>710.07</ele>
        <time>2011-06-30T14:59:47Z</time>
      </trkpt>
      <trkpt lat="45.70725" lon="4.58922">
        <ele>709.11</ele>
        <time>2011-06-30T14:59:48Z</time>
      </trkpt>
      <trkpt lat="45.70711" lon="4.58902">
        <ele>709.59</ele>
        <time>2011-06-30T14:59:52Z</time>
      </trkpt>
      <trkpt lat="45.70709" lon="4.58897">
        <ele>710.07</ele>
        <time>2011-06-30T14:59:53Z</time>
      </trkpt>
      <trkpt lat="45.70709" lon="4.58892">
        <ele>710.07</ele>
        <time>2011-06-30T14:59:54Z</time>
      </trkpt>
      <trkpt lat="45.70716" lon="4.58825">
        <ele>712.47</ele>
        <time>2011-06-30T15:00:07Z</time>
      </trkpt>
      <trkpt lat="45.70713" lon="4.58754">
        <ele>715.84</ele>
        <time>2011-06-30T15:00:22Z</time>
      </trkpt>
      <trkpt lat="45.70703" lon="4.58695">
        <ele>719.2</ele>
        <time>2011-06-30T15:00:36Z</time>
      </trkpt>
      <trkpt lat="45.7069" lon="4.58614">
        <ele>722.57</ele>
        <time>2011-06-30T15:00:55Z</time>
      </trkpt>
      <trkpt lat="45.70681" lon="4.58511">
        <ele>724.01</ele>
        <time>2011-06-30T15:01:18Z</time>
      </trkpt>
      <trkpt lat="45.70645" lon="4.58441">
        <ele>725.45</ele>
        <time>2011-06-30T15:01:36Z</time>
      </trkpt>
      <trkpt lat="45.706" lon="4.5841">
        <ele>726.89</ele>
        <time>2011-06-30T15:01:51Z</time>
      </trkpt>
      <trkpt lat="45.7055" lon="4.58389">
        <ele>727.86</ele>
        <time>2011-06-30T15:02:06Z</time>
      </trkpt>
      <trkpt lat="45.70505" lon="4.58402">
        <ele>728.82</ele>
        <time>2011-06-30T15:02:19Z</time>
      </trkpt>
      <trkpt lat="45.70441" lon="4.58419">
        <ele>729.78</ele>
        <time>2011-06-30T15:02:37Z</time>
      </trkpt>
      <trkpt lat="45.70388" lon="4.58404">
        <ele>730.26</ele>
        <time>2011-06-30T15:02:52Z</time>
      </trkpt>
      <trkpt lat="45.70341" lon="4.58353">
        <ele>732.18</ele>
        <time>2011-06-30T15:03:08Z</time>
      </trkpt>
      <trkpt lat="45.70309" lon="4.58281">
        <ele>733.62</ele>
        <time>2011-06-30T15:03:24Z</time>
      </trkpt>
      <trkpt lat="45.70307" lon="4.58217">
        <ele>735.55</ele>
        <time>2011-06-30T15:03:36Z</time>
      </trkpt>
      <trkpt lat="45.70319" lon="4.58136">
        <ele>736.51</ele>
        <time>2011-06-30T15:03:52Z</time>
      </trkpt>
      <trkpt lat="45.70324" lon="4.58064">
        <ele>737.95</ele>
        <time>2011-06-30T15:04:06Z</time>
      </trkpt>
      <trkpt lat="45.70303" lon="4.57996">
        <ele>738.91</ele>
        <time>2011-06-30T15:04:20Z</time>
      </trkpt>
      <trkpt lat="45.70292" lon="4.57927">
        <ele>740.35</ele>
        <time>2011-06-30T15:04:34Z</time>
      </trkpt>
      <trkpt lat="45.70282" lon="4.57855">
        <ele>740.83</ele>
        <time>2011-06-30T15:04:48Z</time>
      </trkpt>
      <trkpt lat="45.70282" lon="4.57783">
        <ele>741.31</ele>
        <time>2011-06-30T15:05:02Z</time>
      </trkpt>
      <trkpt lat="45.70281" lon="4.57692">
        <ele>743.24</ele>
        <time>2011-06-30T15:05:19Z</time>
      </trkpt>
      <trkpt lat="45.70254" lon="4.57618">
        <ele>743.72</ele>
        <time>2011-06-30T15:05:35Z</time>
      </trkpt>
      <trkpt lat="45.70228" lon="4.57542">
        <ele>744.68</ele>
        <time>2011-06-30T15:05:51Z</time>
      </trkpt>
      <trkpt lat="45.70235" lon="4.57467">
        <ele>745.64</ele>
        <time>2011-06-30T15:06:06Z</time>
      </trkpt>
      <trkpt lat="45.70242" lon="4.5738">
        <ele>747.56</ele>
        <time>2011-06-30T15:06:22Z</time>
      </trkpt>
      <trkpt lat="45.70237" lon="4.57284">
        <ele>749.49</ele>
        <time>2011-06-30T15:06:39Z</time>
      </trkpt>
      <trkpt lat="45.70232" lon="4.57201">
        <ele>750.45</ele>
        <time>2011-06-30T15:06:54Z</time>
      </trkpt>
      <trkpt lat="45.7023" lon="4.57149">
        <ele>751.89</ele>
        <time>2011-06-30T15:07:03Z</time>
      </trkpt>
      <trkpt lat="45.70219" lon="4.57048">
        <ele>752.37</ele>
        <time>2011-06-30T15:07:21Z</time>
      </trkpt>
      <trkpt lat="45.70197" lon="4.56976">
        <ele>754.29</ele>
        <time>2011-06-30T15:07:35Z</time>
      </trkpt>
      <trkpt lat="45.70168" lon="4.56914">
        <ele>755.73</ele>
        <time>2011-06-30T15:07:48Z</time>
      </trkpt>
      <trkpt lat="45.70121" lon="4.56914">
        <ele>757.66</ele>
        <time>2011-06-30T15:08:00Z</time>
      </trkpt>
      <trkpt lat="45.70086" lon="4.56959">
        <ele>757.66</ele>
        <time>2011-06-30T15:08:11Z</time>
      </trkpt>
      <trkpt lat="45.70037" lon="4.5702">
        <ele>759.58</ele>
        <time>2011-06-30T15:08:27Z</time>
      </trkpt>
      <trkpt lat="45.69994" lon="4.57028">
        <ele>761.02</ele>
        <time>2011-06-30T15:08:40Z</time>
      </trkpt>
      <trkpt lat="45.69955" lon="4.57058">
        <ele>761.98</ele>
        <time>2011-06-30T15:08:53Z</time>
      </trkpt>
      <trkpt lat="45.69937" lon="4.57124">
        <ele>762.46</ele>
        <time>2011-06-30T15:09:05Z</time>
      </trkpt>
      <trkpt lat="45.69904" lon="4.57178">
        <ele>763.9</ele>
        <time>2011-06-30T15:09:19Z</time>
      </trkpt>
      <trkpt lat="45.69871" lon="4.5722">
        <ele>764.87</ele>
        <time>2011-06-30T15:09:31Z</time>
      </trkpt>
      <trkpt lat="45.69833" lon="4.57271">
        <ele>766.31</ele>
        <time>2011-06-30T15:09:46Z</time>
      </trkpt>
      <trkpt lat="45.69794" lon="4.57297">
        <ele>768.71</ele>
        <time>2011-06-30T15:10:00Z</time>
      </trkpt>
      <trkpt lat="45.6975" lon="4.57315">
        <ele>770.63</ele>
        <time>2011-06-30T15:10:15Z</time>
      </trkpt>
      <trkpt lat="45.69719" lon="4.57353">
        <ele>772.56</ele>
        <time>2011-06-30T15:10:28Z</time>
      </trkpt>
      <trkpt lat="45.69686" lon="4.574">
        <ele>774.48</ele>
        <time>2011-06-30T15:10:42Z</time>
      </trkpt>
      <trkpt lat="45.69641" lon="4.57452">
        <ele>777.36</ele>
        <time>2011-06-30T15:10:59Z</time>
      </trkpt>
      <trkpt lat="45.69593" lon="4.57495">
        <ele>780.25</ele>
        <time>2011-06-30T15:11:15Z</time>
      </trkpt>
      <trkpt lat="45.69534" lon="4.57535">
        <ele>781.69</ele>
        <time>2011-06-30T15:11:34Z</time>
      </trkpt>
      <trkpt lat="45.69481" lon="4.57529">
        <ele>784.09</ele>
        <time>2011-06-30T15:11:50Z</time>
      </trkpt>
      <trkpt lat="45.69441" lon="4.57488">
        <ele>784.09</ele>
        <time>2011-06-30T15:12:05Z</time>
      </trkpt>
      <trkpt lat="45.69396" lon="4.57439">
        <ele>779.77</ele>
        <time>2011-06-30T15:12:17Z</time>
      </trkpt>
      <trkpt lat="45.69387" lon="4.57431">
        <ele>783.13</ele>
        <time>2011-06-30T15:12:19Z</time>
      </trkpt>
      <trkpt lat="45.6937" lon="4.57416">
        <ele>781.69</ele>
        <time>2011-06-30T15:12:23Z</time>
      </trkpt>
      <trkpt lat="45.69365" lon="4.57413">
        <ele>781.21</ele>
        <time>2011-06-30T15:12:24Z</time>
      </trkpt>
      <trkpt lat="45.69305" lon="4.57397">
        <ele>779.77</ele>
        <time>2011-06-30T15:12:34Z</time>
      </trkpt>
      <trkpt lat="45.693" lon="4.57392">
        <ele>779.77</ele>
        <time>2011-06-30T15:12:35Z</time>
      </trkpt>
      <trkpt lat="45.69289" lon="4.57382">
        <ele>779.77</ele>
        <time>2011-06-30T15:12:37Z</time>
      </trkpt>
      <trkpt lat="45.69284" lon="4.57375">
        <ele>780.25</ele>
        <time>2011-06-30T15:12:38Z</time>
      </trkpt>
      <trkpt lat="45.69279" lon="4.57368">
        <ele>779.29</ele>
        <time>2011-06-30T15:12:39Z</time>
      </trkpt>
      <trkpt lat="45.69275" lon="4.5736">
        <ele>779.29</ele>
        <time>2011-06-30T15:12:40Z</time>
      </trkpt>
      <trkpt lat="45.69271" lon="4.57352">
        <ele>779.29</ele>
        <time>2011-06-30T15:12:41Z</time>
      </trkpt>
      <trkpt lat="45.69268" lon="4.57343">
        <ele>779.29</ele>
        <time>2011-06-30T15:12:42Z</time>
      </trkpt>
      <trkpt lat="45.69265" lon="4.57334">
        <ele>778.81</ele>
        <time>2011-06-30T15:12:43Z</time>
      </trkpt>
      <trkpt lat="45.69263" lon="4.57324">
        <ele>778.81</ele>
        <time>2011-06-30T15:12:44Z</time>
      </trkpt>
      <trkpt lat="45.69254" lon="4.57287">
        <ele>779.29</ele>
        <time>2011-06-30T15:12:48Z</time>
      </trkpt>
      <trkpt lat="45.69251" lon="4.57279">
        <ele>778.32</ele>
        <time>2011-06-30T15:12:49Z</time>
      </trkpt>
      <trkpt lat="45.69246" lon="4.57272">
        <ele>777.84</ele>
        <time>2011-06-30T15:12:50Z</time>
      </trkpt>
      <trkpt lat="45.69241" lon="4.57266">
        <ele>777.36</ele>
        <time>2011-06-30T15:12:51Z</time>
      </trkpt>
      <trkpt lat="45.69236" lon="4.57261">
        <ele>776.88</ele>
        <time>2011-06-30T15:12:52Z</time>
      </trkpt>
      <trkpt lat="45.69229" lon="4.57259">
        <ele>776.88</ele>
        <time>2011-06-30T15:12:53Z</time>
      </trkpt>
      <trkpt lat="45.69223" lon="4.5726">
        <ele>776.88</ele>
        <time>2011-06-30T15:12:54Z</time>
      </trkpt>
      <trkpt lat="45.69216" lon="4.57261">
        <ele>776.88</ele>
        <time>2011-06-30T15:12:55Z</time>
      </trkpt>
      <trkpt lat="45.69203" lon="4.57263">
        <ele>776.4</ele>
        <time>2011-06-30T15:12:57Z</time>
      </trkpt>
      <trkpt lat="45.69196" lon="4.57261">
        <ele>775.44</ele>
        <time>2011-06-30T15:12:58Z</time>
      </trkpt>
      <trkpt lat="45.6919" lon="4.57256">
        <ele>774.96</ele>
        <time>2011-06-30T15:12:59Z</time>
      </trkpt>
      <trkpt lat="45.69184" lon="4.5725">
        <ele>775.44</ele>
        <time>2011-06-30T15:13:00Z</time>
      </trkpt>
      <trkpt lat="45.6918" lon="4.57243">
        <ele>774.96</ele>
        <time>2011-06-30T15:13:01Z</time>
      </trkpt>
      <trkpt lat="45.69176" lon="4.57235">
        <ele>774.96</ele>
        <time>2011-06-30T15:13:02Z</time>
      </trkpt>
      <trkpt lat="45.69173" lon="4.57226">
        <ele>774.48</ele>
        <time>2011-06-30T15:13:03Z</time>
      </trkpt>
      <trkpt lat="45.69161" lon="4.57194">
        <ele>774.48</ele>
        <time>2011-06-30T15:13:07Z</time>
      </trkpt>
      <trkpt lat="45.69154" lon="4.57178">
        <ele>774</ele>
        <time>2011-06-30T15:13:09Z</time>
      </trkpt>
      <trkpt lat="45.69149" lon="4.57171">
        <ele>773.52</ele>
        <time>2011-06-30T15:13:10Z</time>
      </trkpt>
      <trkpt lat="45.69143" lon="4.57165">
        <ele>774</ele>
        <time>2011-06-30T15:13:11Z</time>
      </trkpt>
      <trkpt lat="45.69137" lon="4.57161">
        <ele>774</ele>
        <time>2011-06-30T15:13:12Z</time>
      </trkpt>
      <trkpt lat="45.6913" lon="4.57159">
        <ele>773.52</ele>
        <time>2011-06-30T15:13:13Z</time>
      </trkpt>
      <trkpt lat="45.69124" lon="4.5716">
        <ele>773.52</ele>
        <time>2011-06-30T15:13:14Z</time>
      </trkpt>
      <trkpt lat="45.69118" lon="4.57163">
        <ele>773.04</ele>
        <time>2011-06-30T15:13:15Z</time>
      </trkpt>
      <trkpt lat="45.69112" lon="4.57167">
        <ele>773.04</ele>
        <time>2011-06-30T15:13:16Z</time>
      </trkpt>
      <trkpt lat="45.69108" lon="4.57173">
        <ele>773.04</ele>
        <time>2011-06-30T15:13:17Z</time>
      </trkpt>
      <trkpt lat="45.69105" lon="4.57181">
        <ele>772.56</ele>
        <time>2011-06-30T15:13:18Z</time>
      </trkpt>
      <trkpt lat="45.69102" lon="4.57188">
        <ele>772.56</ele>
        <time>2011-06-30T15:13:19Z</time>
      </trkpt>
      <trkpt lat="45.69101" lon="4.57197">
        <ele>772.08</ele>
        <time>2011-06-30T15:13:20Z</time>
      </trkpt>
      <trkpt lat="45.691" lon="4.57205">
        <ele>772.56</ele>
        <time>2011-06-30T15:13:21Z</time>
      </trkpt>
      <trkpt lat="45.691" lon="4.57214">
        <ele>772.56</ele>
        <time>2011-06-30T15:13:22Z</time>
      </trkpt>
      <trkpt lat="45.691" lon="4.57223">
        <ele>772.56</ele>
        <time>2011-06-30T15:13:23Z</time>
      </trkpt>
      <trkpt lat="45.69096" lon="4.57272">
        <ele>771.11</ele>
        <time>2011-06-30T15:13:29Z</time>
      </trkpt>
      <trkpt lat="45.69091" lon="4.57288">
        <ele>770.63</ele>
        <time>2011-06-30T15:13:31Z</time>
      </trkpt>
      <trkpt lat="45.69088" lon="4.57295">
        <ele>770.15</ele>
        <time>2011-06-30T15:13:32Z</time>
      </trkpt>
      <trkpt lat="45.69084" lon="4.573">
        <ele>771.11</ele>
        <time>2011-06-30T15:13:33Z</time>
      </trkpt>
      <trkpt lat="45.6908" lon="4.57304">
        <ele>771.11</ele>
        <time>2011-06-30T15:13:34Z</time>
      </trkpt>
      <trkpt lat="45.69075" lon="4.57308">
        <ele>770.63</ele>
        <time>2011-06-30T15:13:35Z</time>
      </trkpt>
      <trkpt lat="45.69054" lon="4.57327">
        <ele>770.63</ele>
        <time>2011-06-30T15:13:39Z</time>
      </trkpt>
      <trkpt lat="45.69049" lon="4.57333">
        <ele>770.63</ele>
        <time>2011-06-30T15:13:40Z</time>
      </trkpt>
      <trkpt lat="45.69045" lon="4.57339">
        <ele>770.63</ele>
        <time>2011-06-30T15:13:41Z</time>
      </trkpt>
      <trkpt lat="45.69004" lon="4.57409">
        <ele>770.15</ele>
        <time>2011-06-30T15:13:52Z</time>
      </trkpt>
      <trkpt lat="45.69" lon="4.57414">
        <ele>770.15</ele>
        <time>2011-06-30T15:13:53Z</time>
      </trkpt>
      <trkpt lat="45.68995" lon="4.57419">
        <ele>769.67</ele>
        <time>2011-06-30T15:13:54Z</time>
      </trkpt>
      <trkpt lat="45.6899" lon="4.57423">
        <ele>770.63</ele>
        <time>2011-06-30T15:13:55Z</time>
      </trkpt>
      <trkpt lat="45.68985" lon="4.57426">
        <ele>770.15</ele>
        <time>2011-06-30T15:13:56Z</time>
      </trkpt>
      <trkpt lat="45.68979" lon="4.57427">
        <ele>770.15</ele>
        <time>2011-06-30T15:13:57Z</time>
      </trkpt>
      <trkpt lat="45.68973" lon="4.57427">
        <ele>770.63</ele>
        <time>2011-06-30T15:13:58Z</time>
      </trkpt>
      <trkpt lat="45.68968" lon="4.57426">
        <ele>770.15</ele>
        <time>2011-06-30T15:13:59Z</time>
      </trkpt>
      <trkpt lat="45.68962" lon="4.57425">
        <ele>769.67</ele>
        <time>2011-06-30T15:14:00Z</time>
      </trkpt>
      <trkpt lat="45.68957" lon="4.57422">
        <ele>770.15</ele>
        <time>2011-06-30T15:14:01Z</time>
      </trkpt>
      <trkpt lat="45.68952" lon="4.57419">
        <ele>770.63</ele>
        <time>2011-06-30T15:14:02Z</time>
      </trkpt>
      <trkpt lat="45.68936" lon="4.57412">
        <ele>770.63</ele>
        <time>2011-06-30T15:14:05Z</time>
      </trkpt>
      <trkpt lat="45.6893" lon="4.5741">
        <ele>770.15</ele>
        <time>2011-06-30T15:14:06Z</time>
      </trkpt>
      <trkpt lat="45.68924" lon="4.5741">
        <ele>770.15</ele>
        <time>2011-06-30T15:14:07Z</time>
      </trkpt>
      <trkpt lat="45.68919" lon="4.57412">
        <ele>770.15</ele>
        <time>2011-06-30T15:14:08Z</time>
      </trkpt>
      <trkpt lat="45.68913" lon="4.57415">
        <ele>770.15</ele>
        <time>2011-06-30T15:14:09Z</time>
      </trkpt>
      <trkpt lat="45.68908" lon="4.57418">
        <ele>769.67</ele>
        <time>2011-06-30T15:14:10Z</time>
      </trkpt>
      <trkpt lat="45.68903" lon="4.57423">
        <ele>769.19</ele>
        <time>2011-06-30T15:14:11Z</time>
      </trkpt>
      <trkpt lat="45.68899" lon="4.57429">
        <ele>769.67</ele>
        <time>2011-06-30T15:14:12Z</time>
      </trkpt>
      <trkpt lat="45.68895" lon="4.57436">
        <ele>770.15</ele>
        <time>2011-06-30T15:14:13Z</time>
      </trkpt>
      <trkpt lat="45.68891" lon="4.57443">
        <ele>769.67</ele>
        <time>2011-06-30T15:14:14Z</time>
      </trkpt>
      <trkpt lat="45.68888" lon="4.57452">
        <ele>769.19</ele>
        <time>2011-06-30T15:14:15Z</time>
      </trkpt>
      <trkpt lat="45.68887" lon="4.57461">
        <ele>769.19</ele>
        <time>2011-06-30T15:14:16Z</time>
      </trkpt>
      <trkpt lat="45.68886" lon="4.5747">
        <ele>769.19</ele>
        <time>2011-06-30T15:14:17Z</time>
      </trkpt>
      <trkpt lat="45.68886" lon="4.5748">
        <ele>769.19</ele>
        <time>2011-06-30T15:14:18Z</time>
      </trkpt>
      <trkpt lat="45.68886" lon="4.57489">
        <ele>768.71</ele>
        <time>2011-06-30T15:14:19Z</time>
      </trkpt>
      <trkpt lat="45.68886" lon="4.57499">
        <ele>768.71</ele>
        <time>2011-06-30T15:14:20Z</time>
      </trkpt>
      <trkpt lat="45.68884" lon="4.57517">
        <ele>768.71</ele>
        <time>2011-06-30T15:14:22Z</time>
      </trkpt>
      <trkpt lat="45.68883" lon="4.57526">
        <ele>767.75</ele>
        <time>2011-06-30T15:14:23Z</time>
      </trkpt>
      <trkpt lat="45.68877" lon="4.57554">
        <ele>766.79</ele>
        <time>2011-06-30T15:14:26Z</time>
      </trkpt>
      <trkpt lat="45.68876" lon="4.57563">
        <ele>767.75</ele>
        <time>2011-06-30T15:14:27Z</time>
      </trkpt>
      <trkpt lat="45.68871" lon="4.57608">
        <ele>767.27</ele>
        <time>2011-06-30T15:14:32Z</time>
      </trkpt>
      <trkpt lat="45.68869" lon="4.57616">
        <ele>766.79</ele>
        <time>2011-06-30T15:14:33Z</time>
      </trkpt>
      <trkpt lat="45.68865" lon="4.57623">
        <ele>766.79</ele>
        <time>2011-06-30T15:14:34Z</time>
      </trkpt>
      <trkpt lat="45.68861" lon="4.5763">
        <ele>766.79</ele>
        <time>2011-06-30T15:14:35Z</time>
      </trkpt>
      <trkpt lat="45.68856" lon="4.57636">
        <ele>766.79</ele>
        <time>2011-06-30T15:14:36Z</time>
      </trkpt>
      <trkpt lat="45.68851" lon="4.5764">
        <ele>767.75</ele>
        <time>2011-06-30T15:14:37Z</time>
      </trkpt>
      <trkpt lat="45.68846" lon="4.57644">
        <ele>766.31</ele>
        <time>2011-06-30T15:14:38Z</time>
      </trkpt>
      <trkpt lat="45.68798" lon="4.57674">
        <ele>765.83</ele>
        <time>2011-06-30T15:14:47Z</time>
      </trkpt>
      <trkpt lat="45.68792" lon="4.57676">
        <ele>765.83</ele>
        <time>2011-06-30T15:14:48Z</time>
      </trkpt>
      <trkpt lat="45.68787" lon="4.57678">
        <ele>765.83</ele>
        <time>2011-06-30T15:14:49Z</time>
      </trkpt>
      <trkpt lat="45.68782" lon="4.57678">
        <ele>765.83</ele>
        <time>2011-06-30T15:14:50Z</time>
      </trkpt>
      <trkpt lat="45.68776" lon="4.57678">
        <ele>765.83</ele>
        <time>2011-06-30T15:14:51Z</time>
      </trkpt>
      <trkpt lat="45.68705" lon="4.5767">
        <ele>766.79</ele>
        <time>2011-06-30T15:15:05Z</time>
      </trkpt>
      <trkpt lat="45.68639" lon="4.5766">
        <ele>769.67</ele>
        <time>2011-06-30T15:15:21Z</time>
      </trkpt>
      <trkpt lat="45.68594" lon="4.57643">
        <ele>768.23</ele>
        <time>2011-06-30T15:15:37Z</time>
      </trkpt>
      <trkpt lat="45.68593" lon="4.57643">
        <ele>768.71</ele>
        <time>2011-06-30T15:15:50Z</time>
      </trkpt>
      <trkpt lat="45.68592" lon="4.57643">
        <ele>768.71</ele>
        <time>2011-06-30T15:15:55Z</time>
      </trkpt>
      <trkpt lat="45.6859" lon="4.57643">
        <ele>768.71</ele>
        <time>2011-06-30T15:15:56Z</time>
      </trkpt>
      <trkpt lat="45.68548" lon="4.57633">
        <ele>769.67</ele>
        <time>2011-06-30T15:16:06Z</time>
      </trkpt>
      <trkpt lat="45.68459" lon="4.57597">
        <ele>770.15</ele>
        <time>2011-06-30T15:16:26Z</time>
      </trkpt>
      <trkpt lat="45.68439" lon="4.5758">
        <ele>772.08</ele>
        <time>2011-06-30T15:16:31Z</time>
      </trkpt>
      <trkpt lat="45.68436" lon="4.57575">
        <ele>772.56</ele>
        <time>2011-06-30T15:16:32Z</time>
      </trkpt>
      <trkpt lat="45.68379" lon="4.57501">
        <ele>772.08</ele>
        <time>2011-06-30T15:16:47Z</time>
      </trkpt>
      <trkpt lat="45.68301" lon="4.57457">
        <ele>770.15</ele>
        <time>2011-06-30T15:17:00Z</time>
      </trkpt>
      <trkpt lat="45.68295" lon="4.57452">
        <ele>770.63</ele>
        <time>2011-06-30T15:17:01Z</time>
      </trkpt>
      <trkpt lat="45.6829" lon="4.57447">
        <ele>770.63</ele>
        <time>2011-06-30T15:17:02Z</time>
      </trkpt>
      <trkpt lat="45.68285" lon="4.5744">
        <ele>770.15</ele>
        <time>2011-06-30T15:17:03Z</time>
      </trkpt>
      <trkpt lat="45.6828" lon="4.57433">
        <ele>770.15</ele>
        <time>2011-06-30T15:17:04Z</time>
      </trkpt>
      <trkpt lat="45.68276" lon="4.57426">
        <ele>770.15</ele>
        <time>2011-06-30T15:17:05Z</time>
      </trkpt>
      <trkpt lat="45.68272" lon="4.57417">
        <ele>769.67</ele>
        <time>2011-06-30T15:17:06Z</time>
      </trkpt>
      <trkpt lat="45.68269" lon="4.57408">
        <ele>770.15</ele>
        <time>2011-06-30T15:17:07Z</time>
      </trkpt>
      <trkpt lat="45.68212" lon="4.57292">
        <ele>766.79</ele>
        <time>2011-06-30T15:17:20Z</time>
      </trkpt>
      <trkpt lat="45.68197" lon="4.57264">
        <ele>766.79</ele>
        <time>2011-06-30T15:17:23Z</time>
      </trkpt>
      <trkpt lat="45.68194" lon="4.57253">
        <ele>766.79</ele>
        <time>2011-06-30T15:17:24Z</time>
      </trkpt>
      <trkpt lat="45.68191" lon="4.57241">
        <ele>765.83</ele>
        <time>2011-06-30T15:17:25Z</time>
      </trkpt>
      <trkpt lat="45.6819" lon="4.5723">
        <ele>766.31</ele>
        <time>2011-06-30T15:17:26Z</time>
      </trkpt>
      <trkpt lat="45.68189" lon="4.57218">
        <ele>765.83</ele>
        <time>2011-06-30T15:17:27Z</time>
      </trkpt>
      <trkpt lat="45.6819" lon="4.57206">
        <ele>765.83</ele>
        <time>2011-06-30T15:17:28Z</time>
      </trkpt>
      <trkpt lat="45.6819" lon="4.57194">
        <ele>765.83</ele>
        <time>2011-06-30T15:17:29Z</time>
      </trkpt>
      <trkpt lat="45.68216" lon="4.57064">
        <ele>762.94</ele>
        <time>2011-06-30T15:17:42Z</time>
      </trkpt>
      <trkpt lat="45.68216" lon="4.56977">
        <ele>759.1</ele>
        <time>2011-06-30T15:17:50Z</time>
      </trkpt>
      <trkpt lat="45.68208" lon="4.56902">
        <ele>757.18</ele>
        <time>2011-06-30T15:17:56Z</time>
      </trkpt>
      <trkpt lat="45.68205" lon="4.5689">
        <ele>755.73</ele>
        <time>2011-06-30T15:17:57Z</time>
      </trkpt>
      <trkpt lat="45.68199" lon="4.5688">
        <ele>756.21</ele>
        <time>2011-06-30T15:17:58Z</time>
      </trkpt>
      <trkpt lat="45.68192" lon="4.56874">
        <ele>755.25</ele>
        <time>2011-06-30T15:17:59Z</time>
      </trkpt>
      <trkpt lat="45.68184" lon="4.56871">
        <ele>755.25</ele>
        <time>2011-06-30T15:18:00Z</time>
      </trkpt>
      <trkpt lat="45.68176" lon="4.56873">
        <ele>754.77</ele>
        <time>2011-06-30T15:18:01Z</time>
      </trkpt>
      <trkpt lat="45.68167" lon="4.56877">
        <ele>754.29</ele>
        <time>2011-06-30T15:18:02Z</time>
      </trkpt>
      <trkpt lat="45.68159" lon="4.56883">
        <ele>754.77</ele>
        <time>2011-06-30T15:18:03Z</time>
      </trkpt>
      <trkpt lat="45.68151" lon="4.5689">
        <ele>753.81</ele>
        <time>2011-06-30T15:18:04Z</time>
      </trkpt>
      <trkpt lat="45.68135" lon="4.56903">
        <ele>753.33</ele>
        <time>2011-06-30T15:18:06Z</time>
      </trkpt>
      <trkpt lat="45.68126" lon="4.56907">
        <ele>752.85</ele>
        <time>2011-06-30T15:18:07Z</time>
      </trkpt>
      <trkpt lat="45.68117" lon="4.56908">
        <ele>751.89</ele>
        <time>2011-06-30T15:18:08Z</time>
      </trkpt>
      <trkpt lat="45.68108" lon="4.56907">
        <ele>752.37</ele>
        <time>2011-06-30T15:18:09Z</time>
      </trkpt>
      <trkpt lat="45.681" lon="4.56905">
        <ele>752.37</ele>
        <time>2011-06-30T15:18:10Z</time>
      </trkpt>
      <trkpt lat="45.6809" lon="4.56902">
        <ele>751.41</ele>
        <time>2011-06-30T15:18:11Z</time>
      </trkpt>
      <trkpt lat="45.68073" lon="4.56895">
        <ele>750.93</ele>
        <time>2011-06-30T15:18:13Z</time>
      </trkpt>
      <trkpt lat="45.68045" lon="4.56887">
        <ele>749.49</ele>
        <time>2011-06-30T15:18:16Z</time>
      </trkpt>
      <trkpt lat="45.68036" lon="4.56887">
        <ele>748.52</ele>
        <time>2011-06-30T15:18:17Z</time>
      </trkpt>
      <trkpt lat="45.68027" lon="4.56887">
        <ele>749</ele>
        <time>2011-06-30T15:18:18Z</time>
      </trkpt>
      <trkpt lat="45.67971" lon="4.56901">
        <ele>745.64</ele>
        <time>2011-06-30T15:18:24Z</time>
      </trkpt>
      <trkpt lat="45.67921" lon="4.5691">
        <ele>743.72</ele>
        <time>2011-06-30T15:18:29Z</time>
      </trkpt>
      <trkpt lat="45.67911" lon="4.56907">
        <ele>743.72</ele>
        <time>2011-06-30T15:18:30Z</time>
      </trkpt>
      <trkpt lat="45.67902" lon="4.56902">
        <ele>743.24</ele>
        <time>2011-06-30T15:18:31Z</time>
      </trkpt>
      <trkpt lat="45.67893" lon="4.56896">
        <ele>742.76</ele>
        <time>2011-06-30T15:18:32Z</time>
      </trkpt>
      <trkpt lat="45.67884" lon="4.56889">
        <ele>742.76</ele>
        <time>2011-06-30T15:18:33Z</time>
      </trkpt>
      <trkpt lat="45.67823" lon="4.56836">
        <ele>739.39</ele>
        <time>2011-06-30T15:18:40Z</time>
      </trkpt>
      <trkpt lat="45.67806" lon="4.56825">
        <ele>737.47</ele>
        <time>2011-06-30T15:18:42Z</time>
      </trkpt>
      <trkpt lat="45.67797" lon="4.56823">
        <ele>737.47</ele>
        <time>2011-06-30T15:18:43Z</time>
      </trkpt>
      <trkpt lat="45.67691" lon="4.5683">
        <ele>734.58</ele>
        <time>2011-06-30T15:18:55Z</time>
      </trkpt>
      <trkpt lat="45.67666" lon="4.56826">
        <ele>734.1</ele>
        <time>2011-06-30T15:18:58Z</time>
      </trkpt>
      <trkpt lat="45.67657" lon="4.56823">
        <ele>734.1</ele>
        <time>2011-06-30T15:18:59Z</time>
      </trkpt>
      <trkpt lat="45.67649" lon="4.56819">
        <ele>733.14</ele>
        <time>2011-06-30T15:19:00Z</time>
      </trkpt>
      <trkpt lat="45.6755" lon="4.56781">
        <ele>729.78</ele>
        <time>2011-06-30T15:19:12Z</time>
      </trkpt>
      <trkpt lat="45.67542" lon="4.5678">
        <ele>729.3</ele>
        <time>2011-06-30T15:19:13Z</time>
      </trkpt>
      <trkpt lat="45.675" lon="4.56781">
        <ele>728.34</ele>
        <time>2011-06-30T15:19:18Z</time>
      </trkpt>
      <trkpt lat="45.67438" lon="4.56783">
        <ele>725.93</ele>
        <time>2011-06-30T15:19:26Z</time>
      </trkpt>
      <trkpt lat="45.6743" lon="4.56779">
        <ele>725.93</ele>
        <time>2011-06-30T15:19:27Z</time>
      </trkpt>
      <trkpt lat="45.67424" lon="4.56775">
        <ele>725.45</ele>
        <time>2011-06-30T15:19:28Z</time>
      </trkpt>
      <trkpt lat="45.67417" lon="4.56769">
        <ele>725.45</ele>
        <time>2011-06-30T15:19:29Z</time>
      </trkpt>
      <trkpt lat="45.67412" lon="4.56762">
        <ele>725.45</ele>
        <time>2011-06-30T15:19:30Z</time>
      </trkpt>
      <trkpt lat="45.67407" lon="4.56755">
        <ele>724.97</ele>
        <time>2011-06-30T15:19:31Z</time>
      </trkpt>
      <trkpt lat="45.67396" lon="4.56742">
        <ele>724.97</ele>
        <time>2011-06-30T15:19:33Z</time>
      </trkpt>
      <trkpt lat="45.6739" lon="4.56737">
        <ele>724.01</ele>
        <time>2011-06-30T15:19:34Z</time>
      </trkpt>
      <trkpt lat="45.67384" lon="4.56732">
        <ele>724.01</ele>
        <time>2011-06-30T15:19:35Z</time>
      </trkpt>
      <trkpt lat="45.67316" lon="4.56701">
        <ele>722.57</ele>
        <time>2011-06-30T15:19:46Z</time>
      </trkpt>
      <trkpt lat="45.6731" lon="4.56701">
        <ele>721.61</ele>
        <time>2011-06-30T15:19:47Z</time>
      </trkpt>
      <trkpt lat="45.67305" lon="4.56701">
        <ele>722.09</ele>
        <time>2011-06-30T15:19:48Z</time>
      </trkpt>
      <trkpt lat="45.67299" lon="4.56702">
        <ele>722.57</ele>
        <time>2011-06-30T15:19:49Z</time>
      </trkpt>
      <trkpt lat="45.67293" lon="4.56703">
        <ele>722.09</ele>
        <time>2011-06-30T15:19:50Z</time>
      </trkpt>
      <trkpt lat="45.67287" lon="4.56705">
        <ele>721.61</ele>
        <time>2011-06-30T15:19:51Z</time>
      </trkpt>
      <trkpt lat="45.67282" lon="4.56708">
        <ele>722.09</ele>
        <time>2011-06-30T15:19:52Z</time>
      </trkpt>
      <trkpt lat="45.67277" lon="4.5671">
        <ele>721.61</ele>
        <time>2011-06-30T15:19:53Z</time>
      </trkpt>
      <trkpt lat="45.67227" lon="4.5673">
        <ele>723.53</ele>
        <time>2011-06-30T15:20:06Z</time>
      </trkpt>
      <trkpt lat="45.67169" lon="4.56754">
        <ele>725.45</ele>
        <time>2011-06-30T15:20:22Z</time>
      </trkpt>
      <trkpt lat="45.67131" lon="4.56805">
        <ele>726.41</ele>
        <time>2011-06-30T15:20:35Z</time>
      </trkpt>
      <trkpt lat="45.67086" lon="4.56849">
        <ele>723.53</ele>
        <time>2011-06-30T15:20:44Z</time>
      </trkpt>
      <trkpt lat="45.67048" lon="4.56889">
        <ele>720.65</ele>
        <time>2011-06-30T15:20:50Z</time>
      </trkpt>
      <trkpt lat="45.67042" lon="4.56898">
        <ele>721.61</ele>
        <time>2011-06-30T15:20:51Z</time>
      </trkpt>
      <trkpt lat="45.67038" lon="4.56908">
        <ele>721.13</ele>
        <time>2011-06-30T15:20:52Z</time>
      </trkpt>
      <trkpt lat="45.67034" lon="4.56917">
        <ele>721.13</ele>
        <time>2011-06-30T15:20:53Z</time>
      </trkpt>
      <trkpt lat="45.6703" lon="4.56927">
        <ele>720.16</ele>
        <time>2011-06-30T15:20:54Z</time>
      </trkpt>
      <trkpt lat="45.67021" lon="4.56964">
        <ele>718.72</ele>
        <time>2011-06-30T15:20:59Z</time>
      </trkpt>
      <trkpt lat="45.67012" lon="4.56988">
        <ele>717.28</ele>
        <time>2011-06-30T15:21:03Z</time>
      </trkpt>
      <trkpt lat="45.6701" lon="4.56993">
        <ele>717.76</ele>
        <time>2011-06-30T15:21:04Z</time>
      </trkpt>
      <trkpt lat="45.67007" lon="4.56999">
        <ele>717.76</ele>
        <time>2011-06-30T15:21:05Z</time>
      </trkpt>
      <trkpt lat="45.67003" lon="4.57004">
        <ele>717.76</ele>
        <time>2011-06-30T15:21:06Z</time>
      </trkpt>
      <trkpt lat="45.66999" lon="4.57009">
        <ele>716.8</ele>
        <time>2011-06-30T15:21:07Z</time>
      </trkpt>
      <trkpt lat="45.66995" lon="4.57014">
        <ele>717.28</ele>
        <time>2011-06-30T15:21:08Z</time>
      </trkpt>
      <trkpt lat="45.66991" lon="4.57019">
        <ele>717.76</ele>
        <time>2011-06-30T15:21:09Z</time>
      </trkpt>
      <trkpt lat="45.66989" lon="4.57025">
        <ele>717.28</ele>
        <time>2011-06-30T15:21:10Z</time>
      </trkpt>
      <trkpt lat="45.66987" lon="4.57031">
        <ele>717.28</ele>
        <time>2011-06-30T15:21:11Z</time>
      </trkpt>
      <trkpt lat="45.66985" lon="4.57037">
        <ele>718.24</ele>
        <time>2011-06-30T15:21:12Z</time>
      </trkpt>
      <trkpt lat="45.66983" lon="4.57044">
        <ele>716.8</ele>
        <time>2011-06-30T15:21:13Z</time>
      </trkpt>
      <trkpt lat="45.66981" lon="4.57051">
        <ele>716.8</ele>
        <time>2011-06-30T15:21:14Z</time>
      </trkpt>
      <trkpt lat="45.6698" lon="4.57059">
        <ele>716.8</ele>
        <time>2011-06-30T15:21:15Z</time>
      </trkpt>
      <trkpt lat="45.6698" lon="4.57066">
        <ele>716.8</ele>
        <time>2011-06-30T15:21:16Z</time>
      </trkpt>
      <trkpt lat="45.6698" lon="4.57074">
        <ele>718.24</ele>
        <time>2011-06-30T15:21:17Z</time>
      </trkpt>
      <trkpt lat="45.6698" lon="4.57082">
        <ele>716.8</ele>
        <time>2011-06-30T15:21:18Z</time>
      </trkpt>
      <trkpt lat="45.6698" lon="4.57098">
        <ele>715.36</ele>
        <time>2011-06-30T15:21:20Z</time>
      </trkpt>
      <trkpt lat="45.6698" lon="4.57154">
        <ele>715.84</ele>
        <time>2011-06-30T15:21:28Z</time>
      </trkpt>
      <trkpt lat="45.6698" lon="4.5716">
        <ele>714.88</ele>
        <time>2011-06-30T15:21:29Z</time>
      </trkpt>
      <trkpt lat="45.6698" lon="4.57168">
        <ele>715.36</ele>
        <time>2011-06-30T15:21:36Z</time>
      </trkpt>
      <trkpt lat="45.66978" lon="4.57168">
        <ele>714.88</ele>
        <time>2011-06-30T15:21:42Z</time>
      </trkpt>
      <trkpt lat="45.66977" lon="4.57168">
        <ele>715.36</ele>
        <time>2011-06-30T15:21:43Z</time>
      </trkpt>
      <trkpt lat="45.66975" lon="4.57167">
        <ele>715.36</ele>
        <time>2011-06-30T15:21:44Z</time>
      </trkpt>
      <trkpt lat="45.66974" lon="4.57166">
        <ele>714.88</ele>
        <time>2011-06-30T15:21:45Z</time>
      </trkpt>
      <trkpt lat="45.66971" lon="4.57165">
        <ele>715.36</ele>
        <time>2011-06-30T15:21:46Z</time>
      </trkpt>
      <trkpt lat="45.6695" lon="4.57172">
        <ele>717.76</ele>
        <time>2011-06-30T15:21:58Z</time>
      </trkpt>
      <trkpt lat="45.66942" lon="4.57182">
        <ele>719.2</ele>
        <time>2011-06-30T15:22:06Z</time>
      </trkpt>
      <trkpt lat="45.66942" lon="4.57184">
        <ele>719.2</ele>
        <time>2011-06-30T15:22:07Z</time>
      </trkpt>
      <trkpt lat="45.66941" lon="4.57186">
        <ele>719.2</ele>
        <time>2011-06-30T15:22:08Z</time>
      </trkpt>
      <trkpt lat="45.66931" lon="4.57218">
        <ele>721.13</ele>
        <time>2011-06-30T15:22:24Z</time>
      </trkpt>
      <trkpt lat="45.66917" lon="4.5725">
        <ele>723.05</ele>
        <time>2011-06-30T15:22:39Z</time>
      </trkpt>
      <trkpt lat="45.66908" lon="4.57294">
        <ele>723.53</ele>
        <time>2011-06-30T15:22:51Z</time>
      </trkpt>
      <trkpt lat="45.66878" lon="4.57303">
        <ele>725.45</ele>
        <time>2011-06-30T15:23:04Z</time>
      </trkpt>
      <trkpt lat="45.66834" lon="4.57283">
        <ele>724.49</ele>
        <time>2011-06-30T15:23:15Z</time>
      </trkpt>
      <trkpt lat="45.66829" lon="4.57284">
        <ele>724.01</ele>
        <time>2011-06-30T15:23:16Z</time>
      </trkpt>
      <trkpt lat="45.66824" lon="4.57285">
        <ele>723.53</ele>
        <time>2011-06-30T15:23:17Z</time>
      </trkpt>
      <trkpt lat="45.66797" lon="4.57295">
        <ele>724.97</ele>
        <time>2011-06-30T15:23:24Z</time>
      </trkpt>
      <trkpt lat="45.66793" lon="4.57297">
        <ele>724.97</ele>
        <time>2011-06-30T15:23:25Z</time>
      </trkpt>
      <trkpt lat="45.66774" lon="4.57309">
        <ele>724.01</ele>
        <time>2011-06-30T15:23:29Z</time>
      </trkpt>
      <trkpt lat="45.66769" lon="4.5731">
        <ele>724.01</ele>
        <time>2011-06-30T15:23:30Z</time>
      </trkpt>
      <trkpt lat="45.66764" lon="4.5731">
        <ele>723.53</ele>
        <time>2011-06-30T15:23:31Z</time>
      </trkpt>
      <trkpt lat="45.66706" lon="4.57302">
        <ele>724.49</ele>
        <time>2011-06-30T15:23:45Z</time>
      </trkpt>
      <trkpt lat="45.66674" lon="4.57299">
        <ele>722.57</ele>
        <time>2011-06-30T15:23:55Z</time>
      </trkpt>
      <trkpt lat="45.66626" lon="4.57299">
        <ele>719.2</ele>
        <time>2011-06-30T15:24:02Z</time>
      </trkpt>
      <trkpt lat="45.66618" lon="4.57302">
        <ele>718.72</ele>
        <time>2011-06-30T15:24:03Z</time>
      </trkpt>
      <trkpt lat="45.6661" lon="4.57307">
        <ele>717.28</ele>
        <time>2011-06-30T15:24:04Z</time>
      </trkpt>
      <trkpt lat="45.66603" lon="4.57312">
        <ele>717.28</ele>
        <time>2011-06-30T15:24:05Z</time>
      </trkpt>
      <trkpt lat="45.66596" lon="4.57315">
        <ele>717.76</ele>
        <time>2011-06-30T15:24:06Z</time>
      </trkpt>
      <trkpt lat="45.6659" lon="4.57314">
        <ele>717.28</ele>
        <time>2011-06-30T15:24:07Z</time>
      </trkpt>
      <trkpt lat="45.66585" lon="4.57312">
        <ele>717.76</ele>
        <time>2011-06-30T15:24:08Z</time>
      </trkpt>
      <trkpt lat="45.66581" lon="4.5731">
        <ele>718.72</ele>
        <time>2011-06-30T15:24:09Z</time>
      </trkpt>
      <trkpt lat="45.66578" lon="4.57308">
        <ele>719.2</ele>
        <time>2011-06-30T15:24:10Z</time>
      </trkpt>
      <trkpt lat="45.66576" lon="4.57307">
        <ele>719.68</ele>
        <time>2011-06-30T15:24:11Z</time>
      </trkpt>
      <trkpt lat="45.66574" lon="4.57305">
        <ele>720.16</ele>
        <time>2011-06-30T15:24:12Z</time>
      </trkpt>
      <trkpt lat="45.66572" lon="4.57304">
        <ele>720.16</ele>
        <time>2011-06-30T15:24:13Z</time>
      </trkpt>
      <trkpt lat="45.66561" lon="4.57287">
        <ele>724.01</ele>
        <time>2011-06-30T15:24:23Z</time>
      </trkpt>
      <trkpt lat="45.66548" lon="4.57271">
        <ele>727.37</ele>
        <time>2011-06-30T15:24:34Z</time>
      </trkpt>
      <trkpt lat="45.66543" lon="4.57263">
        <ele>728.82</ele>
        <time>2011-06-30T15:24:39Z</time>
      </trkpt>
      <trkpt lat="45.66537" lon="4.57253">
        <ele>730.74</ele>
        <time>2011-06-30T15:24:45Z</time>
      </trkpt>
      <trkpt lat="45.66536" lon="4.57252">
        <ele>730.26</ele>
        <time>2011-06-30T15:24:46Z</time>
      </trkpt>
      <trkpt lat="45.66518" lon="4.5722">
        <ele>732.66</ele>
        <time>2011-06-30T15:25:03Z</time>
      </trkpt>
      <trkpt lat="45.66506" lon="4.5717">
        <ele>733.62</ele>
        <time>2011-06-30T15:25:18Z</time>
      </trkpt>
      <trkpt lat="45.66501" lon="4.57091">
        <ele>734.58</ele>
        <time>2011-06-30T15:25:35Z</time>
      </trkpt>
      <trkpt lat="45.66489" lon="4.57015">
        <ele>734.1</ele>
        <time>2011-06-30T15:25:50Z</time>
      </trkpt>
      <trkpt lat="45.66462" lon="4.56973">
        <ele>735.07</ele>
        <time>2011-06-30T15:26:01Z</time>
      </trkpt>
      <trkpt lat="45.66441" lon="4.56935">
        <ele>737.95</ele>
        <time>2011-06-30T15:26:11Z</time>
      </trkpt>
      <trkpt lat="45.66433" lon="4.56912">
        <ele>738.43</ele>
        <time>2011-06-30T15:26:16Z</time>
      </trkpt>
      <trkpt lat="45.66432" lon="4.56905">
        <ele>737.95</ele>
        <time>2011-06-30T15:26:17Z</time>
      </trkpt>
      <trkpt lat="45.66429" lon="4.56884">
        <ele>737.47</ele>
        <time>2011-06-30T15:26:20Z</time>
      </trkpt>
      <trkpt lat="45.66423" lon="4.56852">
        <ele>736.99</ele>
        <time>2011-06-30T15:26:24Z</time>
      </trkpt>
      <trkpt lat="45.66422" lon="4.56844">
        <ele>736.51</ele>
        <time>2011-06-30T15:26:25Z</time>
      </trkpt>
      <trkpt lat="45.66422" lon="4.56835">
        <ele>736.51</ele>
        <time>2011-06-30T15:26:26Z</time>
      </trkpt>
      <trkpt lat="45.66415" lon="4.56765">
        <ele>735.07</ele>
        <time>2011-06-30T15:26:34Z</time>
      </trkpt>
      <trkpt lat="45.66412" lon="4.56756">
        <ele>734.58</ele>
        <time>2011-06-30T15:26:35Z</time>
      </trkpt>
      <trkpt lat="45.66411" lon="4.56746">
        <ele>733.62</ele>
        <time>2011-06-30T15:26:36Z</time>
      </trkpt>
      <trkpt lat="45.6641" lon="4.56734">
        <ele>733.14</ele>
        <time>2011-06-30T15:26:37Z</time>
      </trkpt>
      <trkpt lat="45.6641" lon="4.56722">
        <ele>733.62</ele>
        <time>2011-06-30T15:26:38Z</time>
      </trkpt>
      <trkpt lat="45.66411" lon="4.56676">
        <ele>732.18</ele>
        <time>2011-06-30T15:26:42Z</time>
      </trkpt>
      <trkpt lat="45.6641" lon="4.56666">
        <ele>731.7</ele>
        <time>2011-06-30T15:26:43Z</time>
      </trkpt>
      <trkpt lat="45.66409" lon="4.56656">
        <ele>731.7</ele>
        <time>2011-06-30T15:26:44Z</time>
      </trkpt>
      <trkpt lat="45.66407" lon="4.56647">
        <ele>731.7</ele>
        <time>2011-06-30T15:26:45Z</time>
      </trkpt>
      <trkpt lat="45.66404" lon="4.56639">
        <ele>731.7</ele>
        <time>2011-06-30T15:26:46Z</time>
      </trkpt>
      <trkpt lat="45.66364" lon="4.56533">
        <ele>732.18</ele>
        <time>2011-06-30T15:27:00Z</time>
      </trkpt>
      <trkpt lat="45.66359" lon="4.56519">
        <ele>732.18</ele>
        <time>2011-06-30T15:27:02Z</time>
      </trkpt>
      <trkpt lat="45.66346" lon="4.56478">
        <ele>733.62</ele>
        <time>2011-06-30T15:27:08Z</time>
      </trkpt>
      <trkpt lat="45.66336" lon="4.56436">
        <ele>734.1</ele>
        <time>2011-06-30T15:27:14Z</time>
      </trkpt>
      <trkpt lat="45.66302" lon="4.56339">
        <ele>734.58</ele>
        <time>2011-06-30T15:27:29Z</time>
      </trkpt>
      <trkpt lat="45.66299" lon="4.56317">
        <ele>735.55</ele>
        <time>2011-06-30T15:27:33Z</time>
      </trkpt>
      <trkpt lat="45.66299" lon="4.56311">
        <ele>736.51</ele>
        <time>2011-06-30T15:27:34Z</time>
      </trkpt>
      <trkpt lat="45.663" lon="4.56306">
        <ele>736.99</ele>
        <time>2011-06-30T15:27:35Z</time>
      </trkpt>
      <trkpt lat="45.66302" lon="4.56302">
        <ele>736.99</ele>
        <time>2011-06-30T15:27:36Z</time>
      </trkpt>
      <trkpt lat="45.66304" lon="4.56299">
        <ele>737.47</ele>
        <time>2011-06-30T15:27:37Z</time>
      </trkpt>
      <trkpt lat="45.66306" lon="4.56297">
        <ele>737.47</ele>
        <time>2011-06-30T15:27:38Z</time>
      </trkpt>
      <trkpt lat="45.6631" lon="4.56284">
        <ele>737.47</ele>
        <time>2011-06-30T15:27:42Z</time>
      </trkpt>
      <trkpt lat="45.66309" lon="4.56281">
        <ele>737.47</ele>
        <time>2011-06-30T15:27:43Z</time>
      </trkpt>
      <trkpt lat="45.66306" lon="4.56279">
        <ele>737.95</ele>
        <time>2011-06-30T15:27:44Z</time>
      </trkpt>
      <trkpt lat="45.66303" lon="4.56279">
        <ele>736.99</ele>
        <time>2011-06-30T15:27:45Z</time>
      </trkpt>
      <trkpt lat="45.663" lon="4.56281">
        <ele>736.99</ele>
        <time>2011-06-30T15:27:46Z</time>
      </trkpt>
      <trkpt lat="45.66298" lon="4.56284">
        <ele>737.47</ele>
        <time>2011-06-30T15:27:47Z</time>
      </trkpt>
      <trkpt lat="45.66261" lon="4.56297">
        <ele>737.47</ele>
        <time>2011-06-30T15:27:59Z</time>
      </trkpt>
      <trkpt lat="45.66222" lon="4.56299">
        <ele>736.51</ele>
        <time>2011-06-30T15:28:07Z</time>
      </trkpt>
      <trkpt lat="45.6613" lon="4.56324">
        <ele>734.1</ele>
        <time>2011-06-30T15:28:23Z</time>
      </trkpt>
      <trkpt lat="45.66063" lon="4.56355">
        <ele>734.1</ele>
        <time>2011-06-30T15:28:39Z</time>
      </trkpt>
      <trkpt lat="45.66031" lon="4.56374">
        <ele>734.58</ele>
        <time>2011-06-30T15:28:47Z</time>
      </trkpt>
      <trkpt lat="45.66022" lon="4.56378">
        <ele>734.58</ele>
        <time>2011-06-30T15:28:49Z</time>
      </trkpt>
      <trkpt lat="45.66018" lon="4.56381">
        <ele>734.1</ele>
        <time>2011-06-30T15:28:50Z</time>
      </trkpt>
      <trkpt lat="45.66014" lon="4.56383">
        <ele>734.1</ele>
        <time>2011-06-30T15:28:51Z</time>
      </trkpt>
      <trkpt lat="45.65954" lon="4.56399">
        <ele>730.74</ele>
        <time>2011-06-30T15:29:01Z</time>
      </trkpt>
      <trkpt lat="45.65916" lon="4.56401">
        <ele>727.37</ele>
        <time>2011-06-30T15:29:08Z</time>
      </trkpt>
      <trkpt lat="45.659" lon="4.56399">
        <ele>726.41</ele>
        <time>2011-06-30T15:29:12Z</time>
      </trkpt>
      <trkpt lat="45.65893" lon="4.56394">
        <ele>726.89</ele>
        <time>2011-06-30T15:29:14Z</time>
      </trkpt>
      <trkpt lat="45.65888" lon="4.56395">
        <ele>726.41</ele>
        <time>2011-06-30T15:29:15Z</time>
      </trkpt>
      <trkpt lat="45.65884" lon="4.56398">
        <ele>726.41</ele>
        <time>2011-06-30T15:29:16Z</time>
      </trkpt>
      <trkpt lat="45.65882" lon="4.56404">
        <ele>726.89</ele>
        <time>2011-06-30T15:29:17Z</time>
      </trkpt>
      <trkpt lat="45.65881" lon="4.5641">
        <ele>726.89</ele>
        <time>2011-06-30T15:29:18Z</time>
      </trkpt>
      <trkpt lat="45.65882" lon="4.56417">
        <ele>726.41</ele>
        <time>2011-06-30T15:29:19Z</time>
      </trkpt>
      <trkpt lat="45.65881" lon="4.56423">
        <ele>726.89</ele>
        <time>2011-06-30T15:29:20Z</time>
      </trkpt>
      <trkpt lat="45.6588" lon="4.5643">
        <ele>726.41</ele>
        <time>2011-06-30T15:29:21Z</time>
      </trkpt>
      <trkpt lat="45.65876" lon="4.56443">
        <ele>725.93</ele>
        <time>2011-06-30T15:29:23Z</time>
      </trkpt>
      <trkpt lat="45.65838" lon="4.56537">
        <ele>726.89</ele>
        <time>2011-06-30T15:29:39Z</time>
      </trkpt>
      <trkpt lat="45.65789" lon="4.56616">
        <ele>729.3</ele>
        <time>2011-06-30T15:29:55Z</time>
      </trkpt>
      <trkpt lat="45.65786" lon="4.5662">
        <ele>729.78</ele>
        <time>2011-06-30T15:29:56Z</time>
      </trkpt>
      <trkpt lat="45.65778" lon="4.56628">
        <ele>728.82</ele>
        <time>2011-06-30T15:29:58Z</time>
      </trkpt>
      <trkpt lat="45.65763" lon="4.56638">
        <ele>729.3</ele>
        <time>2011-06-30T15:30:02Z</time>
      </trkpt>
      <trkpt lat="45.65759" lon="4.5664">
        <ele>729.78</ele>
        <time>2011-06-30T15:30:03Z</time>
      </trkpt>
      <trkpt lat="45.65754" lon="4.56641">
        <ele>729.78</ele>
        <time>2011-06-30T15:30:04Z</time>
      </trkpt>
      <trkpt lat="45.65746" lon="4.56642">
        <ele>730.26</ele>
        <time>2011-06-30T15:30:06Z</time>
      </trkpt>
      <trkpt lat="45.65741" lon="4.56641">
        <ele>730.26</ele>
        <time>2011-06-30T15:30:07Z</time>
      </trkpt>
      <trkpt lat="45.65729" lon="4.56638">
        <ele>731.22</ele>
        <time>2011-06-30T15:30:10Z</time>
      </trkpt>
      <trkpt lat="45.65725" lon="4.56636">
        <ele>730.74</ele>
        <time>2011-06-30T15:30:11Z</time>
      </trkpt>
      <trkpt lat="45.65721" lon="4.56634">
        <ele>731.22</ele>
        <time>2011-06-30T15:30:12Z</time>
      </trkpt>
      <trkpt lat="45.65717" lon="4.56631">
        <ele>731.22</ele>
        <time>2011-06-30T15:30:13Z</time>
      </trkpt>
      <trkpt lat="45.65713" lon="4.56628">
        <ele>731.7</ele>
        <time>2011-06-30T15:30:14Z</time>
      </trkpt>
      <trkpt lat="45.65709" lon="4.56625">
        <ele>731.7</ele>
        <time>2011-06-30T15:30:15Z</time>
      </trkpt>
      <trkpt lat="45.65697" lon="4.56619">
        <ele>731.7</ele>
        <time>2011-06-30T15:30:18Z</time>
      </trkpt>
      <trkpt lat="45.65693" lon="4.56618">
        <ele>732.18</ele>
        <time>2011-06-30T15:30:19Z</time>
      </trkpt>
      <trkpt lat="45.65689" lon="4.56617">
        <ele>732.18</ele>
        <time>2011-06-30T15:30:20Z</time>
      </trkpt>
      <trkpt lat="45.65684" lon="4.56617">
        <ele>732.66</ele>
        <time>2011-06-30T15:30:21Z</time>
      </trkpt>
      <trkpt lat="45.6568" lon="4.56618">
        <ele>732.66</ele>
        <time>2011-06-30T15:30:22Z</time>
      </trkpt>
      <trkpt lat="45.65676" lon="4.56619">
        <ele>732.66</ele>
        <time>2011-06-30T15:30:23Z</time>
      </trkpt>
      <trkpt lat="45.65672" lon="4.56622">
        <ele>732.18</ele>
        <time>2011-06-30T15:30:24Z</time>
      </trkpt>
      <trkpt lat="45.65668" lon="4.56625">
        <ele>732.66</ele>
        <time>2011-06-30T15:30:25Z</time>
      </trkpt>
      <trkpt lat="45.65664" lon="4.56628">
        <ele>732.66</ele>
        <time>2011-06-30T15:30:26Z</time>
      </trkpt>
      <trkpt lat="45.65654" lon="4.56638">
        <ele>733.14</ele>
        <time>2011-06-30T15:30:29Z</time>
      </trkpt>
      <trkpt lat="45.65651" lon="4.56642">
        <ele>734.1</ele>
        <time>2011-06-30T15:30:30Z</time>
      </trkpt>
      <trkpt lat="45.65649" lon="4.56647">
        <ele>734.1</ele>
        <time>2011-06-30T15:30:31Z</time>
      </trkpt>
      <trkpt lat="45.65619" lon="4.56725">
        <ele>736.51</ele>
        <time>2011-06-30T15:30:46Z</time>
      </trkpt>
      <trkpt lat="45.65613" lon="4.5674">
        <ele>736.99</ele>
        <time>2011-06-30T15:30:49Z</time>
      </trkpt>
      <trkpt lat="45.65605" lon="4.56781">
        <ele>737.95</ele>
        <time>2011-06-30T15:30:56Z</time>
      </trkpt>
      <trkpt lat="45.65605" lon="4.56786">
        <ele>737.95</ele>
        <time>2011-06-30T15:30:57Z</time>
      </trkpt>
      <trkpt lat="45.65606" lon="4.56792">
        <ele>737.95</ele>
        <time>2011-06-30T15:30:58Z</time>
      </trkpt>
      <trkpt lat="45.65615" lon="4.56838">
        <ele>739.39</ele>
        <time>2011-06-30T15:31:06Z</time>
      </trkpt>
      <trkpt lat="45.65623" lon="4.56873">
        <ele>740.35</ele>
        <time>2011-06-30T15:31:12Z</time>
      </trkpt>
      <trkpt lat="45.65623" lon="4.56879">
        <ele>740.35</ele>
        <time>2011-06-30T15:31:13Z</time>
      </trkpt>
      <trkpt lat="45.65623" lon="4.56885">
        <ele>740.35</ele>
        <time>2011-06-30T15:31:14Z</time>
      </trkpt>
      <trkpt lat="45.65622" lon="4.56891">
        <ele>740.35</ele>
        <time>2011-06-30T15:31:15Z</time>
      </trkpt>
      <trkpt lat="45.6562" lon="4.56896">
        <ele>741.31</ele>
        <time>2011-06-30T15:31:16Z</time>
      </trkpt>
      <trkpt lat="45.65617" lon="4.569">
        <ele>741.31</ele>
        <time>2011-06-30T15:31:17Z</time>
      </trkpt>
      <trkpt lat="45.65614" lon="4.56904">
        <ele>741.31</ele>
        <time>2011-06-30T15:31:18Z</time>
      </trkpt>
      <trkpt lat="45.65611" lon="4.56907">
        <ele>741.31</ele>
        <time>2011-06-30T15:31:19Z</time>
      </trkpt>
      <trkpt lat="45.65608" lon="4.5691">
        <ele>741.79</ele>
        <time>2011-06-30T15:31:20Z</time>
      </trkpt>
      <trkpt lat="45.65543" lon="4.56938">
        <ele>740.35</ele>
        <time>2011-06-30T15:31:34Z</time>
      </trkpt>
      <trkpt lat="45.65468" lon="4.56952">
        <ele>737.95</ele>
        <time>2011-06-30T15:31:46Z</time>
      </trkpt>
      <trkpt lat="45.65461" lon="4.56954">
        <ele>737.95</ele>
        <time>2011-06-30T15:31:47Z</time>
      </trkpt>
      <trkpt lat="45.65454" lon="4.56958">
        <ele>737.47</ele>
        <time>2011-06-30T15:31:48Z</time>
      </trkpt>
      <trkpt lat="45.65448" lon="4.56963">
        <ele>737.95</ele>
        <time>2011-06-30T15:31:49Z</time>
      </trkpt>
      <trkpt lat="45.65444" lon="4.56971">
        <ele>737.47</ele>
        <time>2011-06-30T15:31:50Z</time>
      </trkpt>
      <trkpt lat="45.6544" lon="4.56979">
        <ele>736.99</ele>
        <time>2011-06-30T15:31:51Z</time>
      </trkpt>
      <trkpt lat="45.65438" lon="4.56989">
        <ele>736.99</ele>
        <time>2011-06-30T15:31:52Z</time>
      </trkpt>
      <trkpt lat="45.65437" lon="4.56999">
        <ele>736.99</ele>
        <time>2011-06-30T15:31:53Z</time>
      </trkpt>
      <trkpt lat="45.65437" lon="4.57008">
        <ele>737.47</ele>
        <time>2011-06-30T15:31:54Z</time>
      </trkpt>
      <trkpt lat="45.65438" lon="4.57016">
        <ele>736.99</ele>
        <time>2011-06-30T15:31:55Z</time>
      </trkpt>
      <trkpt lat="45.65439" lon="4.57023">
        <ele>736.99</ele>
        <time>2011-06-30T15:31:56Z</time>
      </trkpt>
      <trkpt lat="45.65448" lon="4.57053">
        <ele>736.99</ele>
        <time>2011-06-30T15:32:00Z</time>
      </trkpt>
      <trkpt lat="45.6545" lon="4.57059">
        <ele>737.47</ele>
        <time>2011-06-30T15:32:01Z</time>
      </trkpt>
      <trkpt lat="45.65486" lon="4.57159">
        <ele>736.03</ele>
        <time>2011-06-30T15:32:12Z</time>
      </trkpt>
      <trkpt lat="45.6549" lon="4.57179">
        <ele>735.55</ele>
        <time>2011-06-30T15:32:14Z</time>
      </trkpt>
      <trkpt lat="45.65491" lon="4.57189">
        <ele>735.07</ele>
        <time>2011-06-30T15:32:15Z</time>
      </trkpt>
      <trkpt lat="45.65491" lon="4.57198">
        <ele>735.07</ele>
        <time>2011-06-30T15:32:16Z</time>
      </trkpt>
      <trkpt lat="45.6549" lon="4.57208">
        <ele>734.1</ele>
        <time>2011-06-30T15:32:17Z</time>
      </trkpt>
      <trkpt lat="45.65488" lon="4.57217">
        <ele>734.58</ele>
        <time>2011-06-30T15:32:18Z</time>
      </trkpt>
      <trkpt lat="45.65486" lon="4.57225">
        <ele>734.58</ele>
        <time>2011-06-30T15:32:19Z</time>
      </trkpt>
      <trkpt lat="45.65483" lon="4.57233">
        <ele>734.58</ele>
        <time>2011-06-30T15:32:20Z</time>
      </trkpt>
      <trkpt lat="45.65456" lon="4.57287">
        <ele>733.62</ele>
        <time>2011-06-30T15:32:27Z</time>
      </trkpt>
      <trkpt lat="45.65453" lon="4.57297">
        <ele>733.14</ele>
        <time>2011-06-30T15:32:28Z</time>
      </trkpt>
      <trkpt lat="45.65452" lon="4.57307">
        <ele>733.14</ele>
        <time>2011-06-30T15:32:29Z</time>
      </trkpt>
      <trkpt lat="45.65453" lon="4.57317">
        <ele>733.62</ele>
        <time>2011-06-30T15:32:30Z</time>
      </trkpt>
      <trkpt lat="45.65454" lon="4.57327">
        <ele>732.66</ele>
        <time>2011-06-30T15:32:31Z</time>
      </trkpt>
      <trkpt lat="45.65458" lon="4.57336">
        <ele>732.66</ele>
        <time>2011-06-30T15:32:32Z</time>
      </trkpt>
      <trkpt lat="45.65462" lon="4.57343">
        <ele>733.14</ele>
        <time>2011-06-30T15:32:33Z</time>
      </trkpt>
      <trkpt lat="45.65466" lon="4.5735">
        <ele>732.66</ele>
        <time>2011-06-30T15:32:34Z</time>
      </trkpt>
      <trkpt lat="45.65471" lon="4.57357">
        <ele>733.14</ele>
        <time>2011-06-30T15:32:35Z</time>
      </trkpt>
      <trkpt lat="45.65512" lon="4.57425">
        <ele>731.22</ele>
        <time>2011-06-30T15:32:45Z</time>
      </trkpt>
      <trkpt lat="45.65515" lon="4.57434">
        <ele>730.74</ele>
        <time>2011-06-30T15:32:46Z</time>
      </trkpt>
      <trkpt lat="45.65517" lon="4.57444">
        <ele>730.74</ele>
        <time>2011-06-30T15:32:47Z</time>
      </trkpt>
      <trkpt lat="45.65518" lon="4.57454">
        <ele>729.78</ele>
        <time>2011-06-30T15:32:48Z</time>
      </trkpt>
      <trkpt lat="45.65518" lon="4.57465">
        <ele>729.78</ele>
        <time>2011-06-30T15:32:49Z</time>
      </trkpt>
      <trkpt lat="45.65517" lon="4.57475">
        <ele>729.3</ele>
        <time>2011-06-30T15:32:50Z</time>
      </trkpt>
      <trkpt lat="45.65507" lon="4.57529">
        <ele>727.86</ele>
        <time>2011-06-30T15:32:55Z</time>
      </trkpt>
      <trkpt lat="45.65499" lon="4.57559">
        <ele>726.89</ele>
        <time>2011-06-30T15:32:58Z</time>
      </trkpt>
      <trkpt lat="45.65494" lon="4.57568">
        <ele>725.45</ele>
        <time>2011-06-30T15:32:59Z</time>
      </trkpt>
      <trkpt lat="45.65489" lon="4.57577">
        <ele>725.45</ele>
        <time>2011-06-30T15:33:00Z</time>
      </trkpt>
      <trkpt lat="45.65476" lon="4.57593">
        <ele>724.97</ele>
        <time>2011-06-30T15:33:02Z</time>
      </trkpt>
      <trkpt lat="45.65462" lon="4.57607">
        <ele>724.97</ele>
        <time>2011-06-30T15:33:04Z</time>
      </trkpt>
      <trkpt lat="45.65457" lon="4.57617">
        <ele>724.01</ele>
        <time>2011-06-30T15:33:05Z</time>
      </trkpt>
      <trkpt lat="45.65453" lon="4.57628">
        <ele>723.53</ele>
        <time>2011-06-30T15:33:06Z</time>
      </trkpt>
      <trkpt lat="45.65451" lon="4.57639">
        <ele>723.53</ele>
        <time>2011-06-30T15:33:07Z</time>
      </trkpt>
      <trkpt lat="45.6545" lon="4.5765">
        <ele>723.53</ele>
        <time>2011-06-30T15:33:08Z</time>
      </trkpt>
      <trkpt lat="45.6545" lon="4.57661">
        <ele>723.05</ele>
        <time>2011-06-30T15:33:09Z</time>
      </trkpt>
      <trkpt lat="45.65451" lon="4.57672">
        <ele>722.09</ele>
        <time>2011-06-30T15:33:10Z</time>
      </trkpt>
      <trkpt lat="45.65458" lon="4.57705">
        <ele>720.16</ele>
        <time>2011-06-30T15:33:13Z</time>
      </trkpt>
      <trkpt lat="45.65477" lon="4.57797">
        <ele>717.28</ele>
        <time>2011-06-30T15:33:21Z</time>
      </trkpt>
      <trkpt lat="45.65489" lon="4.5786">
        <ele>713.92</ele>
        <time>2011-06-30T15:33:26Z</time>
      </trkpt>
      <trkpt lat="45.65505" lon="4.57948">
        <ele>711.03</ele>
        <time>2011-06-30T15:33:33Z</time>
      </trkpt>
      <trkpt lat="45.65506" lon="4.57961">
        <ele>710.07</ele>
        <time>2011-06-30T15:33:34Z</time>
      </trkpt>
      <trkpt lat="45.65506" lon="4.57974">
        <ele>710.07</ele>
        <time>2011-06-30T15:33:35Z</time>
      </trkpt>
      <trkpt lat="45.65503" lon="4.57986">
        <ele>709.11</ele>
        <time>2011-06-30T15:33:36Z</time>
      </trkpt>
      <trkpt lat="45.65497" lon="4.57996">
        <ele>708.63</ele>
        <time>2011-06-30T15:33:37Z</time>
      </trkpt>
      <trkpt lat="45.6549" lon="4.58003">
        <ele>707.67</ele>
        <time>2011-06-30T15:33:38Z</time>
      </trkpt>
      <trkpt lat="45.65481" lon="4.58007">
        <ele>707.67</ele>
        <time>2011-06-30T15:33:39Z</time>
      </trkpt>
      <trkpt lat="45.65472" lon="4.58008">
        <ele>706.71</ele>
        <time>2011-06-30T15:33:40Z</time>
      </trkpt>
      <trkpt lat="45.65463" lon="4.5801">
        <ele>706.23</ele>
        <time>2011-06-30T15:33:41Z</time>
      </trkpt>
      <trkpt lat="45.65453" lon="4.58011">
        <ele>706.23</ele>
        <time>2011-06-30T15:33:42Z</time>
      </trkpt>
      <trkpt lat="45.65444" lon="4.58012">
        <ele>705.75</ele>
        <time>2011-06-30T15:33:43Z</time>
      </trkpt>
      <trkpt lat="45.65435" lon="4.58015">
        <ele>705.26</ele>
        <time>2011-06-30T15:33:44Z</time>
      </trkpt>
      <trkpt lat="45.65427" lon="4.5802">
        <ele>704.3</ele>
        <time>2011-06-30T15:33:45Z</time>
      </trkpt>
      <trkpt lat="45.65418" lon="4.58027">
        <ele>703.82</ele>
        <time>2011-06-30T15:33:46Z</time>
      </trkpt>
      <trkpt lat="45.65411" lon="4.58037">
        <ele>703.82</ele>
        <time>2011-06-30T15:33:47Z</time>
      </trkpt>
      <trkpt lat="45.65406" lon="4.58049">
        <ele>703.34</ele>
        <time>2011-06-30T15:33:48Z</time>
      </trkpt>
      <trkpt lat="45.65403" lon="4.58063">
        <ele>702.38</ele>
        <time>2011-06-30T15:33:49Z</time>
      </trkpt>
      <trkpt lat="45.65402" lon="4.58075">
        <ele>702.38</ele>
        <time>2011-06-30T15:33:50Z</time>
      </trkpt>
      <trkpt lat="45.65403" lon="4.58086">
        <ele>701.9</ele>
        <time>2011-06-30T15:33:51Z</time>
      </trkpt>
      <trkpt lat="45.65407" lon="4.58095">
        <ele>701.9</ele>
        <time>2011-06-30T15:33:52Z</time>
      </trkpt>
      <trkpt lat="45.65413" lon="4.58103">
        <ele>701.9</ele>
        <time>2011-06-30T15:33:53Z</time>
      </trkpt>
      <trkpt lat="45.6542" lon="4.58112">
        <ele>701.9</ele>
        <time>2011-06-30T15:33:54Z</time>
      </trkpt>
      <trkpt lat="45.65425" lon="4.58119">
        <ele>702.38</ele>
        <time>2011-06-30T15:33:55Z</time>
      </trkpt>
      <trkpt lat="45.65429" lon="4.58127">
        <ele>702.38</ele>
        <time>2011-06-30T15:33:56Z</time>
      </trkpt>
      <trkpt lat="45.65433" lon="4.58135">
        <ele>702.38</ele>
        <time>2011-06-30T15:33:57Z</time>
      </trkpt>
      <trkpt lat="45.65436" lon="4.58142">
        <ele>701.9</ele>
        <time>2011-06-30T15:33:58Z</time>
      </trkpt>
      <trkpt lat="45.65438" lon="4.5815">
        <ele>701.9</ele>
        <time>2011-06-30T15:33:59Z</time>
      </trkpt>
      <trkpt lat="45.65439" lon="4.58157">
        <ele>702.38</ele>
        <time>2011-06-30T15:34:00Z</time>
      </trkpt>
      <trkpt lat="45.6544" lon="4.58165">
        <ele>701.9</ele>
        <time>2011-06-30T15:34:01Z</time>
      </trkpt>
      <trkpt lat="45.6544" lon="4.58172">
        <ele>701.9</ele>
        <time>2011-06-30T15:34:02Z</time>
      </trkpt>
      <trkpt lat="45.65439" lon="4.58179">
        <ele>702.38</ele>
        <time>2011-06-30T15:34:03Z</time>
      </trkpt>
      <trkpt lat="45.65438" lon="4.58186">
        <ele>701.9</ele>
        <time>2011-06-30T15:34:04Z</time>
      </trkpt>
      <trkpt lat="45.65437" lon="4.58199">
        <ele>702.86</ele>
        <time>2011-06-30T15:34:06Z</time>
      </trkpt>
      <trkpt lat="45.65437" lon="4.58205">
        <ele>702.38</ele>
        <time>2011-06-30T15:34:07Z</time>
      </trkpt>
      <trkpt lat="45.65437" lon="4.58223">
        <ele>702.86</ele>
        <time>2011-06-30T15:34:10Z</time>
      </trkpt>
      <trkpt lat="45.65436" lon="4.58236">
        <ele>703.34</ele>
        <time>2011-06-30T15:34:12Z</time>
      </trkpt>
      <trkpt lat="45.65436" lon="4.58243">
        <ele>703.34</ele>
        <time>2011-06-30T15:34:13Z</time>
      </trkpt>
      <trkpt lat="45.65436" lon="4.58249">
        <ele>703.34</ele>
        <time>2011-06-30T15:34:14Z</time>
      </trkpt>
      <trkpt lat="45.65436" lon="4.58262">
        <ele>703.34</ele>
        <time>2011-06-30T15:34:16Z</time>
      </trkpt>
      <trkpt lat="45.65437" lon="4.58276">
        <ele>703.82</ele>
        <time>2011-06-30T15:34:18Z</time>
      </trkpt>
      <trkpt lat="45.65437" lon="4.58283">
        <ele>703.34</ele>
        <time>2011-06-30T15:34:19Z</time>
      </trkpt>
      <trkpt lat="45.65438" lon="4.58324">
        <ele>703.82</ele>
        <time>2011-06-30T15:34:25Z</time>
      </trkpt>
      <trkpt lat="45.65439" lon="4.58331">
        <ele>704.3</ele>
        <time>2011-06-30T15:34:26Z</time>
      </trkpt>
      <trkpt lat="45.65441" lon="4.58338">
        <ele>703.82</ele>
        <time>2011-06-30T15:34:27Z</time>
      </trkpt>
      <trkpt lat="45.6547" lon="4.58434">
        <ele>705.26</ele>
        <time>2011-06-30T15:34:41Z</time>
      </trkpt>
      <trkpt lat="45.6547" lon="4.58441">
        <ele>705.26</ele>
        <time>2011-06-30T15:34:42Z</time>
      </trkpt>
      <trkpt lat="45.6547" lon="4.58447">
        <ele>705.75</ele>
        <time>2011-06-30T15:34:43Z</time>
      </trkpt>
      <trkpt lat="45.65469" lon="4.58453">
        <ele>706.23</ele>
        <time>2011-06-30T15:34:44Z</time>
      </trkpt>
      <trkpt lat="45.65467" lon="4.58459">
        <ele>705.75</ele>
        <time>2011-06-30T15:34:45Z</time>
      </trkpt>
      <trkpt lat="45.65464" lon="4.58464">
        <ele>705.75</ele>
        <time>2011-06-30T15:34:46Z</time>
      </trkpt>
      <trkpt lat="45.65461" lon="4.58469">
        <ele>705.75</ele>
        <time>2011-06-30T15:34:47Z</time>
      </trkpt>
      <trkpt lat="45.65458" lon="4.58473">
        <ele>706.23</ele>
        <time>2011-06-30T15:34:48Z</time>
      </trkpt>
      <trkpt lat="45.65456" lon="4.58478">
        <ele>706.23</ele>
        <time>2011-06-30T15:34:49Z</time>
      </trkpt>
      <trkpt lat="45.65448" lon="4.58495">
        <ele>706.23</ele>
        <time>2011-06-30T15:34:52Z</time>
      </trkpt>
      <trkpt lat="45.65396" lon="4.58583">
        <ele>705.26</ele>
        <time>2011-06-30T15:35:09Z</time>
      </trkpt>
      <trkpt lat="45.65353" lon="4.58613">
        <ele>703.82</ele>
        <time>2011-06-30T15:35:18Z</time>
      </trkpt>
      <trkpt lat="45.65326" lon="4.58643">
        <ele>702.86</ele>
        <time>2011-06-30T15:35:24Z</time>
      </trkpt>
      <trkpt lat="45.65316" lon="4.58666">
        <ele>702.38</ele>
        <time>2011-06-30T15:35:27Z</time>
      </trkpt>
      <trkpt lat="45.65313" lon="4.58676">
        <ele>701.9</ele>
        <time>2011-06-30T15:35:28Z</time>
      </trkpt>
      <trkpt lat="45.65311" lon="4.58686">
        <ele>701.42</ele>
        <time>2011-06-30T15:35:29Z</time>
      </trkpt>
      <trkpt lat="45.65311" lon="4.58697">
        <ele>701.9</ele>
        <time>2011-06-30T15:35:30Z</time>
      </trkpt>
      <trkpt lat="45.65311" lon="4.58708">
        <ele>700.94</ele>
        <time>2011-06-30T15:35:31Z</time>
      </trkpt>
      <trkpt lat="45.65313" lon="4.58718">
        <ele>700.94</ele>
        <time>2011-06-30T15:35:32Z</time>
      </trkpt>
      <trkpt lat="45.65316" lon="4.58728">
        <ele>700.46</ele>
        <time>2011-06-30T15:35:33Z</time>
      </trkpt>
      <trkpt lat="45.6532" lon="4.58736">
        <ele>699.98</ele>
        <time>2011-06-30T15:35:34Z</time>
      </trkpt>
      <trkpt lat="45.65325" lon="4.58743">
        <ele>699.98</ele>
        <time>2011-06-30T15:35:35Z</time>
      </trkpt>
      <trkpt lat="45.6533" lon="4.5875">
        <ele>699.98</ele>
        <time>2011-06-30T15:35:36Z</time>
      </trkpt>
      <trkpt lat="45.65337" lon="4.58755">
        <ele>699.02</ele>
        <time>2011-06-30T15:35:37Z</time>
      </trkpt>
      <trkpt lat="45.65343" lon="4.5876">
        <ele>699.5</ele>
        <time>2011-06-30T15:35:38Z</time>
      </trkpt>
      <trkpt lat="45.6535" lon="4.58763">
        <ele>698.53</ele>
        <time>2011-06-30T15:35:39Z</time>
      </trkpt>
      <trkpt lat="45.65356" lon="4.58767">
        <ele>698.53</ele>
        <time>2011-06-30T15:35:40Z</time>
      </trkpt>
      <trkpt lat="45.65383" lon="4.58785">
        <ele>697.09</ele>
        <time>2011-06-30T15:35:44Z</time>
      </trkpt>
      <trkpt lat="45.654" lon="4.58804">
        <ele>696.13</ele>
        <time>2011-06-30T15:35:47Z</time>
      </trkpt>
      <trkpt lat="45.65404" lon="4.58812">
        <ele>695.65</ele>
        <time>2011-06-30T15:35:48Z</time>
      </trkpt>
      <trkpt lat="45.65421" lon="4.58846">
        <ele>694.21</ele>
        <time>2011-06-30T15:35:52Z</time>
      </trkpt>
      <trkpt lat="45.6544" lon="4.58894">
        <ele>692.77</ele>
        <time>2011-06-30T15:35:57Z</time>
      </trkpt>
      <trkpt lat="45.65453" lon="4.58924">
        <ele>691.33</ele>
        <time>2011-06-30T15:36:00Z</time>
      </trkpt>
      <trkpt lat="45.65469" lon="4.58975">
        <ele>689.88</ele>
        <time>2011-06-30T15:36:05Z</time>
      </trkpt>
      <trkpt lat="45.65472" lon="4.58985">
        <ele>689.88</ele>
        <time>2011-06-30T15:36:06Z</time>
      </trkpt>
      <trkpt lat="45.65474" lon="4.58996">
        <ele>689.4</ele>
        <time>2011-06-30T15:36:07Z</time>
      </trkpt>
      <trkpt lat="45.65475" lon="4.59007">
        <ele>689.4</ele>
        <time>2011-06-30T15:36:08Z</time>
      </trkpt>
      <trkpt lat="45.65477" lon="4.59017">
        <ele>688.44</ele>
        <time>2011-06-30T15:36:09Z</time>
      </trkpt>
      <trkpt lat="45.65477" lon="4.59028">
        <ele>687.96</ele>
        <time>2011-06-30T15:36:10Z</time>
      </trkpt>
      <trkpt lat="45.65477" lon="4.59039">
        <ele>687.48</ele>
        <time>2011-06-30T15:36:11Z</time>
      </trkpt>
      <trkpt lat="45.65476" lon="4.5905">
        <ele>687.48</ele>
        <time>2011-06-30T15:36:12Z</time>
      </trkpt>
      <trkpt lat="45.65475" lon="4.59061">
        <ele>687</ele>
        <time>2011-06-30T15:36:13Z</time>
      </trkpt>
      <trkpt lat="45.65473" lon="4.59071">
        <ele>686.52</ele>
        <time>2011-06-30T15:36:14Z</time>
      </trkpt>
      <trkpt lat="45.6547" lon="4.59081">
        <ele>685.56</ele>
        <time>2011-06-30T15:36:15Z</time>
      </trkpt>
      <trkpt lat="45.65466" lon="4.5909">
        <ele>685.08</ele>
        <time>2011-06-30T15:36:16Z</time>
      </trkpt>
      <trkpt lat="45.65461" lon="4.59098">
        <ele>685.08</ele>
        <time>2011-06-30T15:36:17Z</time>
      </trkpt>
      <trkpt lat="45.65455" lon="4.59106">
        <ele>684.6</ele>
        <time>2011-06-30T15:36:18Z</time>
      </trkpt>
      <trkpt lat="45.65444" lon="4.59124">
        <ele>684.12</ele>
        <time>2011-06-30T15:36:20Z</time>
      </trkpt>
      <trkpt lat="45.6544" lon="4.59134">
        <ele>684.12</ele>
        <time>2011-06-30T15:36:21Z</time>
      </trkpt>
      <trkpt lat="45.65437" lon="4.59145">
        <ele>683.63</ele>
        <time>2011-06-30T15:36:22Z</time>
      </trkpt>
      <trkpt lat="45.65436" lon="4.59158">
        <ele>682.67</ele>
        <time>2011-06-30T15:36:23Z</time>
      </trkpt>
      <trkpt lat="45.65437" lon="4.5917">
        <ele>682.67</ele>
        <time>2011-06-30T15:36:24Z</time>
      </trkpt>
      <trkpt lat="45.6544" lon="4.59181">
        <ele>682.67</ele>
        <time>2011-06-30T15:36:25Z</time>
      </trkpt>
      <trkpt lat="45.65445" lon="4.59191">
        <ele>682.67</ele>
        <time>2011-06-30T15:36:26Z</time>
      </trkpt>
      <trkpt lat="45.6545" lon="4.592">
        <ele>682.19</ele>
        <time>2011-06-30T15:36:27Z</time>
      </trkpt>
      <trkpt lat="45.65494" lon="4.59272">
        <ele>678.83</ele>
        <time>2011-06-30T15:36:35Z</time>
      </trkpt>
      <trkpt lat="45.65527" lon="4.59353">
        <ele>675.46</ele>
        <time>2011-06-30T15:36:43Z</time>
      </trkpt>
      <trkpt lat="45.65547" lon="4.59417">
        <ele>674.02</ele>
        <time>2011-06-30T15:36:49Z</time>
      </trkpt>
      <trkpt lat="45.65575" lon="4.59483">
        <ele>671.62</ele>
        <time>2011-06-30T15:36:56Z</time>
      </trkpt>
      <trkpt lat="45.6558" lon="4.5949">
        <ele>671.14</ele>
        <time>2011-06-30T15:36:57Z</time>
      </trkpt>
      <trkpt lat="45.65586" lon="4.59496">
        <ele>670.18</ele>
        <time>2011-06-30T15:36:58Z</time>
      </trkpt>
      <trkpt lat="45.656" lon="4.59507">
        <ele>669.22</ele>
        <time>2011-06-30T15:37:00Z</time>
      </trkpt>
      <trkpt lat="45.65635" lon="4.59532">
        <ele>667.77</ele>
        <time>2011-06-30T15:37:05Z</time>
      </trkpt>
      <trkpt lat="45.65678" lon="4.59568">
        <ele>665.85</ele>
        <time>2011-06-30T15:37:11Z</time>
      </trkpt>
      <trkpt lat="45.65684" lon="4.59577">
        <ele>665.85</ele>
        <time>2011-06-30T15:37:12Z</time>
      </trkpt>
      <trkpt lat="45.65689" lon="4.59586">
        <ele>664.89</ele>
        <time>2011-06-30T15:37:13Z</time>
      </trkpt>
      <trkpt lat="45.65694" lon="4.59595">
        <ele>664.89</ele>
        <time>2011-06-30T15:37:14Z</time>
      </trkpt>
      <trkpt lat="45.65697" lon="4.59604">
        <ele>663.45</ele>
        <time>2011-06-30T15:37:15Z</time>
      </trkpt>
      <trkpt lat="45.657" lon="4.59613">
        <ele>663.93</ele>
        <time>2011-06-30T15:37:16Z</time>
      </trkpt>
      <trkpt lat="45.65701" lon="4.59619">
        <ele>662.49</ele>
        <time>2011-06-30T15:37:17Z</time>
      </trkpt>
      <trkpt lat="45.65702" lon="4.59625">
        <ele>662.01</ele>
        <time>2011-06-30T15:37:18Z</time>
      </trkpt>
      <trkpt lat="45.65701" lon="4.59628">
        <ele>661.52</ele>
        <time>2011-06-30T15:37:19Z</time>
      </trkpt>
      <trkpt lat="45.65701" lon="4.5963">
        <ele>661.04</ele>
        <time>2011-06-30T15:37:20Z</time>
      </trkpt>
      <trkpt lat="45.65701" lon="4.5963">
        <ele>661.04</ele>
        <time>2011-06-30T15:37:35Z</time>
      </trkpt>
      <trkpt lat="45.65701" lon="4.5963">
        <ele>661.04</ele>
        <time>2011-06-30T15:38:04Z</time>
      </trkpt>
      <trkpt lat="45.65701" lon="4.5963">
        <ele>660.56</ele>
        <time>2011-06-30T15:38:30Z</time>
      </trkpt>
      <trkpt lat="45.65701" lon="4.5963">
        <ele>661.04</ele>
        <time>2011-06-30T15:38:58Z</time>
      </trkpt>
      <trkpt lat="45.657" lon="4.5963">
        <ele>661.52</ele>
        <time>2011-06-30T15:39:00Z</time>
      </trkpt>
      <trkpt lat="45.65699" lon="4.59629">
        <ele>661.52</ele>
        <time>2011-06-30T15:39:01Z</time>
      </trkpt>
      <trkpt lat="45.65697" lon="4.59627">
        <ele>661.52</ele>
        <time>2011-06-30T15:39:02Z</time>
      </trkpt>
      <trkpt lat="45.65696" lon="4.59625">
        <ele>661.52</ele>
        <time>2011-06-30T15:39:03Z</time>
      </trkpt>
      <trkpt lat="45.65696" lon="4.59623">
        <ele>661.52</ele>
        <time>2011-06-30T15:39:04Z</time>
      </trkpt>
      <trkpt lat="45.65688" lon="4.5961">
        <ele>663.45</ele>
        <time>2011-06-30T15:39:16Z</time>
      </trkpt>
      <trkpt lat="45.65688" lon="4.5961">
        <ele>663.45</ele>
        <time>2011-06-30T15:39:51Z</time>
      </trkpt>
      <trkpt lat="45.65689" lon="4.59611">
        <ele>663.45</ele>
        <time>2011-06-30T15:40:08Z</time>
      </trkpt>
      <trkpt lat="45.65689" lon="4.59613">
        <ele>662.97</ele>
        <time>2011-06-30T15:40:13Z</time>
      </trkpt>
      <trkpt lat="45.6569" lon="4.59616">
        <ele>662.97</ele>
        <time>2011-06-30T15:40:14Z</time>
      </trkpt>
      <trkpt lat="45.65698" lon="4.59632">
        <ele>661.52</ele>
        <time>2011-06-30T15:40:18Z</time>
      </trkpt>
      <trkpt lat="45.65699" lon="4.59637">
        <ele>662.01</ele>
        <time>2011-06-30T15:40:19Z</time>
      </trkpt>
      <trkpt lat="45.65697" lon="4.59643">
        <ele>661.52</ele>
        <time>2011-06-30T15:40:20Z</time>
      </trkpt>
      <trkpt lat="45.65695" lon="4.59649">
        <ele>661.04</ele>
        <time>2011-06-30T15:40:21Z</time>
      </trkpt>
      <trkpt lat="45.65691" lon="4.59655">
        <ele>661.04</ele>
        <time>2011-06-30T15:40:22Z</time>
      </trkpt>
      <trkpt lat="45.65687" lon="4.59661">
        <ele>661.04</ele>
        <time>2011-06-30T15:40:23Z</time>
      </trkpt>
      <trkpt lat="45.65631" lon="4.59727">
        <ele>657.68</ele>
        <time>2011-06-30T15:40:34Z</time>
      </trkpt>
      <trkpt lat="45.65619" lon="4.5974">
        <ele>656.72</ele>
        <time>2011-06-30T15:40:36Z</time>
      </trkpt>
      <trkpt lat="45.65589" lon="4.59772">
        <ele>654.8</ele>
        <time>2011-06-30T15:40:41Z</time>
      </trkpt>
      <trkpt lat="45.65582" lon="4.59776">
        <ele>654.31</ele>
        <time>2011-06-30T15:40:42Z</time>
      </trkpt>
      <trkpt lat="45.65553" lon="4.59793">
        <ele>652.87</ele>
        <time>2011-06-30T15:40:46Z</time>
      </trkpt>
      <trkpt lat="45.65545" lon="4.598">
        <ele>652.39</ele>
        <time>2011-06-30T15:40:47Z</time>
      </trkpt>
      <trkpt lat="45.65539" lon="4.59808">
        <ele>651.91</ele>
        <time>2011-06-30T15:40:48Z</time>
      </trkpt>
      <trkpt lat="45.65534" lon="4.59817">
        <ele>651.91</ele>
        <time>2011-06-30T15:40:49Z</time>
      </trkpt>
      <trkpt lat="45.65529" lon="4.59827">
        <ele>651.43</ele>
        <time>2011-06-30T15:40:50Z</time>
      </trkpt>
      <trkpt lat="45.65525" lon="4.59837">
        <ele>651.43</ele>
        <time>2011-06-30T15:40:51Z</time>
      </trkpt>
      <trkpt lat="45.65521" lon="4.59848">
        <ele>650.95</ele>
        <time>2011-06-30T15:40:52Z</time>
      </trkpt>
      <trkpt lat="45.65518" lon="4.59858">
        <ele>649.99</ele>
        <time>2011-06-30T15:40:53Z</time>
      </trkpt>
      <trkpt lat="45.65516" lon="4.5987">
        <ele>649.99</ele>
        <time>2011-06-30T15:40:54Z</time>
      </trkpt>
      <trkpt lat="45.65511" lon="4.59892">
        <ele>648.55</ele>
        <time>2011-06-30T15:40:56Z</time>
      </trkpt>
      <trkpt lat="45.65491" lon="4.59955">
        <ele>646.14</ele>
        <time>2011-06-30T15:41:02Z</time>
      </trkpt>
      <trkpt lat="45.65477" lon="4.59983">
        <ele>645.66</ele>
        <time>2011-06-30T15:41:05Z</time>
      </trkpt>
      <trkpt lat="45.65471" lon="4.59991">
        <ele>645.18</ele>
        <time>2011-06-30T15:41:06Z</time>
      </trkpt>
      <trkpt lat="45.65464" lon="4.59998">
        <ele>644.7</ele>
        <time>2011-06-30T15:41:07Z</time>
      </trkpt>
      <trkpt lat="45.65457" lon="4.60004">
        <ele>644.7</ele>
        <time>2011-06-30T15:41:08Z</time>
      </trkpt>
      <trkpt lat="45.6545" lon="4.60009">
        <ele>644.22</ele>
        <time>2011-06-30T15:41:09Z</time>
      </trkpt>
      <trkpt lat="45.65441" lon="4.60013">
        <ele>644.22</ele>
        <time>2011-06-30T15:41:10Z</time>
      </trkpt>
      <trkpt lat="45.65434" lon="4.60015">
        <ele>643.74</ele>
        <time>2011-06-30T15:41:11Z</time>
      </trkpt>
      <trkpt lat="45.65425" lon="4.60017">
        <ele>643.26</ele>
        <time>2011-06-30T15:41:12Z</time>
      </trkpt>
      <trkpt lat="45.65409" lon="4.60022">
        <ele>642.78</ele>
        <time>2011-06-30T15:41:14Z</time>
      </trkpt>
      <trkpt lat="45.65402" lon="4.60029">
        <ele>642.78</ele>
        <time>2011-06-30T15:41:15Z</time>
      </trkpt>
      <trkpt lat="45.65396" lon="4.60038">
        <ele>643.26</ele>
        <time>2011-06-30T15:41:16Z</time>
      </trkpt>
      <trkpt lat="45.65391" lon="4.60047">
        <ele>642.3</ele>
        <time>2011-06-30T15:41:17Z</time>
      </trkpt>
      <trkpt lat="45.65386" lon="4.60057">
        <ele>641.82</ele>
        <time>2011-06-30T15:41:18Z</time>
      </trkpt>
      <trkpt lat="45.65332" lon="4.60213">
        <ele>639.41</ele>
        <time>2011-06-30T15:41:33Z</time>
      </trkpt>
      <trkpt lat="45.65312" lon="4.60273">
        <ele>638.45</ele>
        <time>2011-06-30T15:41:39Z</time>
      </trkpt>
      <trkpt lat="45.65308" lon="4.60282">
        <ele>637.97</ele>
        <time>2011-06-30T15:41:40Z</time>
      </trkpt>
      <trkpt lat="45.65242" lon="4.6035">
        <ele>636.05</ele>
        <time>2011-06-30T15:41:51Z</time>
      </trkpt>
      <trkpt lat="45.65174" lon="4.60416">
        <ele>635.09</ele>
        <time>2011-06-30T15:42:02Z</time>
      </trkpt>
      <trkpt lat="45.65166" lon="4.60419">
        <ele>634.61</ele>
        <time>2011-06-30T15:42:03Z</time>
      </trkpt>
      <trkpt lat="45.65159" lon="4.60421">
        <ele>634.61</ele>
        <time>2011-06-30T15:42:04Z</time>
      </trkpt>
      <trkpt lat="45.65152" lon="4.60421">
        <ele>634.61</ele>
        <time>2011-06-30T15:42:05Z</time>
      </trkpt>
      <trkpt lat="45.65144" lon="4.60421">
        <ele>634.13</ele>
        <time>2011-06-30T15:42:06Z</time>
      </trkpt>
      <trkpt lat="45.65086" lon="4.60415">
        <ele>632.2</ele>
        <time>2011-06-30T15:42:14Z</time>
      </trkpt>
      <trkpt lat="45.65079" lon="4.60411">
        <ele>631.72</ele>
        <time>2011-06-30T15:42:15Z</time>
      </trkpt>
      <trkpt lat="45.65073" lon="4.60405">
        <ele>631.72</ele>
        <time>2011-06-30T15:42:16Z</time>
      </trkpt>
      <trkpt lat="45.65066" lon="4.60398">
        <ele>631.24</ele>
        <time>2011-06-30T15:42:17Z</time>
      </trkpt>
      <trkpt lat="45.6506" lon="4.6039">
        <ele>630.76</ele>
        <time>2011-06-30T15:42:18Z</time>
      </trkpt>
      <trkpt lat="45.65055" lon="4.60382">
        <ele>630.76</ele>
        <time>2011-06-30T15:42:19Z</time>
      </trkpt>
      <trkpt lat="45.6497" lon="4.60279">
        <ele>628.36</ele>
        <time>2011-06-30T15:42:34Z</time>
      </trkpt>
      <trkpt lat="45.6494" lon="4.60249">
        <ele>627.88</ele>
        <time>2011-06-30T15:42:39Z</time>
      </trkpt>
      <trkpt lat="45.64935" lon="4.60241">
        <ele>627.4</ele>
        <time>2011-06-30T15:42:40Z</time>
      </trkpt>
      <trkpt lat="45.64932" lon="4.60233">
        <ele>627.88</ele>
        <time>2011-06-30T15:42:41Z</time>
      </trkpt>
      <trkpt lat="45.64928" lon="4.60224">
        <ele>626.92</ele>
        <time>2011-06-30T15:42:42Z</time>
      </trkpt>
      <trkpt lat="45.64926" lon="4.60215">
        <ele>626.92</ele>
        <time>2011-06-30T15:42:43Z</time>
      </trkpt>
      <trkpt lat="45.64924" lon="4.60205">
        <ele>627.4</ele>
        <time>2011-06-30T15:42:44Z</time>
      </trkpt>
      <trkpt lat="45.64922" lon="4.60196">
        <ele>626.92</ele>
        <time>2011-06-30T15:42:45Z</time>
      </trkpt>
      <trkpt lat="45.64916" lon="4.60157">
        <ele>626.92</ele>
        <time>2011-06-30T15:42:49Z</time>
      </trkpt>
      <trkpt lat="45.64912" lon="4.60148">
        <ele>626.44</ele>
        <time>2011-06-30T15:42:50Z</time>
      </trkpt>
      <trkpt lat="45.64908" lon="4.60141">
        <ele>625.96</ele>
        <time>2011-06-30T15:42:51Z</time>
      </trkpt>
      <trkpt lat="45.64902" lon="4.60135">
        <ele>626.44</ele>
        <time>2011-06-30T15:42:52Z</time>
      </trkpt>
      <trkpt lat="45.64895" lon="4.60132">
        <ele>625.96</ele>
        <time>2011-06-30T15:42:53Z</time>
      </trkpt>
      <trkpt lat="45.64888" lon="4.60131">
        <ele>625.96</ele>
        <time>2011-06-30T15:42:54Z</time>
      </trkpt>
      <trkpt lat="45.64881" lon="4.60133">
        <ele>625.96</ele>
        <time>2011-06-30T15:42:55Z</time>
      </trkpt>
      <trkpt lat="45.64876" lon="4.60137">
        <ele>625.96</ele>
        <time>2011-06-30T15:42:56Z</time>
      </trkpt>
      <trkpt lat="45.64871" lon="4.60143">
        <ele>625.96</ele>
        <time>2011-06-30T15:42:57Z</time>
      </trkpt>
      <trkpt lat="45.64866" lon="4.60148">
        <ele>625.47</ele>
        <time>2011-06-30T15:42:58Z</time>
      </trkpt>
      <trkpt lat="45.64861" lon="4.60154">
        <ele>624.99</ele>
        <time>2011-06-30T15:42:59Z</time>
      </trkpt>
      <trkpt lat="45.64814" lon="4.60241">
        <ele>625.96</ele>
        <time>2011-06-30T15:43:12Z</time>
      </trkpt>
      <trkpt lat="45.64778" lon="4.6037">
        <ele>626.44</ele>
        <time>2011-06-30T15:43:30Z</time>
      </trkpt>
      <trkpt lat="45.64766" lon="4.60419">
        <ele>626.92</ele>
        <time>2011-06-30T15:43:37Z</time>
      </trkpt>
      <trkpt lat="45.64764" lon="4.60425">
        <ele>626.92</ele>
        <time>2011-06-30T15:43:38Z</time>
      </trkpt>
      <trkpt lat="45.6476" lon="4.60431">
        <ele>626.44</ele>
        <time>2011-06-30T15:43:39Z</time>
      </trkpt>
      <trkpt lat="45.64756" lon="4.60436">
        <ele>626.92</ele>
        <time>2011-06-30T15:43:40Z</time>
      </trkpt>
      <trkpt lat="45.64752" lon="4.6044">
        <ele>626.92</ele>
        <time>2011-06-30T15:43:41Z</time>
      </trkpt>
      <trkpt lat="45.64747" lon="4.60442">
        <ele>626.92</ele>
        <time>2011-06-30T15:43:42Z</time>
      </trkpt>
      <trkpt lat="45.64742" lon="4.60444">
        <ele>626.92</ele>
        <time>2011-06-30T15:43:43Z</time>
      </trkpt>
      <trkpt lat="45.64737" lon="4.60445">
        <ele>626.92</ele>
        <time>2011-06-30T15:43:44Z</time>
      </trkpt>
      <trkpt lat="45.64731" lon="4.60444">
        <ele>626.92</ele>
        <time>2011-06-30T15:43:45Z</time>
      </trkpt>
      <trkpt lat="45.64726" lon="4.60443">
        <ele>626.44</ele>
        <time>2011-06-30T15:43:46Z</time>
      </trkpt>
      <trkpt lat="45.6472" lon="4.60441">
        <ele>625.96</ele>
        <time>2011-06-30T15:43:47Z</time>
      </trkpt>
      <trkpt lat="45.6468" lon="4.60435">
        <ele>625.47</ele>
        <time>2011-06-30T15:43:54Z</time>
      </trkpt>
      <trkpt lat="45.64674" lon="4.60436">
        <ele>624.99</ele>
        <time>2011-06-30T15:43:55Z</time>
      </trkpt>
      <trkpt lat="45.64668" lon="4.60437">
        <ele>624.99</ele>
        <time>2011-06-30T15:43:56Z</time>
      </trkpt>
      <trkpt lat="45.64662" lon="4.6044">
        <ele>624.51</ele>
        <time>2011-06-30T15:43:57Z</time>
      </trkpt>
      <trkpt lat="45.64656" lon="4.60445">
        <ele>624.51</ele>
        <time>2011-06-30T15:43:58Z</time>
      </trkpt>
      <trkpt lat="45.6465" lon="4.6045">
        <ele>624.99</ele>
        <time>2011-06-30T15:43:59Z</time>
      </trkpt>
      <trkpt lat="45.64646" lon="4.60456">
        <ele>624.51</ele>
        <time>2011-06-30T15:44:00Z</time>
      </trkpt>
      <trkpt lat="45.64643" lon="4.60464">
        <ele>624.99</ele>
        <time>2011-06-30T15:44:01Z</time>
      </trkpt>
      <trkpt lat="45.6464" lon="4.60472">
        <ele>624.99</ele>
        <time>2011-06-30T15:44:02Z</time>
      </trkpt>
      <trkpt lat="45.64639" lon="4.6048">
        <ele>624.99</ele>
        <time>2011-06-30T15:44:03Z</time>
      </trkpt>
      <trkpt lat="45.64638" lon="4.60489">
        <ele>624.51</ele>
        <time>2011-06-30T15:44:04Z</time>
      </trkpt>
      <trkpt lat="45.64639" lon="4.60497">
        <ele>625.47</ele>
        <time>2011-06-30T15:44:05Z</time>
      </trkpt>
      <trkpt lat="45.6464" lon="4.60505">
        <ele>624.99</ele>
        <time>2011-06-30T15:44:06Z</time>
      </trkpt>
      <trkpt lat="45.64642" lon="4.60513">
        <ele>625.47</ele>
        <time>2011-06-30T15:44:07Z</time>
      </trkpt>
      <trkpt lat="45.64645" lon="4.60521">
        <ele>624.99</ele>
        <time>2011-06-30T15:44:08Z</time>
      </trkpt>
      <trkpt lat="45.64651" lon="4.60535">
        <ele>624.03</ele>
        <time>2011-06-30T15:44:10Z</time>
      </trkpt>
      <trkpt lat="45.64654" lon="4.60541">
        <ele>624.51</ele>
        <time>2011-06-30T15:44:11Z</time>
      </trkpt>
      <trkpt lat="45.64659" lon="4.60547">
        <ele>624.03</ele>
        <time>2011-06-30T15:44:12Z</time>
      </trkpt>
      <trkpt lat="45.64741" lon="4.60633">
        <ele>623.07</ele>
        <time>2011-06-30T15:44:29Z</time>
      </trkpt>
      <trkpt lat="45.64761" lon="4.60664">
        <ele>621.15</ele>
        <time>2011-06-30T15:44:34Z</time>
      </trkpt>
      <trkpt lat="45.64764" lon="4.60671">
        <ele>621.15</ele>
        <time>2011-06-30T15:44:35Z</time>
      </trkpt>
      <trkpt lat="45.64765" lon="4.60679">
        <ele>621.15</ele>
        <time>2011-06-30T15:44:36Z</time>
      </trkpt>
      <trkpt lat="45.64766" lon="4.60687">
        <ele>621.15</ele>
        <time>2011-06-30T15:44:37Z</time>
      </trkpt>
      <trkpt lat="45.64766" lon="4.60695">
        <ele>621.15</ele>
        <time>2011-06-30T15:44:38Z</time>
      </trkpt>
      <trkpt lat="45.64765" lon="4.60703">
        <ele>621.15</ele>
        <time>2011-06-30T15:44:39Z</time>
      </trkpt>
      <trkpt lat="45.64762" lon="4.60711">
        <ele>620.67</ele>
        <time>2011-06-30T15:44:40Z</time>
      </trkpt>
      <trkpt lat="45.64759" lon="4.60718">
        <ele>619.71</ele>
        <time>2011-06-30T15:44:41Z</time>
      </trkpt>
      <trkpt lat="45.64755" lon="4.60725">
        <ele>619.71</ele>
        <time>2011-06-30T15:44:42Z</time>
      </trkpt>
      <trkpt lat="45.64749" lon="4.60729">
        <ele>619.23</ele>
        <time>2011-06-30T15:44:43Z</time>
      </trkpt>
      <trkpt lat="45.64744" lon="4.60731">
        <ele>619.23</ele>
        <time>2011-06-30T15:44:44Z</time>
      </trkpt>
      <trkpt lat="45.64738" lon="4.60732">
        <ele>619.71</ele>
        <time>2011-06-30T15:44:45Z</time>
      </trkpt>
      <trkpt lat="45.64732" lon="4.60732">
        <ele>619.71</ele>
        <time>2011-06-30T15:44:46Z</time>
      </trkpt>
      <trkpt lat="45.64727" lon="4.60732">
        <ele>619.23</ele>
        <time>2011-06-30T15:44:47Z</time>
      </trkpt>
      <trkpt lat="45.64651" lon="4.60724">
        <ele>620.67</ele>
        <time>2011-06-30T15:45:01Z</time>
      </trkpt>
      <trkpt lat="45.64645" lon="4.60725">
        <ele>620.67</ele>
        <time>2011-06-30T15:45:02Z</time>
      </trkpt>
      <trkpt lat="45.64639" lon="4.60727">
        <ele>620.67</ele>
        <time>2011-06-30T15:45:03Z</time>
      </trkpt>
      <trkpt lat="45.64634" lon="4.6073">
        <ele>621.15</ele>
        <time>2011-06-30T15:45:04Z</time>
      </trkpt>
      <trkpt lat="45.64629" lon="4.60733">
        <ele>621.63</ele>
        <time>2011-06-30T15:45:05Z</time>
      </trkpt>
      <trkpt lat="45.64624" lon="4.60738">
        <ele>621.15</ele>
        <time>2011-06-30T15:45:06Z</time>
      </trkpt>
      <trkpt lat="45.64619" lon="4.60743">
        <ele>621.15</ele>
        <time>2011-06-30T15:45:07Z</time>
      </trkpt>
      <trkpt lat="45.64616" lon="4.6075">
        <ele>621.15</ele>
        <time>2011-06-30T15:45:08Z</time>
      </trkpt>
      <trkpt lat="45.64613" lon="4.60756">
        <ele>621.63</ele>
        <time>2011-06-30T15:45:09Z</time>
      </trkpt>
      <trkpt lat="45.6461" lon="4.60764">
        <ele>621.15</ele>
        <time>2011-06-30T15:45:10Z</time>
      </trkpt>
      <trkpt lat="45.64608" lon="4.60771">
        <ele>621.15</ele>
        <time>2011-06-30T15:45:11Z</time>
      </trkpt>
      <trkpt lat="45.64608" lon="4.60779">
        <ele>621.63</ele>
        <time>2011-06-30T15:45:12Z</time>
      </trkpt>
      <trkpt lat="45.64607" lon="4.60788">
        <ele>621.63</ele>
        <time>2011-06-30T15:45:13Z</time>
      </trkpt>
      <trkpt lat="45.64575" lon="4.60912">
        <ele>621.63</ele>
        <time>2011-06-30T15:45:29Z</time>
      </trkpt>
      <trkpt lat="45.64571" lon="4.60918">
        <ele>621.15</ele>
        <time>2011-06-30T15:45:30Z</time>
      </trkpt>
      <trkpt lat="45.64567" lon="4.60924">
        <ele>620.67</ele>
        <time>2011-06-30T15:45:31Z</time>
      </trkpt>
      <trkpt lat="45.64562" lon="4.60928">
        <ele>620.67</ele>
        <time>2011-06-30T15:45:32Z</time>
      </trkpt>
      <trkpt lat="45.64557" lon="4.60931">
        <ele>620.67</ele>
        <time>2011-06-30T15:45:33Z</time>
      </trkpt>
      <trkpt lat="45.64552" lon="4.60933">
        <ele>620.67</ele>
        <time>2011-06-30T15:45:34Z</time>
      </trkpt>
      <trkpt lat="45.64546" lon="4.60934">
        <ele>620.67</ele>
        <time>2011-06-30T15:45:35Z</time>
      </trkpt>
      <trkpt lat="45.6454" lon="4.60934">
        <ele>620.67</ele>
        <time>2011-06-30T15:45:36Z</time>
      </trkpt>
      <trkpt lat="45.64534" lon="4.60932">
        <ele>620.67</ele>
        <time>2011-06-30T15:45:37Z</time>
      </trkpt>
      <trkpt lat="45.64529" lon="4.60929">
        <ele>620.67</ele>
        <time>2011-06-30T15:45:38Z</time>
      </trkpt>
      <trkpt lat="45.64523" lon="4.60926">
        <ele>621.15</ele>
        <time>2011-06-30T15:45:39Z</time>
      </trkpt>
      <trkpt lat="45.64467" lon="4.60886">
        <ele>620.67</ele>
        <time>2011-06-30T15:45:50Z</time>
      </trkpt>
      <trkpt lat="45.64462" lon="4.60884">
        <ele>620.67</ele>
        <time>2011-06-30T15:45:51Z</time>
      </trkpt>
      <trkpt lat="45.64456" lon="4.60882">
        <ele>620.67</ele>
        <time>2011-06-30T15:45:52Z</time>
      </trkpt>
      <trkpt lat="45.6445" lon="4.60881">
        <ele>620.67</ele>
        <time>2011-06-30T15:45:53Z</time>
      </trkpt>
      <trkpt lat="45.64445" lon="4.60881">
        <ele>620.67</ele>
        <time>2011-06-30T15:45:54Z</time>
      </trkpt>
      <trkpt lat="45.64439" lon="4.60882">
        <ele>620.67</ele>
        <time>2011-06-30T15:45:55Z</time>
      </trkpt>
      <trkpt lat="45.64434" lon="4.60884">
        <ele>621.15</ele>
        <time>2011-06-30T15:45:56Z</time>
      </trkpt>
      <trkpt lat="45.64428" lon="4.60886">
        <ele>621.15</ele>
        <time>2011-06-30T15:45:57Z</time>
      </trkpt>
      <trkpt lat="45.64423" lon="4.60888">
        <ele>620.67</ele>
        <time>2011-06-30T15:45:58Z</time>
      </trkpt>
      <trkpt lat="45.64417" lon="4.60891">
        <ele>620.19</ele>
        <time>2011-06-30T15:45:59Z</time>
      </trkpt>
      <trkpt lat="45.64413" lon="4.60896">
        <ele>620.67</ele>
        <time>2011-06-30T15:46:00Z</time>
      </trkpt>
      <trkpt lat="45.64404" lon="4.60909">
        <ele>620.19</ele>
        <time>2011-06-30T15:46:02Z</time>
      </trkpt>
      <trkpt lat="45.64401" lon="4.60916">
        <ele>620.19</ele>
        <time>2011-06-30T15:46:03Z</time>
      </trkpt>
      <trkpt lat="45.64399" lon="4.60924">
        <ele>620.67</ele>
        <time>2011-06-30T15:46:04Z</time>
      </trkpt>
      <trkpt lat="45.64395" lon="4.60953">
        <ele>620.67</ele>
        <time>2011-06-30T15:46:08Z</time>
      </trkpt>
      <trkpt lat="45.64396" lon="4.60995">
        <ele>621.63</ele>
        <time>2011-06-30T15:46:14Z</time>
      </trkpt>
      <trkpt lat="45.64394" lon="4.61024">
        <ele>621.63</ele>
        <time>2011-06-30T15:46:18Z</time>
      </trkpt>
      <trkpt lat="45.64391" lon="4.61045">
        <ele>621.63</ele>
        <time>2011-06-30T15:46:21Z</time>
      </trkpt>
      <trkpt lat="45.64389" lon="4.61052">
        <ele>622.11</ele>
        <time>2011-06-30T15:46:22Z</time>
      </trkpt>
      <trkpt lat="45.64386" lon="4.61057">
        <ele>622.59</ele>
        <time>2011-06-30T15:46:23Z</time>
      </trkpt>
      <trkpt lat="45.64383" lon="4.61062">
        <ele>622.59</ele>
        <time>2011-06-30T15:46:24Z</time>
      </trkpt>
      <trkpt lat="45.6438" lon="4.61065">
        <ele>622.59</ele>
        <time>2011-06-30T15:46:25Z</time>
      </trkpt>
      <trkpt lat="45.64377" lon="4.61068">
        <ele>622.59</ele>
        <time>2011-06-30T15:46:26Z</time>
      </trkpt>
      <trkpt lat="45.64373" lon="4.6107">
        <ele>623.07</ele>
        <time>2011-06-30T15:46:27Z</time>
      </trkpt>
      <trkpt lat="45.64369" lon="4.6107">
        <ele>623.07</ele>
        <time>2011-06-30T15:46:28Z</time>
      </trkpt>
      <trkpt lat="45.64364" lon="4.6107">
        <ele>623.07</ele>
        <time>2011-06-30T15:46:29Z</time>
      </trkpt>
      <trkpt lat="45.6436" lon="4.6107">
        <ele>623.07</ele>
        <time>2011-06-30T15:46:30Z</time>
      </trkpt>
      <trkpt lat="45.64331" lon="4.61067">
        <ele>623.55</ele>
        <time>2011-06-30T15:46:36Z</time>
      </trkpt>
      <trkpt lat="45.64326" lon="4.61067">
        <ele>622.59</ele>
        <time>2011-06-30T15:46:37Z</time>
      </trkpt>
      <trkpt lat="45.64321" lon="4.61067">
        <ele>623.07</ele>
        <time>2011-06-30T15:46:38Z</time>
      </trkpt>
      <trkpt lat="45.64306" lon="4.6107">
        <ele>623.07</ele>
        <time>2011-06-30T15:46:41Z</time>
      </trkpt>
      <trkpt lat="45.64295" lon="4.61074">
        <ele>623.07</ele>
        <time>2011-06-30T15:46:43Z</time>
      </trkpt>
      <trkpt lat="45.64246" lon="4.61098">
        <ele>624.03</ele>
        <time>2011-06-30T15:46:53Z</time>
      </trkpt>
      <trkpt lat="45.64241" lon="4.61099">
        <ele>624.03</ele>
        <time>2011-06-30T15:46:54Z</time>
      </trkpt>
      <trkpt lat="45.64216" lon="4.61103">
        <ele>624.51</ele>
        <time>2011-06-30T15:46:59Z</time>
      </trkpt>
      <trkpt lat="45.64211" lon="4.61102">
        <ele>624.51</ele>
        <time>2011-06-30T15:47:00Z</time>
      </trkpt>
      <trkpt lat="45.64206" lon="4.611">
        <ele>624.99</ele>
        <time>2011-06-30T15:47:01Z</time>
      </trkpt>
      <trkpt lat="45.64162" lon="4.61077">
        <ele>625.96</ele>
        <time>2011-06-30T15:47:10Z</time>
      </trkpt>
      <trkpt lat="45.64158" lon="4.61073">
        <ele>626.44</ele>
        <time>2011-06-30T15:47:11Z</time>
      </trkpt>
      <trkpt lat="45.64154" lon="4.6107">
        <ele>626.44</ele>
        <time>2011-06-30T15:47:12Z</time>
      </trkpt>
      <trkpt lat="45.64141" lon="4.61064">
        <ele>626.44</ele>
        <time>2011-06-30T15:47:15Z</time>
      </trkpt>
      <trkpt lat="45.64136" lon="4.61063">
        <ele>626.44</ele>
        <time>2011-06-30T15:47:16Z</time>
      </trkpt>
      <trkpt lat="45.64131" lon="4.61062">
        <ele>626.44</ele>
        <time>2011-06-30T15:47:17Z</time>
      </trkpt>
      <trkpt lat="45.6407" lon="4.61038">
        <ele>626.92</ele>
        <time>2011-06-30T15:47:30Z</time>
      </trkpt>
      <trkpt lat="45.64056" lon="4.61031">
        <ele>627.88</ele>
        <time>2011-06-30T15:47:33Z</time>
      </trkpt>
      <trkpt lat="45.64021" lon="4.61004">
        <ele>628.36</ele>
        <time>2011-06-30T15:47:41Z</time>
      </trkpt>
      <trkpt lat="45.64003" lon="4.60994">
        <ele>628.84</ele>
        <time>2011-06-30T15:47:45Z</time>
      </trkpt>
      <trkpt lat="45.63977" lon="4.60984">
        <ele>628.36</ele>
        <time>2011-06-30T15:47:51Z</time>
      </trkpt>
      <trkpt lat="45.63973" lon="4.60984">
        <ele>628.36</ele>
        <time>2011-06-30T15:47:52Z</time>
      </trkpt>
      <trkpt lat="45.63968" lon="4.60985">
        <ele>628.36</ele>
        <time>2011-06-30T15:47:53Z</time>
      </trkpt>
      <trkpt lat="45.63964" lon="4.60988">
        <ele>628.36</ele>
        <time>2011-06-30T15:47:54Z</time>
      </trkpt>
      <trkpt lat="45.63959" lon="4.60992">
        <ele>628.36</ele>
        <time>2011-06-30T15:47:55Z</time>
      </trkpt>
      <trkpt lat="45.63954" lon="4.60996">
        <ele>628.84</ele>
        <time>2011-06-30T15:47:56Z</time>
      </trkpt>
      <trkpt lat="45.6395" lon="4.61002">
        <ele>628.84</ele>
        <time>2011-06-30T15:47:57Z</time>
      </trkpt>
      <trkpt lat="45.63947" lon="4.61008">
        <ele>628.84</ele>
        <time>2011-06-30T15:47:58Z</time>
      </trkpt>
      <trkpt lat="45.63944" lon="4.61015">
        <ele>628.84</ele>
        <time>2011-06-30T15:47:59Z</time>
      </trkpt>
      <trkpt lat="45.63942" lon="4.61022">
        <ele>628.84</ele>
        <time>2011-06-30T15:48:00Z</time>
      </trkpt>
      <trkpt lat="45.63941" lon="4.61028">
        <ele>628.84</ele>
        <time>2011-06-30T15:48:01Z</time>
      </trkpt>
      <trkpt lat="45.6394" lon="4.61035">
        <ele>628.84</ele>
        <time>2011-06-30T15:48:02Z</time>
      </trkpt>
      <trkpt lat="45.6394" lon="4.61041">
        <ele>629.32</ele>
        <time>2011-06-30T15:48:03Z</time>
      </trkpt>
      <trkpt lat="45.6394" lon="4.61047">
        <ele>629.32</ele>
        <time>2011-06-30T15:48:04Z</time>
      </trkpt>
      <trkpt lat="45.63941" lon="4.61053">
        <ele>629.32</ele>
        <time>2011-06-30T15:48:05Z</time>
      </trkpt>
      <trkpt lat="45.63942" lon="4.61059">
        <ele>629.8</ele>
        <time>2011-06-30T15:48:06Z</time>
      </trkpt>
      <trkpt lat="45.63947" lon="4.61085">
        <ele>630.28</ele>
        <time>2011-06-30T15:48:10Z</time>
      </trkpt>
      <trkpt lat="45.63958" lon="4.61131">
        <ele>630.28</ele>
        <time>2011-06-30T15:48:17Z</time>
      </trkpt>
      <trkpt lat="45.63961" lon="4.61144">
        <ele>630.28</ele>
        <time>2011-06-30T15:48:19Z</time>
      </trkpt>
      <trkpt lat="45.63962" lon="4.6115">
        <ele>629.8</ele>
        <time>2011-06-30T15:48:20Z</time>
      </trkpt>
      <trkpt lat="45.63963" lon="4.61156">
        <ele>630.28</ele>
        <time>2011-06-30T15:48:21Z</time>
      </trkpt>
      <trkpt lat="45.63964" lon="4.61163">
        <ele>630.28</ele>
        <time>2011-06-30T15:48:22Z</time>
      </trkpt>
      <trkpt lat="45.63964" lon="4.61169">
        <ele>630.28</ele>
        <time>2011-06-30T15:48:23Z</time>
      </trkpt>
      <trkpt lat="45.63962" lon="4.61202">
        <ele>630.76</ele>
        <time>2011-06-30T15:48:28Z</time>
      </trkpt>
      <trkpt lat="45.63961" lon="4.61221">
        <ele>630.28</ele>
        <time>2011-06-30T15:48:31Z</time>
      </trkpt>
      <trkpt lat="45.63959" lon="4.61228">
        <ele>630.28</ele>
        <time>2011-06-30T15:48:32Z</time>
      </trkpt>
      <trkpt lat="45.63957" lon="4.61234">
        <ele>629.8</ele>
        <time>2011-06-30T15:48:33Z</time>
      </trkpt>
      <trkpt lat="45.63926" lon="4.61321">
        <ele>630.76</ele>
        <time>2011-06-30T15:48:47Z</time>
      </trkpt>
      <trkpt lat="45.63891" lon="4.61415">
        <ele>631.24</ele>
        <time>2011-06-30T15:49:03Z</time>
      </trkpt>
      <trkpt lat="45.63889" lon="4.61421">
        <ele>630.76</ele>
        <time>2011-06-30T15:49:04Z</time>
      </trkpt>
      <trkpt lat="45.63886" lon="4.61424">
        <ele>631.24</ele>
        <time>2011-06-30T15:49:05Z</time>
      </trkpt>
      <trkpt lat="45.63884" lon="4.61424">
        <ele>631.24</ele>
        <time>2011-06-30T15:49:06Z</time>
      </trkpt>
      <trkpt lat="45.63882" lon="4.61423">
        <ele>632.68</ele>
        <time>2011-06-30T15:49:07Z</time>
      </trkpt>
      <trkpt lat="45.63881" lon="4.61419">
        <ele>632.2</ele>
        <time>2011-06-30T15:49:08Z</time>
      </trkpt>
      <trkpt lat="45.63881" lon="4.61416">
        <ele>633.17</ele>
        <time>2011-06-30T15:49:09Z</time>
      </trkpt>
      <trkpt lat="45.63881" lon="4.61412">
        <ele>633.17</ele>
        <time>2011-06-30T15:49:10Z</time>
      </trkpt>
      <trkpt lat="45.63887" lon="4.61361">
        <ele>635.57</ele>
        <time>2011-06-30T15:49:26Z</time>
      </trkpt>
      <trkpt lat="45.63897" lon="4.61319">
        <ele>637.49</ele>
        <time>2011-06-30T15:49:40Z</time>
      </trkpt>
      <trkpt lat="45.63908" lon="4.61282">
        <ele>640.86</ele>
        <time>2011-06-30T15:49:55Z</time>
      </trkpt>
      <trkpt lat="45.63909" lon="4.6128">
        <ele>639.89</ele>
        <time>2011-06-30T15:49:56Z</time>
      </trkpt>
      <trkpt lat="45.63919" lon="4.6124">
        <ele>642.3</ele>
        <time>2011-06-30T15:50:13Z</time>
      </trkpt>
      <trkpt lat="45.63921" lon="4.61188">
        <ele>645.18</ele>
        <time>2011-06-30T15:50:34Z</time>
      </trkpt>
      <trkpt lat="45.63908" lon="4.61154">
        <ele>647.59</ele>
        <time>2011-06-30T15:50:50Z</time>
      </trkpt>
      <trkpt lat="45.63894" lon="4.61123">
        <ele>650.47</ele>
        <time>2011-06-30T15:51:05Z</time>
      </trkpt>
      <trkpt lat="45.63884" lon="4.61091">
        <ele>652.39</ele>
        <time>2011-06-30T15:51:19Z</time>
      </trkpt>
      <trkpt lat="45.63878" lon="4.61083">
        <ele>653.35</ele>
        <time>2011-06-30T15:51:24Z</time>
      </trkpt>
      <trkpt lat="45.63876" lon="4.61083">
        <ele>653.35</ele>
        <time>2011-06-30T15:51:25Z</time>
      </trkpt>
      <trkpt lat="45.63874" lon="4.61084">
        <ele>653.35</ele>
        <time>2011-06-30T15:51:26Z</time>
      </trkpt>
      <trkpt lat="45.63873" lon="4.61085">
        <ele>653.83</ele>
        <time>2011-06-30T15:51:27Z</time>
      </trkpt>
      <trkpt lat="45.63872" lon="4.61087">
        <ele>654.31</ele>
        <time>2011-06-30T15:51:28Z</time>
      </trkpt>
      <trkpt lat="45.63871" lon="4.6109">
        <ele>654.31</ele>
        <time>2011-06-30T15:51:29Z</time>
      </trkpt>
      <trkpt lat="45.6387" lon="4.61093">
        <ele>654.31</ele>
        <time>2011-06-30T15:51:30Z</time>
      </trkpt>
      <trkpt lat="45.63869" lon="4.61095">
        <ele>654.31</ele>
        <time>2011-06-30T15:51:31Z</time>
      </trkpt>
      <trkpt lat="45.63869" lon="4.61098">
        <ele>654.31</ele>
        <time>2011-06-30T15:51:32Z</time>
      </trkpt>
      <trkpt lat="45.63869" lon="4.61101">
        <ele>654.8</ele>
        <time>2011-06-30T15:51:33Z</time>
      </trkpt>
      <trkpt lat="45.6387" lon="4.61104">
        <ele>654.31</ele>
        <time>2011-06-30T15:51:34Z</time>
      </trkpt>
      <trkpt lat="45.63877" lon="4.61143">
        <ele>657.2</ele>
        <time>2011-06-30T15:51:49Z</time>
      </trkpt>
      <trkpt lat="45.63872" lon="4.61174">
        <ele>659.12</ele>
        <time>2011-06-30T15:52:01Z</time>
      </trkpt>
      <trkpt lat="45.63853" lon="4.61208">
        <ele>662.01</ele>
        <time>2011-06-30T15:52:17Z</time>
      </trkpt>
      <trkpt lat="45.63828" lon="4.61233">
        <ele>663.93</ele>
        <time>2011-06-30T15:52:33Z</time>
      </trkpt>
      <trkpt lat="45.63803" lon="4.61248">
        <ele>666.33</ele>
        <time>2011-06-30T15:52:47Z</time>
      </trkpt>
      <trkpt lat="45.63775" lon="4.61244">
        <ele>669.7</ele>
        <time>2011-06-30T15:53:02Z</time>
      </trkpt>
      <trkpt lat="45.63751" lon="4.61233">
        <ele>671.14</ele>
        <time>2011-06-30T15:53:16Z</time>
      </trkpt>
      <trkpt lat="45.63725" lon="4.61223">
        <ele>673.54</ele>
        <time>2011-06-30T15:53:30Z</time>
      </trkpt>
      <trkpt lat="45.63689" lon="4.6121">
        <ele>676.42</ele>
        <time>2011-06-30T15:53:48Z</time>
      </trkpt>
      <trkpt lat="45.63659" lon="4.61192">
        <ele>678.83</ele>
        <time>2011-06-30T15:54:05Z</time>
      </trkpt>
      <trkpt lat="45.63627" lon="4.61176">
        <ele>681.71</ele>
        <time>2011-06-30T15:54:22Z</time>
      </trkpt>
      <trkpt lat="45.63601" lon="4.61161">
        <ele>684.6</ele>
        <time>2011-06-30T15:54:37Z</time>
      </trkpt>
      <trkpt lat="45.63578" lon="4.61151">
        <ele>687</ele>
        <time>2011-06-30T15:54:50Z</time>
      </trkpt>
      <trkpt lat="45.63546" lon="4.61149">
        <ele>689.88</ele>
        <time>2011-06-30T15:55:06Z</time>
      </trkpt>
      <trkpt lat="45.63518" lon="4.61139">
        <ele>692.29</ele>
        <time>2011-06-30T15:55:20Z</time>
      </trkpt>
      <trkpt lat="45.63491" lon="4.61128">
        <ele>694.21</ele>
        <time>2011-06-30T15:55:35Z</time>
      </trkpt>
      <trkpt lat="45.63465" lon="4.61116">
        <ele>697.09</ele>
        <time>2011-06-30T15:55:49Z</time>
      </trkpt>
      <trkpt lat="45.63428" lon="4.61112">
        <ele>699.5</ele>
        <time>2011-06-30T15:56:07Z</time>
      </trkpt>
      <trkpt lat="45.63394" lon="4.61119">
        <ele>702.86</ele>
        <time>2011-06-30T15:56:25Z</time>
      </trkpt>
      <trkpt lat="45.63367" lon="4.61112">
        <ele>705.26</ele>
        <time>2011-06-30T15:56:39Z</time>
      </trkpt>
      <trkpt lat="45.63346" lon="4.61092">
        <ele>708.15</ele>
        <time>2011-06-30T15:56:52Z</time>
      </trkpt>
      <trkpt lat="45.63325" lon="4.61068">
        <ele>709.59</ele>
        <time>2011-06-30T15:57:05Z</time>
      </trkpt>
      <trkpt lat="45.63295" lon="4.61038">
        <ele>708.15</ele>
        <time>2011-06-30T15:57:17Z</time>
      </trkpt>
      <trkpt lat="45.63272" lon="4.61004">
        <ele>706.23</ele>
        <time>2011-06-30T15:57:24Z</time>
      </trkpt>
      <trkpt lat="45.63256" lon="4.60981">
        <ele>704.78</ele>
        <time>2011-06-30T15:57:28Z</time>
      </trkpt>
      <trkpt lat="45.63252" lon="4.60975">
        <ele>704.78</ele>
        <time>2011-06-30T15:57:29Z</time>
      </trkpt>
      <trkpt lat="45.63224" lon="4.60938">
        <ele>701.9</ele>
        <time>2011-06-30T15:57:36Z</time>
      </trkpt>
      <trkpt lat="45.63212" lon="4.60924">
        <ele>700.94</ele>
        <time>2011-06-30T15:57:39Z</time>
      </trkpt>
      <trkpt lat="45.63208" lon="4.60919">
        <ele>699.98</ele>
        <time>2011-06-30T15:57:40Z</time>
      </trkpt>
      <trkpt lat="45.63197" lon="4.60907">
        <ele>698.53</ele>
        <time>2011-06-30T15:57:42Z</time>
      </trkpt>
      <trkpt lat="45.63175" lon="4.60875">
        <ele>694.21</ele>
        <time>2011-06-30T15:57:47Z</time>
      </trkpt>
      <trkpt lat="45.63172" lon="4.60869">
        <ele>694.21</ele>
        <time>2011-06-30T15:57:48Z</time>
      </trkpt>
      <trkpt lat="45.63153" lon="4.60843">
        <ele>690.36</ele>
        <time>2011-06-30T15:57:53Z</time>
      </trkpt>
      <trkpt lat="45.63137" lon="4.60825">
        <ele>687.96</ele>
        <time>2011-06-30T15:57:56Z</time>
      </trkpt>
      <trkpt lat="45.63131" lon="4.6082">
        <ele>687.48</ele>
        <time>2011-06-30T15:57:57Z</time>
      </trkpt>
      <trkpt lat="45.63103" lon="4.60795">
        <ele>684.12</ele>
        <time>2011-06-30T15:58:03Z</time>
      </trkpt>
      <trkpt lat="45.631" lon="4.6079">
        <ele>684.12</ele>
        <time>2011-06-30T15:58:04Z</time>
      </trkpt>
      <trkpt lat="45.63087" lon="4.60773">
        <ele>683.63</ele>
        <time>2011-06-30T15:58:08Z</time>
      </trkpt>
      <trkpt lat="45.63083" lon="4.60769">
        <ele>683.63</ele>
        <time>2011-06-30T15:58:09Z</time>
      </trkpt>
      <trkpt lat="45.63079" lon="4.60767">
        <ele>683.15</ele>
        <time>2011-06-30T15:58:10Z</time>
      </trkpt>
      <trkpt lat="45.63076" lon="4.60766">
        <ele>683.15</ele>
        <time>2011-06-30T15:58:11Z</time>
      </trkpt>
      <trkpt lat="45.63072" lon="4.60766">
        <ele>682.67</ele>
        <time>2011-06-30T15:58:12Z</time>
      </trkpt>
      <trkpt lat="45.63068" lon="4.60767">
        <ele>682.67</ele>
        <time>2011-06-30T15:58:13Z</time>
      </trkpt>
      <trkpt lat="45.63058" lon="4.60768">
        <ele>682.19</ele>
        <time>2011-06-30T15:58:15Z</time>
      </trkpt>
      <trkpt lat="45.63054" lon="4.60768">
        <ele>682.19</ele>
        <time>2011-06-30T15:58:16Z</time>
      </trkpt>
      <trkpt lat="45.6304" lon="4.6077">
        <ele>681.71</ele>
        <time>2011-06-30T15:58:19Z</time>
      </trkpt>
      <trkpt lat="45.63035" lon="4.60771">
        <ele>681.71</ele>
        <time>2011-06-30T15:58:20Z</time>
      </trkpt>
      <trkpt lat="45.63031" lon="4.60772">
        <ele>680.75</ele>
        <time>2011-06-30T15:58:21Z</time>
      </trkpt>
      <trkpt lat="45.63028" lon="4.60773">
        <ele>680.75</ele>
        <time>2011-06-30T15:58:22Z</time>
      </trkpt>
      <trkpt lat="45.63023" lon="4.60775">
        <ele>680.75</ele>
        <time>2011-06-30T15:58:23Z</time>
      </trkpt>
      <trkpt lat="45.6302" lon="4.60777">
        <ele>680.75</ele>
        <time>2011-06-30T15:58:24Z</time>
      </trkpt>
      <trkpt lat="45.63015" lon="4.6078">
        <ele>680.75</ele>
        <time>2011-06-30T15:58:25Z</time>
      </trkpt>
      <trkpt lat="45.63012" lon="4.60783">
        <ele>681.23</ele>
        <time>2011-06-30T15:58:26Z</time>
      </trkpt>
      <trkpt lat="45.63008" lon="4.60787">
        <ele>681.23</ele>
        <time>2011-06-30T15:58:27Z</time>
      </trkpt>
      <trkpt lat="45.63005" lon="4.60791">
        <ele>681.23</ele>
        <time>2011-06-30T15:58:28Z</time>
      </trkpt>
      <trkpt lat="45.63002" lon="4.60795">
        <ele>680.75</ele>
        <time>2011-06-30T15:58:29Z</time>
      </trkpt>
      <trkpt lat="45.62999" lon="4.60799">
        <ele>681.71</ele>
        <time>2011-06-30T15:58:30Z</time>
      </trkpt>
      <trkpt lat="45.62974" lon="4.60846">
        <ele>683.15</ele>
        <time>2011-06-30T15:58:41Z</time>
      </trkpt>
      <trkpt lat="45.62969" lon="4.60888">
        <ele>681.71</ele>
        <time>2011-06-30T15:58:47Z</time>
      </trkpt>
      <trkpt lat="45.62968" lon="4.60895">
        <ele>681.71</ele>
        <time>2011-06-30T15:58:48Z</time>
      </trkpt>
      <trkpt lat="45.62967" lon="4.60902">
        <ele>681.23</ele>
        <time>2011-06-30T15:58:49Z</time>
      </trkpt>
      <trkpt lat="45.62965" lon="4.60919">
        <ele>681.23</ele>
        <time>2011-06-30T15:58:51Z</time>
      </trkpt>
      <trkpt lat="45.62963" lon="4.60927">
        <ele>680.27</ele>
        <time>2011-06-30T15:58:52Z</time>
      </trkpt>
      <trkpt lat="45.62961" lon="4.60935">
        <ele>680.27</ele>
        <time>2011-06-30T15:58:53Z</time>
      </trkpt>
      <trkpt lat="45.62954" lon="4.6098">
        <ele>678.35</ele>
        <time>2011-06-30T15:58:58Z</time>
      </trkpt>
      <trkpt lat="45.62949" lon="4.61018">
        <ele>677.87</ele>
        <time>2011-06-30T15:59:02Z</time>
      </trkpt>
      <trkpt lat="45.62945" lon="4.61035">
        <ele>677.87</ele>
        <time>2011-06-30T15:59:04Z</time>
      </trkpt>
      <trkpt lat="45.62943" lon="4.61043">
        <ele>677.87</ele>
        <time>2011-06-30T15:59:05Z</time>
      </trkpt>
      <trkpt lat="45.62941" lon="4.61052">
        <ele>677.39</ele>
        <time>2011-06-30T15:59:06Z</time>
      </trkpt>
      <trkpt lat="45.62937" lon="4.61067">
        <ele>677.39</ele>
        <time>2011-06-30T15:59:08Z</time>
      </trkpt>
      <trkpt lat="45.62936" lon="4.61075">
        <ele>676.42</ele>
        <time>2011-06-30T15:59:09Z</time>
      </trkpt>
      <trkpt lat="45.62934" lon="4.61083">
        <ele>676.42</ele>
        <time>2011-06-30T15:59:10Z</time>
      </trkpt>
      <trkpt lat="45.62929" lon="4.61094">
        <ele>675.94</ele>
        <time>2011-06-30T15:59:12Z</time>
      </trkpt>
      <trkpt lat="45.62915" lon="4.61132">
        <ele>674.5</ele>
        <time>2011-06-30T15:59:21Z</time>
      </trkpt>
      <trkpt lat="45.62908" lon="4.6115">
        <ele>673.54</ele>
        <time>2011-06-30T15:59:24Z</time>
      </trkpt>
      <trkpt lat="45.62888" lon="4.61218">
        <ele>671.14</ele>
        <time>2011-06-30T15:59:32Z</time>
      </trkpt>
      <trkpt lat="45.62867" lon="4.61265">
        <ele>668.25</ele>
        <time>2011-06-30T15:59:37Z</time>
      </trkpt>
      <trkpt lat="45.62855" lon="4.61307">
        <ele>665.37</ele>
        <time>2011-06-30T15:59:41Z</time>
      </trkpt>
      <trkpt lat="45.62846" lon="4.61348">
        <ele>661.52</ele>
        <time>2011-06-30T15:59:45Z</time>
      </trkpt>
      <trkpt lat="45.62831" lon="4.61398">
        <ele>657.2</ele>
        <time>2011-06-30T15:59:50Z</time>
      </trkpt>
      <trkpt lat="45.62827" lon="4.61408">
        <ele>657.2</ele>
        <time>2011-06-30T15:59:51Z</time>
      </trkpt>
      <trkpt lat="45.62819" lon="4.61434">
        <ele>654.31</ele>
        <time>2011-06-30T15:59:54Z</time>
      </trkpt>
      <trkpt lat="45.62806" lon="4.61469">
        <ele>651.43</ele>
        <time>2011-06-30T15:59:58Z</time>
      </trkpt>
      <trkpt lat="45.62803" lon="4.61477">
        <ele>650.47</ele>
        <time>2011-06-30T15:59:59Z</time>
      </trkpt>
      <trkpt lat="45.62801" lon="4.61486">
        <ele>649.51</ele>
        <time>2011-06-30T16:00:00Z</time>
      </trkpt>
      <trkpt lat="45.62792" lon="4.61535">
        <ele>645.66</ele>
        <time>2011-06-30T16:00:04Z</time>
      </trkpt>
      <trkpt lat="45.62786" lon="4.61561">
        <ele>642.3</ele>
        <time>2011-06-30T16:00:07Z</time>
      </trkpt>
      <trkpt lat="45.62773" lon="4.61582">
        <ele>641.34</ele>
        <time>2011-06-30T16:00:13Z</time>
      </trkpt>
      <trkpt lat="45.62759" lon="4.61595">
        <ele>639.89</ele>
        <time>2011-06-30T16:00:17Z</time>
      </trkpt>
      <trkpt lat="45.62756" lon="4.61598">
        <ele>640.38</ele>
        <time>2011-06-30T16:00:18Z</time>
      </trkpt>
      <trkpt lat="45.62751" lon="4.616">
        <ele>639.41</ele>
        <time>2011-06-30T16:00:19Z</time>
      </trkpt>
      <trkpt lat="45.62722" lon="4.61602">
        <ele>637.01</ele>
        <time>2011-06-30T16:00:27Z</time>
      </trkpt>
      <trkpt lat="45.627" lon="4.61596">
        <ele>634.13</ele>
        <time>2011-06-30T16:00:33Z</time>
      </trkpt>
      <trkpt lat="45.62696" lon="4.61594">
        <ele>633.65</ele>
        <time>2011-06-30T16:00:34Z</time>
      </trkpt>
      <trkpt lat="45.62692" lon="4.61592">
        <ele>632.2</ele>
        <time>2011-06-30T16:00:35Z</time>
      </trkpt>
      <trkpt lat="45.62688" lon="4.6159">
        <ele>632.2</ele>
        <time>2011-06-30T16:00:36Z</time>
      </trkpt>
      <trkpt lat="45.62684" lon="4.61588">
        <ele>631.72</ele>
        <time>2011-06-30T16:00:37Z</time>
      </trkpt>
      <trkpt lat="45.6268" lon="4.61585">
        <ele>631.24</ele>
        <time>2011-06-30T16:00:38Z</time>
      </trkpt>
      <trkpt lat="45.62677" lon="4.61584">
        <ele>631.24</ele>
        <time>2011-06-30T16:00:39Z</time>
      </trkpt>
      <trkpt lat="45.62675" lon="4.61583">
        <ele>630.28</ele>
        <time>2011-06-30T16:00:40Z</time>
      </trkpt>
      <trkpt lat="45.62672" lon="4.61581">
        <ele>629.8</ele>
        <time>2011-06-30T16:00:41Z</time>
      </trkpt>
      <trkpt lat="45.6265" lon="4.61568">
        <ele>626.44</ele>
        <time>2011-06-30T16:00:49Z</time>
      </trkpt>
      <trkpt lat="45.62645" lon="4.61565">
        <ele>624.99</ele>
        <time>2011-06-30T16:00:52Z</time>
      </trkpt>
      <trkpt lat="45.62632" lon="4.6156">
        <ele>622.59</ele>
        <time>2011-06-30T16:00:59Z</time>
      </trkpt>
      <trkpt lat="45.62631" lon="4.61562">
        <ele>622.59</ele>
        <time>2011-06-30T16:01:00Z</time>
      </trkpt>
      <trkpt lat="45.62624" lon="4.61576">
        <ele>619.23</ele>
        <time>2011-06-30T16:01:04Z</time>
      </trkpt>
      <trkpt lat="45.62622" lon="4.61576">
        <ele>619.23</ele>
        <time>2011-06-30T16:01:05Z</time>
      </trkpt>
      <trkpt lat="45.62619" lon="4.61575">
        <ele>619.23</ele>
        <time>2011-06-30T16:01:06Z</time>
      </trkpt>
      <trkpt lat="45.62617" lon="4.61572">
        <ele>618.75</ele>
        <time>2011-06-30T16:01:07Z</time>
      </trkpt>
      <trkpt lat="45.62614" lon="4.61569">
        <ele>619.23</ele>
        <time>2011-06-30T16:01:08Z</time>
      </trkpt>
      <trkpt lat="45.62591" lon="4.61538">
        <ele>618.26</ele>
        <time>2011-06-30T16:01:17Z</time>
      </trkpt>
      <trkpt lat="45.62587" lon="4.61535">
        <ele>618.75</ele>
        <time>2011-06-30T16:01:18Z</time>
      </trkpt>
      <trkpt lat="45.62583" lon="4.61533">
        <ele>618.75</ele>
        <time>2011-06-30T16:01:19Z</time>
      </trkpt>
      <trkpt lat="45.6258" lon="4.61532">
        <ele>618.75</ele>
        <time>2011-06-30T16:01:20Z</time>
      </trkpt>
      <trkpt lat="45.62576" lon="4.61531">
        <ele>618.75</ele>
        <time>2011-06-30T16:01:21Z</time>
      </trkpt>
      <trkpt lat="45.62572" lon="4.6153">
        <ele>618.75</ele>
        <time>2011-06-30T16:01:22Z</time>
      </trkpt>
      <trkpt lat="45.62569" lon="4.6153">
        <ele>619.23</ele>
        <time>2011-06-30T16:01:23Z</time>
      </trkpt>
      <trkpt lat="45.62565" lon="4.61531">
        <ele>619.23</ele>
        <time>2011-06-30T16:01:24Z</time>
      </trkpt>
      <trkpt lat="45.62518" lon="4.61542">
        <ele>619.23</ele>
        <time>2011-06-30T16:01:37Z</time>
      </trkpt>
      <trkpt lat="45.62487" lon="4.61561">
        <ele>617.78</ele>
        <time>2011-06-30T16:01:43Z</time>
      </trkpt>
      <trkpt lat="45.62481" lon="4.61565">
        <ele>617.78</ele>
        <time>2011-06-30T16:01:44Z</time>
      </trkpt>
      <trkpt lat="45.62475" lon="4.61567">
        <ele>617.78</ele>
        <time>2011-06-30T16:01:45Z</time>
      </trkpt>
      <trkpt lat="45.62458" lon="4.61574">
        <ele>617.78</ele>
        <time>2011-06-30T16:01:48Z</time>
      </trkpt>
      <trkpt lat="45.62453" lon="4.61577">
        <ele>618.26</ele>
        <time>2011-06-30T16:01:49Z</time>
      </trkpt>
      <trkpt lat="45.62439" lon="4.61588">
        <ele>617.78</ele>
        <time>2011-06-30T16:01:52Z</time>
      </trkpt>
      <trkpt lat="45.62429" lon="4.61593">
        <ele>618.26</ele>
        <time>2011-06-30T16:01:54Z</time>
      </trkpt>
      <trkpt lat="45.62425" lon="4.61594">
        <ele>618.75</ele>
        <time>2011-06-30T16:01:55Z</time>
      </trkpt>
      <trkpt lat="45.62421" lon="4.61595">
        <ele>619.23</ele>
        <time>2011-06-30T16:01:56Z</time>
      </trkpt>
      <trkpt lat="45.62418" lon="4.61595">
        <ele>619.23</ele>
        <time>2011-06-30T16:01:57Z</time>
      </trkpt>
      <trkpt lat="45.62414" lon="4.61595">
        <ele>619.23</ele>
        <time>2011-06-30T16:01:58Z</time>
      </trkpt>
      <trkpt lat="45.62411" lon="4.61594">
        <ele>619.71</ele>
        <time>2011-06-30T16:01:59Z</time>
      </trkpt>
      <trkpt lat="45.62407" lon="4.61594">
        <ele>619.71</ele>
        <time>2011-06-30T16:02:00Z</time>
      </trkpt>
      <trkpt lat="45.6236" lon="4.61582">
        <ele>621.63</ele>
        <time>2011-06-30T16:02:14Z</time>
      </trkpt>
      <trkpt lat="45.62345" lon="4.61573">
        <ele>624.03</ele>
        <time>2011-06-30T16:02:20Z</time>
      </trkpt>
      <trkpt lat="45.62321" lon="4.61555">
        <ele>626.92</ele>
        <time>2011-06-30T16:02:33Z</time>
      </trkpt>
      <trkpt lat="45.62303" lon="4.61533">
        <ele>628.84</ele>
        <time>2011-06-30T16:02:45Z</time>
      </trkpt>
      <trkpt lat="45.62268" lon="4.61499">
        <ele>631.72</ele>
        <time>2011-06-30T16:03:02Z</time>
      </trkpt>
      <trkpt lat="45.62239" lon="4.61475">
        <ele>634.13</ele>
        <time>2011-06-30T16:03:15Z</time>
      </trkpt>
      <trkpt lat="45.62196" lon="4.61466">
        <ele>632.2</ele>
        <time>2011-06-30T16:03:26Z</time>
      </trkpt>
      <trkpt lat="45.62188" lon="4.61469">
        <ele>631.24</ele>
        <time>2011-06-30T16:03:34Z</time>
      </trkpt>
      <trkpt lat="45.62188" lon="4.61469">
        <ele>630.76</ele>
        <time>2011-06-30T16:03:50Z</time>
      </trkpt>
      <trkpt lat="45.62186" lon="4.61468">
        <ele>631.24</ele>
        <time>2011-06-30T16:03:51Z</time>
      </trkpt>
      <trkpt lat="45.62184" lon="4.61467">
        <ele>631.24</ele>
        <time>2011-06-30T16:03:52Z</time>
      </trkpt>
      <trkpt lat="45.6218" lon="4.61465">
        <ele>630.76</ele>
        <time>2011-06-30T16:03:53Z</time>
      </trkpt>
      <trkpt lat="45.62177" lon="4.61463">
        <ele>630.76</ele>
        <time>2011-06-30T16:03:54Z</time>
      </trkpt>
      <trkpt lat="45.6214" lon="4.61451">
        <ele>629.32</ele>
        <time>2011-06-30T16:04:05Z</time>
      </trkpt>
      <trkpt lat="45.62126" lon="4.61447">
        <ele>629.32</ele>
        <time>2011-06-30T16:04:18Z</time>
      </trkpt>
      <trkpt lat="45.62072" lon="4.61437">
        <ele>626.44</ele>
        <time>2011-06-30T16:04:27Z</time>
      </trkpt>
      <trkpt lat="45.62064" lon="4.61437">
        <ele>626.44</ele>
        <time>2011-06-30T16:04:28Z</time>
      </trkpt>
      <trkpt lat="45.62056" lon="4.61438">
        <ele>625.96</ele>
        <time>2011-06-30T16:04:29Z</time>
      </trkpt>
      <trkpt lat="45.62049" lon="4.61441">
        <ele>625.96</ele>
        <time>2011-06-30T16:04:30Z</time>
      </trkpt>
      <trkpt lat="45.62041" lon="4.61445">
        <ele>624.99</ele>
        <time>2011-06-30T16:04:31Z</time>
      </trkpt>
      <trkpt lat="45.62034" lon="4.6145">
        <ele>624.99</ele>
        <time>2011-06-30T16:04:32Z</time>
      </trkpt>
      <trkpt lat="45.62027" lon="4.61456">
        <ele>624.51</ele>
        <time>2011-06-30T16:04:33Z</time>
      </trkpt>
      <trkpt lat="45.62021" lon="4.61463">
        <ele>624.03</ele>
        <time>2011-06-30T16:04:34Z</time>
      </trkpt>
      <trkpt lat="45.62014" lon="4.61471">
        <ele>623.55</ele>
        <time>2011-06-30T16:04:35Z</time>
      </trkpt>
      <trkpt lat="45.62008" lon="4.6148">
        <ele>622.59</ele>
        <time>2011-06-30T16:04:36Z</time>
      </trkpt>
      <trkpt lat="45.62002" lon="4.6149">
        <ele>622.59</ele>
        <time>2011-06-30T16:04:37Z</time>
      </trkpt>
      <trkpt lat="45.61998" lon="4.61501">
        <ele>622.59</ele>
        <time>2011-06-30T16:04:38Z</time>
      </trkpt>
      <trkpt lat="45.61994" lon="4.61513">
        <ele>621.63</ele>
        <time>2011-06-30T16:04:39Z</time>
      </trkpt>
      <trkpt lat="45.61991" lon="4.61526">
        <ele>621.15</ele>
        <time>2011-06-30T16:04:40Z</time>
      </trkpt>
      <trkpt lat="45.61974" lon="4.61605">
        <ele>618.26</ele>
        <time>2011-06-30T16:04:46Z</time>
      </trkpt>
      <trkpt lat="45.61963" lon="4.61689">
        <ele>613.94</ele>
        <time>2011-06-30T16:04:52Z</time>
      </trkpt>
      <trkpt lat="45.6196" lon="4.61749">
        <ele>612.02</ele>
        <time>2011-06-30T16:04:56Z</time>
      </trkpt>
      <trkpt lat="45.61958" lon="4.61779">
        <ele>610.09</ele>
        <time>2011-06-30T16:04:58Z</time>
      </trkpt>
      <trkpt lat="45.61954" lon="4.61839">
        <ele>606.73</ele>
        <time>2011-06-30T16:05:02Z</time>
      </trkpt>
      <trkpt lat="45.61949" lon="4.61886">
        <ele>604.33</ele>
        <time>2011-06-30T16:05:05Z</time>
      </trkpt>
      <trkpt lat="45.61945" lon="4.61935">
        <ele>601.44</ele>
        <time>2011-06-30T16:05:08Z</time>
      </trkpt>
      <trkpt lat="45.61941" lon="4.61985">
        <ele>597.12</ele>
        <time>2011-06-30T16:05:11Z</time>
      </trkpt>
      <trkpt lat="45.61937" lon="4.62067">
        <ele>593.75</ele>
        <time>2011-06-30T16:05:16Z</time>
      </trkpt>
      <trkpt lat="45.61937" lon="4.62159">
        <ele>590.39</ele>
        <time>2011-06-30T16:05:22Z</time>
      </trkpt>
      <trkpt lat="45.61937" lon="4.62174">
        <ele>590.39</ele>
        <time>2011-06-30T16:05:23Z</time>
      </trkpt>
      <trkpt lat="45.6194" lon="4.62232">
        <ele>587.5</ele>
        <time>2011-06-30T16:05:27Z</time>
      </trkpt>
      <trkpt lat="45.61943" lon="4.6229">
        <ele>584.14</ele>
        <time>2011-06-30T16:05:31Z</time>
      </trkpt>
      <trkpt lat="45.61943" lon="4.62351">
        <ele>582.22</ele>
        <time>2011-06-30T16:05:35Z</time>
      </trkpt>
      <trkpt lat="45.61951" lon="4.62518">
        <ele>579.33</ele>
        <time>2011-06-30T16:05:48Z</time>
      </trkpt>
      <trkpt lat="45.61971" lon="4.62669">
        <ele>578.85</ele>
        <time>2011-06-30T16:06:05Z</time>
      </trkpt>
      <trkpt lat="45.61963" lon="4.62776">
        <ele>581.25</ele>
        <time>2011-06-30T16:06:20Z</time>
      </trkpt>
      <trkpt lat="45.61961" lon="4.6279">
        <ele>581.73</ele>
        <time>2011-06-30T16:06:22Z</time>
      </trkpt>
      <trkpt lat="45.61959" lon="4.62797">
        <ele>582.22</ele>
        <time>2011-06-30T16:06:23Z</time>
      </trkpt>
      <trkpt lat="45.61958" lon="4.62804">
        <ele>582.7</ele>
        <time>2011-06-30T16:06:24Z</time>
      </trkpt>
      <trkpt lat="45.61957" lon="4.62811">
        <ele>583.18</ele>
        <time>2011-06-30T16:06:25Z</time>
      </trkpt>
      <trkpt lat="45.61955" lon="4.62817">
        <ele>583.66</ele>
        <time>2011-06-30T16:06:26Z</time>
      </trkpt>
      <trkpt lat="45.61953" lon="4.62824">
        <ele>583.66</ele>
        <time>2011-06-30T16:06:27Z</time>
      </trkpt>
      <trkpt lat="45.61951" lon="4.62831">
        <ele>583.66</ele>
        <time>2011-06-30T16:06:28Z</time>
      </trkpt>
      <trkpt lat="45.6195" lon="4.62838">
        <ele>584.62</ele>
        <time>2011-06-30T16:06:29Z</time>
      </trkpt>
      <trkpt lat="45.61949" lon="4.62845">
        <ele>585.1</ele>
        <time>2011-06-30T16:06:30Z</time>
      </trkpt>
      <trkpt lat="45.61948" lon="4.62852">
        <ele>584.62</ele>
        <time>2011-06-30T16:06:31Z</time>
      </trkpt>
      <trkpt lat="45.61947" lon="4.62858">
        <ele>585.58</ele>
        <time>2011-06-30T16:06:32Z</time>
      </trkpt>
      <trkpt lat="45.61949" lon="4.62921">
        <ele>583.18</ele>
        <time>2011-06-30T16:06:41Z</time>
      </trkpt>
      <trkpt lat="45.61949" lon="4.62929">
        <ele>583.66</ele>
        <time>2011-06-30T16:06:42Z</time>
      </trkpt>
      <trkpt lat="45.61956" lon="4.63012">
        <ele>579.81</ele>
        <time>2011-06-30T16:06:50Z</time>
      </trkpt>
      <trkpt lat="45.61958" lon="4.63023">
        <ele>579.81</ele>
        <time>2011-06-30T16:06:51Z</time>
      </trkpt>
      <trkpt lat="45.61969" lon="4.63057">
        <ele>576.93</ele>
        <time>2011-06-30T16:06:54Z</time>
      </trkpt>
      <trkpt lat="45.61974" lon="4.63068">
        <ele>575.97</ele>
        <time>2011-06-30T16:06:55Z</time>
      </trkpt>
      <trkpt lat="45.6198" lon="4.63079">
        <ele>575.97</ele>
        <time>2011-06-30T16:06:56Z</time>
      </trkpt>
      <trkpt lat="45.61991" lon="4.63103">
        <ele>573.56</ele>
        <time>2011-06-30T16:06:58Z</time>
      </trkpt>
      <trkpt lat="45.61996" lon="4.63116">
        <ele>573.08</ele>
        <time>2011-06-30T16:06:59Z</time>
      </trkpt>
      <trkpt lat="45.62" lon="4.6313">
        <ele>572.12</ele>
        <time>2011-06-30T16:07:00Z</time>
      </trkpt>
      <trkpt lat="45.62002" lon="4.63145">
        <ele>571.16</ele>
        <time>2011-06-30T16:07:01Z</time>
      </trkpt>
      <trkpt lat="45.62003" lon="4.6316">
        <ele>570.68</ele>
        <time>2011-06-30T16:07:02Z</time>
      </trkpt>
      <trkpt lat="45.62003" lon="4.63175">
        <ele>569.72</ele>
        <time>2011-06-30T16:07:03Z</time>
      </trkpt>
      <trkpt lat="45.62003" lon="4.6319">
        <ele>567.32</ele>
        <time>2011-06-30T16:07:04Z</time>
      </trkpt>
      <trkpt lat="45.62002" lon="4.63222">
        <ele>566.83</ele>
        <time>2011-06-30T16:07:06Z</time>
      </trkpt>
      <trkpt lat="45.61998" lon="4.63286">
        <ele>563.47</ele>
        <time>2011-06-30T16:07:10Z</time>
      </trkpt>
      <trkpt lat="45.61994" lon="4.63302">
        <ele>562.51</ele>
        <time>2011-06-30T16:07:11Z</time>
      </trkpt>
      <trkpt lat="45.61978" lon="4.63348">
        <ele>557.7</ele>
        <time>2011-06-30T16:07:14Z</time>
      </trkpt>
      <trkpt lat="45.61963" lon="4.63396">
        <ele>554.34</ele>
        <time>2011-06-30T16:07:17Z</time>
      </trkpt>
      <trkpt lat="45.61951" lon="4.6346">
        <ele>549.53</ele>
        <time>2011-06-30T16:07:21Z</time>
      </trkpt>
      <trkpt lat="45.61947" lon="4.6349">
        <ele>547.61</ele>
        <time>2011-06-30T16:07:23Z</time>
      </trkpt>
      <trkpt lat="45.61948" lon="4.63506">
        <ele>546.65</ele>
        <time>2011-06-30T16:07:24Z</time>
      </trkpt>
      <trkpt lat="45.61954" lon="4.63554">
        <ele>543.28</ele>
        <time>2011-06-30T16:07:27Z</time>
      </trkpt>
      <trkpt lat="45.61956" lon="4.63571">
        <ele>541.84</ele>
        <time>2011-06-30T16:07:28Z</time>
      </trkpt>
      <trkpt lat="45.6196" lon="4.63588">
        <ele>540.88</ele>
        <time>2011-06-30T16:07:29Z</time>
      </trkpt>
      <trkpt lat="45.61976" lon="4.63636">
        <ele>537.03</ele>
        <time>2011-06-30T16:07:32Z</time>
      </trkpt>
      <trkpt lat="45.61992" lon="4.63686">
        <ele>533.67</ele>
        <time>2011-06-30T16:07:35Z</time>
      </trkpt>
      <trkpt lat="45.6201" lon="4.63735">
        <ele>528.38</ele>
        <time>2011-06-30T16:07:38Z</time>
      </trkpt>
      <trkpt lat="45.62023" lon="4.6376">
        <ele>525.02</ele>
        <time>2011-06-30T16:07:40Z</time>
      </trkpt>
      <trkpt lat="45.62038" lon="4.63789">
        <ele>521.17</ele>
        <time>2011-06-30T16:07:43Z</time>
      </trkpt>
      <trkpt lat="45.62041" lon="4.63797">
        <ele>520.21</ele>
        <time>2011-06-30T16:07:44Z</time>
      </trkpt>
      <trkpt lat="45.62044" lon="4.63805">
        <ele>518.77</ele>
        <time>2011-06-30T16:07:45Z</time>
      </trkpt>
      <trkpt lat="45.62046" lon="4.63812">
        <ele>517.81</ele>
        <time>2011-06-30T16:07:46Z</time>
      </trkpt>
      <trkpt lat="45.62046" lon="4.63819">
        <ele>516.85</ele>
        <time>2011-06-30T16:07:47Z</time>
      </trkpt>
      <trkpt lat="45.62045" lon="4.63825">
        <ele>515.88</ele>
        <time>2011-06-30T16:07:48Z</time>
      </trkpt>
      <trkpt lat="45.62044" lon="4.63829">
        <ele>515.4</ele>
        <time>2011-06-30T16:07:49Z</time>
      </trkpt>
      <trkpt lat="45.62043" lon="4.63832">
        <ele>513.96</ele>
        <time>2011-06-30T16:07:50Z</time>
      </trkpt>
      <trkpt lat="45.62041" lon="4.63834">
        <ele>513</ele>
        <time>2011-06-30T16:07:51Z</time>
      </trkpt>
      <trkpt lat="45.6204" lon="4.63838">
        <ele>512.52</ele>
        <time>2011-06-30T16:07:53Z</time>
      </trkpt>
      <trkpt lat="45.6204" lon="4.63842">
        <ele>513</ele>
        <time>2011-06-30T16:07:54Z</time>
      </trkpt>
      <trkpt lat="45.62041" lon="4.63846">
        <ele>513</ele>
        <time>2011-06-30T16:07:55Z</time>
      </trkpt>
      <trkpt lat="45.62043" lon="4.6385">
        <ele>513.48</ele>
        <time>2011-06-30T16:07:56Z</time>
      </trkpt>
      <trkpt lat="45.62046" lon="4.63855">
        <ele>513</ele>
        <time>2011-06-30T16:07:57Z</time>
      </trkpt>
      <trkpt lat="45.62049" lon="4.63859">
        <ele>512.52</ele>
        <time>2011-06-30T16:07:58Z</time>
      </trkpt>
      <trkpt lat="45.62078" lon="4.63903">
        <ele>512.04</ele>
        <time>2011-06-30T16:08:08Z</time>
      </trkpt>
      <trkpt lat="45.6208" lon="4.63909">
        <ele>511.56</ele>
        <time>2011-06-30T16:08:09Z</time>
      </trkpt>
      <trkpt lat="45.62081" lon="4.63916">
        <ele>511.08</ele>
        <time>2011-06-30T16:08:10Z</time>
      </trkpt>
      <trkpt lat="45.62087" lon="4.63946">
        <ele>509.16</ele>
        <time>2011-06-30T16:08:14Z</time>
      </trkpt>
      <trkpt lat="45.6209" lon="4.63954">
        <ele>508.67</ele>
        <time>2011-06-30T16:08:15Z</time>
      </trkpt>
      <trkpt lat="45.62094" lon="4.63961">
        <ele>509.16</ele>
        <time>2011-06-30T16:08:16Z</time>
      </trkpt>
      <trkpt lat="45.621" lon="4.63966">
        <ele>508.19</ele>
        <time>2011-06-30T16:08:17Z</time>
      </trkpt>
      <trkpt lat="45.62106" lon="4.6397">
        <ele>508.19</ele>
        <time>2011-06-30T16:08:18Z</time>
      </trkpt>
      <trkpt lat="45.62113" lon="4.63972">
        <ele>507.71</ele>
        <time>2011-06-30T16:08:19Z</time>
      </trkpt>
      <trkpt lat="45.6212" lon="4.63974">
        <ele>506.75</ele>
        <time>2011-06-30T16:08:20Z</time>
      </trkpt>
      <trkpt lat="45.62135" lon="4.63978">
        <ele>504.83</ele>
        <time>2011-06-30T16:08:22Z</time>
      </trkpt>
      <trkpt lat="45.62139" lon="4.63983">
        <ele>503.87</ele>
        <time>2011-06-30T16:08:23Z</time>
      </trkpt>
      <trkpt lat="45.62143" lon="4.6399">
        <ele>502.91</ele>
        <time>2011-06-30T16:08:24Z</time>
      </trkpt>
      <trkpt lat="45.62145" lon="4.63998">
        <ele>501.46</ele>
        <time>2011-06-30T16:08:25Z</time>
      </trkpt>
      <trkpt lat="45.62145" lon="4.64007">
        <ele>500.5</ele>
        <time>2011-06-30T16:08:26Z</time>
      </trkpt>
      <trkpt lat="45.62145" lon="4.64015">
        <ele>499.54</ele>
        <time>2011-06-30T16:08:27Z</time>
      </trkpt>
      <trkpt lat="45.62146" lon="4.6405">
        <ele>494.74</ele>
        <time>2011-06-30T16:08:31Z</time>
      </trkpt>
      <trkpt lat="45.62146" lon="4.6407">
        <ele>491.85</ele>
        <time>2011-06-30T16:08:34Z</time>
      </trkpt>
      <trkpt lat="45.62148" lon="4.64076">
        <ele>490.89</ele>
        <time>2011-06-30T16:08:35Z</time>
      </trkpt>
      <trkpt lat="45.62151" lon="4.64081">
        <ele>490.41</ele>
        <time>2011-06-30T16:08:36Z</time>
      </trkpt>
      <trkpt lat="45.62157" lon="4.64082">
        <ele>489.93</ele>
        <time>2011-06-30T16:08:37Z</time>
      </trkpt>
      <trkpt lat="45.62163" lon="4.64081">
        <ele>489.45</ele>
        <time>2011-06-30T16:08:38Z</time>
      </trkpt>
      <trkpt lat="45.62169" lon="4.64079">
        <ele>489.45</ele>
        <time>2011-06-30T16:08:39Z</time>
      </trkpt>
      <trkpt lat="45.62173" lon="4.64077">
        <ele>489.45</ele>
        <time>2011-06-30T16:08:40Z</time>
      </trkpt>
      <trkpt lat="45.62212" lon="4.64067">
        <ele>489.93</ele>
        <time>2011-06-30T16:08:51Z</time>
      </trkpt>
      <trkpt lat="45.62218" lon="4.64069">
        <ele>490.41</ele>
        <time>2011-06-30T16:08:54Z</time>
      </trkpt>
      <trkpt lat="45.6222" lon="4.64072">
        <ele>489.93</ele>
        <time>2011-06-30T16:08:55Z</time>
      </trkpt>
      <trkpt lat="45.62237" lon="4.64121">
        <ele>488.49</ele>
        <time>2011-06-30T16:09:07Z</time>
      </trkpt>
      <trkpt lat="45.62241" lon="4.6413">
        <ele>488.49</ele>
        <time>2011-06-30T16:09:10Z</time>
      </trkpt>
      <trkpt lat="45.62243" lon="4.64131">
        <ele>488.01</ele>
        <time>2011-06-30T16:09:11Z</time>
      </trkpt>
      <trkpt lat="45.62245" lon="4.6413">
        <ele>488.01</ele>
        <time>2011-06-30T16:09:17Z</time>
      </trkpt>
      <trkpt lat="45.62244" lon="4.6413">
        <ele>487.05</ele>
        <time>2011-06-30T16:09:27Z</time>
      </trkpt>
      <trkpt lat="45.62244" lon="4.6413">
        <ele>488.49</ele>
        <time>2011-06-30T16:09:59Z</time>
      </trkpt>
    </trkseg>
  </trk>
</gpx>